<?xml version="1.0" encoding="UTF-8" standalone="no" ?>
<gpx xmlns="http://www.topografix.com/GPX/1/1" xmlns:xsi="http://www.w3.org/2001/XMLSchema-instance" xsi:schemaLocation="http://www.topografix.com/GPX/1/1 http://www.topografix.com/GPX/1/1/gpx.xsd" version="1.1" creator="VisuGPX - https://www.visugpx.com">
  <metadata>
    <name>Vélo bleu - Circuit 12</name>
    <desc><![CDATA[Petit patrimoine sur ce circuit :
- Lavoirs de Roôcourt-la-Côte, Doulaincourt, Roches-sur-rognon, Montot-sur-Rognon.
- Château de Montrol à Doulaincourt et château de Roches-sur-Rognon.
- Abbaye de Septfontaines]]></desc>
  </metadata>
  <trk>
    <name><![CDATA[Sortie vélo dans l'après-midi 52]]></name>
    <trkseg>
      <trkpt lat="48.20183" lon="5.14108">
        <ele>246.13</ele>
        <time>2025-01-04T13:45:20.000Z</time>
      </trkpt>
      <trkpt lat="48.20199" lon="5.14085">
        <ele>245.69</ele>
        <time>2025-01-04T13:45:20.004Z</time>
      </trkpt>
      <trkpt lat="48.20215" lon="5.14061">
        <ele>245.25</ele>
        <time>2025-01-04T13:45:20.011Z</time>
      </trkpt>
      <trkpt lat="48.20225" lon="5.14096">
        <ele>244.74</ele>
        <time>2025-01-04T13:45:20.022Z</time>
      </trkpt>
      <trkpt lat="48.20234" lon="5.1413">
        <ele>244.18</ele>
        <time>2025-01-04T13:45:20.037Z</time>
      </trkpt>
      <trkpt lat="48.20236" lon="5.14134">
        <ele>243.62</ele>
        <time>2025-01-04T13:45:20.053Z</time>
      </trkpt>
      <trkpt lat="48.20245" lon="5.14156">
        <ele>242.92</ele>
        <time>2025-01-04T13:45:20.071Z</time>
      </trkpt>
      <trkpt lat="48.20258" lon="5.14173">
        <ele>242.2</ele>
        <time>2025-01-04T13:45:20.092Z</time>
      </trkpt>
      <trkpt lat="48.20271" lon="5.14188">
        <ele>241.46</ele>
        <time>2025-01-04T13:45:20.116Z</time>
      </trkpt>
      <trkpt lat="48.20284" lon="5.14203">
        <ele>240.77</ele>
        <time>2025-01-04T13:45:20.142Z</time>
      </trkpt>
      <trkpt lat="48.20298" lon="5.14217">
        <ele>240.11</ele>
        <time>2025-01-04T13:45:20.171Z</time>
      </trkpt>
      <trkpt lat="48.20312" lon="5.14231">
        <ele>239.43</ele>
        <time>2025-01-04T13:45:20.203Z</time>
      </trkpt>
      <trkpt lat="48.20329" lon="5.14257">
        <ele>238.67</ele>
        <time>2025-01-04T13:45:20.239Z</time>
      </trkpt>
      <trkpt lat="48.20346" lon="5.14284">
        <ele>237.93</ele>
        <time>2025-01-04T13:45:20.279Z</time>
      </trkpt>
      <trkpt lat="48.20363" lon="5.1431">
        <ele>237.25</ele>
        <time>2025-01-04T13:45:20.323Z</time>
      </trkpt>
      <trkpt lat="48.20367" lon="5.14319">
        <ele>236.71</ele>
        <time>2025-01-04T13:45:20.368Z</time>
      </trkpt>
      <trkpt lat="48.20385" lon="5.14355">
        <ele>236.16</ele>
        <time>2025-01-04T13:45:20.417Z</time>
      </trkpt>
      <trkpt lat="48.20391" lon="5.14394">
        <ele>235.69</ele>
        <time>2025-01-04T13:45:20.471Z</time>
      </trkpt>
      <trkpt lat="48.20395" lon="5.14411">
        <ele>235.38</ele>
        <time>2025-01-04T13:45:20.527Z</time>
      </trkpt>
      <trkpt lat="48.20397" lon="5.14433">
        <ele>235.21</ele>
        <time>2025-01-04T13:45:20.585Z</time>
      </trkpt>
      <trkpt lat="48.20405" lon="5.14476">
        <ele>235.19</ele>
        <time>2025-01-04T13:45:20.648Z</time>
      </trkpt>
      <trkpt lat="48.20412" lon="5.14518">
        <ele>235.12</ele>
        <time>2025-01-04T13:45:20.716Z</time>
      </trkpt>
      <trkpt lat="48.20418" lon="5.1455">
        <ele>235.17</ele>
        <time>2025-01-04T13:45:20.787Z</time>
      </trkpt>
      <trkpt lat="48.20423" lon="5.14581">
        <ele>235.31</ele>
        <time>2025-01-04T13:45:20.861Z</time>
      </trkpt>
      <trkpt lat="48.20424" lon="5.14624">
        <ele>235.52</ele>
        <time>2025-01-04T13:45:20.940Z</time>
      </trkpt>
      <trkpt lat="48.20424" lon="5.14668">
        <ele>235.75</ele>
        <time>2025-01-04T13:45:21.024Z</time>
      </trkpt>
      <trkpt lat="48.20425" lon="5.14711">
        <ele>235.88</ele>
        <time>2025-01-04T13:45:21.112Z</time>
      </trkpt>
      <trkpt lat="48.20425" lon="5.14755">
        <ele>236.17</ele>
        <time>2025-01-04T13:45:21.205Z</time>
      </trkpt>
      <trkpt lat="48.20425" lon="5.14776">
        <ele>236.41</ele>
        <time>2025-01-04T13:45:21.300Z</time>
      </trkpt>
      <trkpt lat="48.20426" lon="5.14817">
        <ele>236.71</ele>
        <time>2025-01-04T13:45:21.400Z</time>
      </trkpt>
      <trkpt lat="48.20427" lon="5.14858">
        <ele>236.86</ele>
        <time>2025-01-04T13:45:21.504Z</time>
      </trkpt>
      <trkpt lat="48.20427" lon="5.14873">
        <ele>236.95</ele>
        <time>2025-01-04T13:45:21.610Z</time>
      </trkpt>
      <trkpt lat="48.20427" lon="5.14881">
        <ele>237.01</ele>
        <time>2025-01-04T13:45:21.717Z</time>
      </trkpt>
      <trkpt lat="48.20427" lon="5.14892">
        <ele>237.03</ele>
        <time>2025-01-04T13:45:21.825Z</time>
      </trkpt>
      <trkpt lat="48.20442" lon="5.1489">
        <ele>237.06</ele>
        <time>2025-01-04T13:45:21.935Z</time>
      </trkpt>
      <trkpt lat="48.2046" lon="5.14881">
        <ele>237.12</ele>
        <time>2025-01-04T13:45:22.048Z</time>
      </trkpt>
      <trkpt lat="48.20488" lon="5.14863">
        <ele>237.16</ele>
        <time>2025-01-04T13:45:22.166Z</time>
      </trkpt>
      <trkpt lat="48.20516" lon="5.14845">
        <ele>237.06</ele>
        <time>2025-01-04T13:45:22.289Z</time>
      </trkpt>
      <trkpt lat="48.20545" lon="5.14827">
        <ele>236.84</ele>
        <time>2025-01-04T13:45:22.417Z</time>
      </trkpt>
      <trkpt lat="48.20573" lon="5.14809">
        <ele>236.57</ele>
        <time>2025-01-04T13:45:22.550Z</time>
      </trkpt>
      <trkpt lat="48.20601" lon="5.14791">
        <ele>236.26</ele>
        <time>2025-01-04T13:45:22.688Z</time>
      </trkpt>
      <trkpt lat="48.20627" lon="5.14778">
        <ele>235.95</ele>
        <time>2025-01-04T13:45:22.830Z</time>
      </trkpt>
      <trkpt lat="48.20652" lon="5.14765">
        <ele>235.52</ele>
        <time>2025-01-04T13:45:22.976Z</time>
      </trkpt>
      <trkpt lat="48.20677" lon="5.14752">
        <ele>235.15</ele>
        <time>2025-01-04T13:45:23.127Z</time>
      </trkpt>
      <trkpt lat="48.20703" lon="5.1474">
        <ele>234.94</ele>
        <time>2025-01-04T13:45:23.282Z</time>
      </trkpt>
      <trkpt lat="48.20728" lon="5.14727">
        <ele>234.79</ele>
        <time>2025-01-04T13:45:23.441Z</time>
      </trkpt>
      <trkpt lat="48.20754" lon="5.14714">
        <ele>234.59</ele>
        <time>2025-01-04T13:45:23.604Z</time>
      </trkpt>
      <trkpt lat="48.20754" lon="5.14714">
        <ele>234.4</ele>
        <time>2025-01-04T13:45:23.767Z</time>
      </trkpt>
      <trkpt lat="48.20771" lon="5.14704">
        <ele>234.17</ele>
        <time>2025-01-04T13:45:23.933Z</time>
      </trkpt>
      <trkpt lat="48.20788" lon="5.14694">
        <ele>233.96</ele>
        <time>2025-01-04T13:45:24.102Z</time>
      </trkpt>
      <trkpt lat="48.20817" lon="5.14686">
        <ele>233.77</ele>
        <time>2025-01-04T13:45:24.276Z</time>
      </trkpt>
      <trkpt lat="48.20847" lon="5.14677">
        <ele>233.67</ele>
        <time>2025-01-04T13:45:24.455Z</time>
      </trkpt>
      <trkpt lat="48.20876" lon="5.14668">
        <ele>233.64</ele>
        <time>2025-01-04T13:45:24.639Z</time>
      </trkpt>
      <trkpt lat="48.20905" lon="5.14659">
        <ele>233.68</ele>
        <time>2025-01-04T13:45:24.827Z</time>
      </trkpt>
      <trkpt lat="48.20935" lon="5.1465">
        <ele>233.62</ele>
        <time>2025-01-04T13:45:25.020Z</time>
      </trkpt>
      <trkpt lat="48.20964" lon="5.14641">
        <ele>233.63</ele>
        <time>2025-01-04T13:45:25.218Z</time>
      </trkpt>
      <trkpt lat="48.20987" lon="5.14643">
        <ele>233.86</ele>
        <time>2025-01-04T13:45:25.420Z</time>
      </trkpt>
      <trkpt lat="48.21011" lon="5.14645">
        <ele>234.15</ele>
        <time>2025-01-04T13:45:25.626Z</time>
      </trkpt>
      <trkpt lat="48.21035" lon="5.14647">
        <ele>234.55</ele>
        <time>2025-01-04T13:45:25.835Z</time>
      </trkpt>
      <trkpt lat="48.21054" lon="5.14643">
        <ele>235.01</ele>
        <time>2025-01-04T13:45:26.048Z</time>
      </trkpt>
      <trkpt lat="48.21078" lon="5.14628">
        <ele>235.48</ele>
        <time>2025-01-04T13:45:26.265Z</time>
      </trkpt>
      <trkpt lat="48.21101" lon="5.14613">
        <ele>236.07</ele>
        <time>2025-01-04T13:45:26.486Z</time>
      </trkpt>
      <trkpt lat="48.21114" lon="5.14604">
        <ele>236.63</ele>
        <time>2025-01-04T13:45:26.709Z</time>
      </trkpt>
      <trkpt lat="48.21138" lon="5.14587">
        <ele>237.19</ele>
        <time>2025-01-04T13:45:26.936Z</time>
      </trkpt>
      <trkpt lat="48.21162" lon="5.1457">
        <ele>237.79</ele>
        <time>2025-01-04T13:45:27.168Z</time>
      </trkpt>
      <trkpt lat="48.21186" lon="5.14553">
        <ele>238.42</ele>
        <time>2025-01-04T13:45:27.404Z</time>
      </trkpt>
      <trkpt lat="48.21211" lon="5.14536">
        <ele>239.07</ele>
        <time>2025-01-04T13:45:27.644Z</time>
      </trkpt>
      <trkpt lat="48.21235" lon="5.14523">
        <ele>239.77</ele>
        <time>2025-01-04T13:45:27.888Z</time>
      </trkpt>
      <trkpt lat="48.2126" lon="5.1451">
        <ele>240.55</ele>
        <time>2025-01-04T13:45:28.137Z</time>
      </trkpt>
      <trkpt lat="48.21266" lon="5.14508">
        <ele>241.33</ele>
        <time>2025-01-04T13:45:28.387Z</time>
      </trkpt>
      <trkpt lat="48.21288" lon="5.14511">
        <ele>242.26</ele>
        <time>2025-01-04T13:45:28.640Z</time>
      </trkpt>
      <trkpt lat="48.21309" lon="5.14515">
        <ele>243.2</ele>
        <time>2025-01-04T13:45:28.896Z</time>
      </trkpt>
      <trkpt lat="48.21331" lon="5.14518">
        <ele>244.14</ele>
        <time>2025-01-04T13:45:29.156Z</time>
      </trkpt>
      <trkpt lat="48.21358" lon="5.14514">
        <ele>245.05</ele>
        <time>2025-01-04T13:45:29.420Z</time>
      </trkpt>
      <trkpt lat="48.21385" lon="5.1451">
        <ele>245.88</ele>
        <time>2025-01-04T13:45:29.689Z</time>
      </trkpt>
      <trkpt lat="48.21412" lon="5.14506">
        <ele>246.74</ele>
        <time>2025-01-04T13:45:29.962Z</time>
      </trkpt>
      <trkpt lat="48.21435" lon="5.14496">
        <ele>247.58</ele>
        <time>2025-01-04T13:45:30.239Z</time>
      </trkpt>
      <trkpt lat="48.21457" lon="5.14486">
        <ele>248.5</ele>
        <time>2025-01-04T13:45:30.519Z</time>
      </trkpt>
      <trkpt lat="48.21479" lon="5.14476">
        <ele>249.31</ele>
        <time>2025-01-04T13:45:30.803Z</time>
      </trkpt>
      <trkpt lat="48.21507" lon="5.14473">
        <ele>250.14</ele>
        <time>2025-01-04T13:45:31.092Z</time>
      </trkpt>
      <trkpt lat="48.21523" lon="5.14479">
        <ele>250.87</ele>
        <time>2025-01-04T13:45:31.383Z</time>
      </trkpt>
      <trkpt lat="48.21539" lon="5.14484">
        <ele>251.53</ele>
        <time>2025-01-04T13:45:31.677Z</time>
      </trkpt>
      <trkpt lat="48.21552" lon="5.14484">
        <ele>252.1</ele>
        <time>2025-01-04T13:45:31.973Z</time>
      </trkpt>
      <trkpt lat="48.21552" lon="5.14484">
        <ele>252.59</ele>
        <time>2025-01-04T13:45:32.269Z</time>
      </trkpt>
      <trkpt lat="48.2156" lon="5.1448">
        <ele>253</ele>
        <time>2025-01-04T13:45:32.566Z</time>
      </trkpt>
      <trkpt lat="48.21586" lon="5.14468">
        <ele>253.29</ele>
        <time>2025-01-04T13:45:32.868Z</time>
      </trkpt>
      <trkpt lat="48.21612" lon="5.14456">
        <ele>253.54</ele>
        <time>2025-01-04T13:45:33.174Z</time>
      </trkpt>
      <trkpt lat="48.21637" lon="5.14439">
        <ele>253.74</ele>
        <time>2025-01-04T13:45:33.484Z</time>
      </trkpt>
      <trkpt lat="48.21661" lon="5.14421">
        <ele>253.83</ele>
        <time>2025-01-04T13:45:33.799Z</time>
      </trkpt>
      <trkpt lat="48.21686" lon="5.14404">
        <ele>253.93</ele>
        <time>2025-01-04T13:45:34.118Z</time>
      </trkpt>
      <trkpt lat="48.21711" lon="5.14386">
        <ele>254.15</ele>
        <time>2025-01-04T13:45:34.442Z</time>
      </trkpt>
      <trkpt lat="48.21735" lon="5.14369">
        <ele>254.35</ele>
        <time>2025-01-04T13:45:34.770Z</time>
      </trkpt>
      <trkpt lat="48.2176" lon="5.14351">
        <ele>254.54</ele>
        <time>2025-01-04T13:45:35.102Z</time>
      </trkpt>
      <trkpt lat="48.2176" lon="5.14351">
        <ele>254.69</ele>
        <time>2025-01-04T13:45:35.434Z</time>
      </trkpt>
      <trkpt lat="48.21764" lon="5.14349">
        <ele>254.86</ele>
        <time>2025-01-04T13:45:35.767Z</time>
      </trkpt>
      <trkpt lat="48.21791" lon="5.14335">
        <ele>255.08</ele>
        <time>2025-01-04T13:45:36.105Z</time>
      </trkpt>
      <trkpt lat="48.21817" lon="5.1432">
        <ele>255.33</ele>
        <time>2025-01-04T13:45:36.447Z</time>
      </trkpt>
      <trkpt lat="48.21843" lon="5.14306">
        <ele>255.54</ele>
        <time>2025-01-04T13:45:36.794Z</time>
      </trkpt>
      <trkpt lat="48.2187" lon="5.14291">
        <ele>255.74</ele>
        <time>2025-01-04T13:45:37.145Z</time>
      </trkpt>
      <trkpt lat="48.21896" lon="5.14277">
        <ele>255.99</ele>
        <time>2025-01-04T13:45:37.501Z</time>
      </trkpt>
      <trkpt lat="48.21922" lon="5.14263">
        <ele>256.29</ele>
        <time>2025-01-04T13:45:37.861Z</time>
      </trkpt>
      <trkpt lat="48.21949" lon="5.14248">
        <ele>256.51</ele>
        <time>2025-01-04T13:45:38.225Z</time>
      </trkpt>
      <trkpt lat="48.21968" lon="5.14242">
        <ele>256.68</ele>
        <time>2025-01-04T13:45:38.593Z</time>
      </trkpt>
      <trkpt lat="48.21987" lon="5.14235">
        <ele>256.78</ele>
        <time>2025-01-04T13:45:38.964Z</time>
      </trkpt>
      <trkpt lat="48.22015" lon="5.14241">
        <ele>256.99</ele>
        <time>2025-01-04T13:45:39.339Z</time>
      </trkpt>
      <trkpt lat="48.22043" lon="5.14246">
        <ele>257.23</ele>
        <time>2025-01-04T13:45:39.719Z</time>
      </trkpt>
      <trkpt lat="48.22067" lon="5.14241">
        <ele>257.45</ele>
        <time>2025-01-04T13:45:40.103Z</time>
      </trkpt>
      <trkpt lat="48.2209" lon="5.14235">
        <ele>257.69</ele>
        <time>2025-01-04T13:45:40.490Z</time>
      </trkpt>
      <trkpt lat="48.22108" lon="5.1422">
        <ele>257.92</ele>
        <time>2025-01-04T13:45:40.881Z</time>
      </trkpt>
      <trkpt lat="48.22125" lon="5.14205">
        <ele>258.23</ele>
        <time>2025-01-04T13:45:41.275Z</time>
      </trkpt>
      <trkpt lat="48.22146" lon="5.14171">
        <ele>258.58</ele>
        <time>2025-01-04T13:45:41.674Z</time>
      </trkpt>
      <trkpt lat="48.22168" lon="5.14137">
        <ele>258.9</ele>
        <time>2025-01-04T13:45:42.078Z</time>
      </trkpt>
      <trkpt lat="48.22191" lon="5.14114">
        <ele>259.21</ele>
        <time>2025-01-04T13:45:42.486Z</time>
      </trkpt>
      <trkpt lat="48.22215" lon="5.14091">
        <ele>259.46</ele>
        <time>2025-01-04T13:45:42.899Z</time>
      </trkpt>
      <trkpt lat="48.22238" lon="5.14069">
        <ele>259.73</ele>
        <time>2025-01-04T13:45:43.316Z</time>
      </trkpt>
      <trkpt lat="48.22262" lon="5.14046">
        <ele>259.92</ele>
        <time>2025-01-04T13:45:43.738Z</time>
      </trkpt>
      <trkpt lat="48.2229" lon="5.14026">
        <ele>260.01</ele>
        <time>2025-01-04T13:45:44.165Z</time>
      </trkpt>
      <trkpt lat="48.22318" lon="5.14006">
        <ele>260.03</ele>
        <time>2025-01-04T13:45:44.597Z</time>
      </trkpt>
      <trkpt lat="48.22346" lon="5.13986">
        <ele>259.99</ele>
        <time>2025-01-04T13:45:45.034Z</time>
      </trkpt>
      <trkpt lat="48.2237" lon="5.13977">
        <ele>259.91</ele>
        <time>2025-01-04T13:45:45.475Z</time>
      </trkpt>
      <trkpt lat="48.22394" lon="5.13968">
        <ele>259.8</ele>
        <time>2025-01-04T13:45:45.920Z</time>
      </trkpt>
      <trkpt lat="48.22419" lon="5.13958">
        <ele>259.58</ele>
        <time>2025-01-04T13:45:46.369Z</time>
      </trkpt>
      <trkpt lat="48.22449" lon="5.13951">
        <ele>259.37</ele>
        <time>2025-01-04T13:45:46.823Z</time>
      </trkpt>
      <trkpt lat="48.22471" lon="5.13945">
        <ele>259.14</ele>
        <time>2025-01-04T13:45:47.280Z</time>
      </trkpt>
      <trkpt lat="48.22489" lon="5.13941">
        <ele>258.78</ele>
        <time>2025-01-04T13:45:47.740Z</time>
      </trkpt>
      <trkpt lat="48.22508" lon="5.13936">
        <ele>258.43</ele>
        <time>2025-01-04T13:45:48.203Z</time>
      </trkpt>
      <trkpt lat="48.22529" lon="5.13931">
        <ele>258.07</ele>
        <time>2025-01-04T13:45:48.670Z</time>
      </trkpt>
      <trkpt lat="48.22551" lon="5.13926">
        <ele>257.72</ele>
        <time>2025-01-04T13:45:49.140Z</time>
      </trkpt>
      <trkpt lat="48.22578" lon="5.13919">
        <ele>257.29</ele>
        <time>2025-01-04T13:45:49.615Z</time>
      </trkpt>
      <trkpt lat="48.22604" lon="5.13912">
        <ele>256.8</ele>
        <time>2025-01-04T13:45:50.094Z</time>
      </trkpt>
      <trkpt lat="48.2262" lon="5.13908">
        <ele>256.28</ele>
        <time>2025-01-04T13:45:50.575Z</time>
      </trkpt>
      <trkpt lat="48.22649" lon="5.13901">
        <ele>255.8</ele>
        <time>2025-01-04T13:45:51.061Z</time>
      </trkpt>
      <trkpt lat="48.22678" lon="5.13894">
        <ele>255.33</ele>
        <time>2025-01-04T13:45:51.552Z</time>
      </trkpt>
      <trkpt lat="48.22686" lon="5.13892">
        <ele>254.88</ele>
        <time>2025-01-04T13:45:52.044Z</time>
      </trkpt>
      <trkpt lat="48.22715" lon="5.13885">
        <ele>254.41</ele>
        <time>2025-01-04T13:45:52.541Z</time>
      </trkpt>
      <trkpt lat="48.22744" lon="5.13878">
        <ele>253.97</ele>
        <time>2025-01-04T13:45:53.043Z</time>
      </trkpt>
      <trkpt lat="48.22772" lon="5.13871">
        <ele>253.43</ele>
        <time>2025-01-04T13:45:53.549Z</time>
      </trkpt>
      <trkpt lat="48.22801" lon="5.13864">
        <ele>252.89</ele>
        <time>2025-01-04T13:45:54.060Z</time>
      </trkpt>
      <trkpt lat="48.22809" lon="5.13862">
        <ele>252.42</ele>
        <time>2025-01-04T13:45:54.572Z</time>
      </trkpt>
      <trkpt lat="48.22838" lon="5.13855">
        <ele>251.94</ele>
        <time>2025-01-04T13:45:55.089Z</time>
      </trkpt>
      <trkpt lat="48.22867" lon="5.13849">
        <ele>251.51</ele>
        <time>2025-01-04T13:45:55.611Z</time>
      </trkpt>
      <trkpt lat="48.22884" lon="5.13849">
        <ele>251.09</ele>
        <time>2025-01-04T13:45:56.135Z</time>
      </trkpt>
      <trkpt lat="48.22914" lon="5.13849">
        <ele>250.63</ele>
        <time>2025-01-04T13:45:56.664Z</time>
      </trkpt>
      <trkpt lat="48.22944" lon="5.13849">
        <ele>250.17</ele>
        <time>2025-01-04T13:45:57.198Z</time>
      </trkpt>
      <trkpt lat="48.22952" lon="5.13849">
        <ele>249.78</ele>
        <time>2025-01-04T13:45:57.733Z</time>
      </trkpt>
      <trkpt lat="48.22983" lon="5.13846">
        <ele>249.38</ele>
        <time>2025-01-04T13:45:58.273Z</time>
      </trkpt>
      <trkpt lat="48.23013" lon="5.13843">
        <ele>249.03</ele>
        <time>2025-01-04T13:45:58.818Z</time>
      </trkpt>
      <trkpt lat="48.23041" lon="5.13836">
        <ele>248.7</ele>
        <time>2025-01-04T13:45:59.367Z</time>
      </trkpt>
      <trkpt lat="48.23069" lon="5.1383">
        <ele>248.41</ele>
        <time>2025-01-04T13:45:59.921Z</time>
      </trkpt>
      <trkpt lat="48.23077" lon="5.13828">
        <ele>248.1</ele>
        <time>2025-01-04T13:46:00.476Z</time>
      </trkpt>
      <trkpt lat="48.23105" lon="5.13822">
        <ele>247.88</ele>
        <time>2025-01-04T13:46:01.036Z</time>
      </trkpt>
      <trkpt lat="48.23133" lon="5.13816">
        <ele>247.59</ele>
        <time>2025-01-04T13:46:01.600Z</time>
      </trkpt>
      <trkpt lat="48.23162" lon="5.13806">
        <ele>247.25</ele>
        <time>2025-01-04T13:46:02.169Z</time>
      </trkpt>
      <trkpt lat="48.23191" lon="5.13797">
        <ele>246.91</ele>
        <time>2025-01-04T13:46:02.743Z</time>
      </trkpt>
      <trkpt lat="48.23217" lon="5.13788">
        <ele>246.56</ele>
        <time>2025-01-04T13:46:03.321Z</time>
      </trkpt>
      <trkpt lat="48.23243" lon="5.13779">
        <ele>246.18</ele>
        <time>2025-01-04T13:46:03.903Z</time>
      </trkpt>
      <trkpt lat="48.23271" lon="5.13768">
        <ele>245.71</ele>
        <time>2025-01-04T13:46:04.490Z</time>
      </trkpt>
      <trkpt lat="48.23299" lon="5.13757">
        <ele>245.21</ele>
        <time>2025-01-04T13:46:05.082Z</time>
      </trkpt>
      <trkpt lat="48.23306" lon="5.13755">
        <ele>244.8</ele>
        <time>2025-01-04T13:46:05.675Z</time>
      </trkpt>
      <trkpt lat="48.23332" lon="5.13745">
        <ele>244.35</ele>
        <time>2025-01-04T13:46:06.272Z</time>
      </trkpt>
      <trkpt lat="48.23358" lon="5.13735">
        <ele>243.98</ele>
        <time>2025-01-04T13:46:06.873Z</time>
      </trkpt>
      <trkpt lat="48.23388" lon="5.13728">
        <ele>243.54</ele>
        <time>2025-01-04T13:46:07.479Z</time>
      </trkpt>
      <trkpt lat="48.23418" lon="5.13721">
        <ele>243.12</ele>
        <time>2025-01-04T13:46:08.090Z</time>
      </trkpt>
      <trkpt lat="48.23445" lon="5.13717">
        <ele>242.72</ele>
        <time>2025-01-04T13:46:08.706Z</time>
      </trkpt>
      <trkpt lat="48.23473" lon="5.13713">
        <ele>242.24</ele>
        <time>2025-01-04T13:46:09.326Z</time>
      </trkpt>
      <trkpt lat="48.23481" lon="5.13712">
        <ele>241.84</ele>
        <time>2025-01-04T13:46:09.947Z</time>
      </trkpt>
      <trkpt lat="48.23506" lon="5.13713">
        <ele>241.43</ele>
        <time>2025-01-04T13:46:10.572Z</time>
      </trkpt>
      <trkpt lat="48.23531" lon="5.13713">
        <ele>241.02</ele>
        <time>2025-01-04T13:46:11.201Z</time>
      </trkpt>
      <trkpt lat="48.23556" lon="5.13722">
        <ele>240.65</ele>
        <time>2025-01-04T13:46:11.834Z</time>
      </trkpt>
      <trkpt lat="48.2358" lon="5.1373">
        <ele>240.3</ele>
        <time>2025-01-04T13:46:12.471Z</time>
      </trkpt>
      <trkpt lat="48.23603" lon="5.1374">
        <ele>239.95</ele>
        <time>2025-01-04T13:46:13.112Z</time>
      </trkpt>
      <trkpt lat="48.23625" lon="5.13751">
        <ele>239.56</ele>
        <time>2025-01-04T13:46:13.757Z</time>
      </trkpt>
      <trkpt lat="48.23648" lon="5.13757">
        <ele>239.16</ele>
        <time>2025-01-04T13:46:14.406Z</time>
      </trkpt>
      <trkpt lat="48.23656" lon="5.13755">
        <ele>238.83</ele>
        <time>2025-01-04T13:46:15.056Z</time>
      </trkpt>
      <trkpt lat="48.23664" lon="5.13753">
        <ele>238.54</ele>
        <time>2025-01-04T13:46:15.707Z</time>
      </trkpt>
      <trkpt lat="48.23689" lon="5.13746">
        <ele>238.29</ele>
        <time>2025-01-04T13:46:16.362Z</time>
      </trkpt>
      <trkpt lat="48.23709" lon="5.13736">
        <ele>238.03</ele>
        <time>2025-01-04T13:46:17.021Z</time>
      </trkpt>
      <trkpt lat="48.23729" lon="5.13726">
        <ele>237.79</ele>
        <time>2025-01-04T13:46:17.683Z</time>
      </trkpt>
      <trkpt lat="48.23745" lon="5.13712">
        <ele>237.58</ele>
        <time>2025-01-04T13:46:18.348Z</time>
      </trkpt>
      <trkpt lat="48.23762" lon="5.13698">
        <ele>237.39</ele>
        <time>2025-01-04T13:46:19.016Z</time>
      </trkpt>
      <trkpt lat="48.23777" lon="5.13684">
        <ele>237.22</ele>
        <time>2025-01-04T13:46:19.687Z</time>
      </trkpt>
      <trkpt lat="48.23791" lon="5.1367">
        <ele>237.04</ele>
        <time>2025-01-04T13:46:20.361Z</time>
      </trkpt>
      <trkpt lat="48.23796" lon="5.13662">
        <ele>236.89</ele>
        <time>2025-01-04T13:46:21.036Z</time>
      </trkpt>
      <trkpt lat="48.23814" lon="5.13631">
        <ele>236.79</ele>
        <time>2025-01-04T13:46:21.715Z</time>
      </trkpt>
      <trkpt lat="48.23822" lon="5.13625">
        <ele>236.69</ele>
        <time>2025-01-04T13:46:22.396Z</time>
      </trkpt>
      <trkpt lat="48.2383" lon="5.13618">
        <ele>236.6</ele>
        <time>2025-01-04T13:46:23.078Z</time>
      </trkpt>
      <trkpt lat="48.23847" lon="5.1361">
        <ele>236.52</ele>
        <time>2025-01-04T13:46:23.763Z</time>
      </trkpt>
      <trkpt lat="48.23859" lon="5.13604">
        <ele>236.43</ele>
        <time>2025-01-04T13:46:24.450Z</time>
      </trkpt>
      <trkpt lat="48.23877" lon="5.13595">
        <ele>236.27</ele>
        <time>2025-01-04T13:46:25.140Z</time>
      </trkpt>
      <trkpt lat="48.23896" lon="5.13587">
        <ele>236.12</ele>
        <time>2025-01-04T13:46:25.833Z</time>
      </trkpt>
      <trkpt lat="48.23905" lon="5.13576">
        <ele>235.97</ele>
        <time>2025-01-04T13:46:26.528Z</time>
      </trkpt>
      <trkpt lat="48.23914" lon="5.13563">
        <ele>235.84</ele>
        <time>2025-01-04T13:46:27.225Z</time>
      </trkpt>
      <trkpt lat="48.23928" lon="5.13543">
        <ele>235.73</ele>
        <time>2025-01-04T13:46:27.925Z</time>
      </trkpt>
      <trkpt lat="48.23932" lon="5.13536">
        <ele>235.6</ele>
        <time>2025-01-04T13:46:28.626Z</time>
      </trkpt>
      <trkpt lat="48.23936" lon="5.13521">
        <ele>235.46</ele>
        <time>2025-01-04T13:46:29.329Z</time>
      </trkpt>
      <trkpt lat="48.23935" lon="5.13514">
        <ele>235.31</ele>
        <time>2025-01-04T13:46:30.033Z</time>
      </trkpt>
      <trkpt lat="48.23934" lon="5.13505">
        <ele>235.16</ele>
        <time>2025-01-04T13:46:30.738Z</time>
      </trkpt>
      <trkpt lat="48.23928" lon="5.1348">
        <ele>235.03</ele>
        <time>2025-01-04T13:46:31.445Z</time>
      </trkpt>
      <trkpt lat="48.23921" lon="5.1345">
        <ele>234.84</ele>
        <time>2025-01-04T13:46:32.156Z</time>
      </trkpt>
      <trkpt lat="48.23915" lon="5.13419">
        <ele>234.64</ele>
        <time>2025-01-04T13:46:32.870Z</time>
      </trkpt>
      <trkpt lat="48.23907" lon="5.13386">
        <ele>234.37</ele>
        <time>2025-01-04T13:46:33.588Z</time>
      </trkpt>
      <trkpt lat="48.23899" lon="5.13352">
        <ele>234.07</ele>
        <time>2025-01-04T13:46:34.310Z</time>
      </trkpt>
      <trkpt lat="48.23893" lon="5.13323">
        <ele>233.77</ele>
        <time>2025-01-04T13:46:35.035Z</time>
      </trkpt>
      <trkpt lat="48.23886" lon="5.13294">
        <ele>233.47</ele>
        <time>2025-01-04T13:46:35.763Z</time>
      </trkpt>
      <trkpt lat="48.23888" lon="5.13261">
        <ele>233.19</ele>
        <time>2025-01-04T13:46:36.495Z</time>
      </trkpt>
      <trkpt lat="48.23889" lon="5.13229">
        <ele>232.83</ele>
        <time>2025-01-04T13:46:37.230Z</time>
      </trkpt>
      <trkpt lat="48.23891" lon="5.13194">
        <ele>232.43</ele>
        <time>2025-01-04T13:46:37.969Z</time>
      </trkpt>
      <trkpt lat="48.23892" lon="5.13159">
        <ele>232.03</ele>
        <time>2025-01-04T13:46:38.712Z</time>
      </trkpt>
      <trkpt lat="48.23892" lon="5.13151">
        <ele>231.66</ele>
        <time>2025-01-04T13:46:39.456Z</time>
      </trkpt>
      <trkpt lat="48.23893" lon="5.13141">
        <ele>231.28</ele>
        <time>2025-01-04T13:46:40.201Z</time>
      </trkpt>
      <trkpt lat="48.23903" lon="5.13138">
        <ele>230.91</ele>
        <time>2025-01-04T13:46:40.948Z</time>
      </trkpt>
      <trkpt lat="48.23909" lon="5.13139">
        <ele>230.56</ele>
        <time>2025-01-04T13:46:41.695Z</time>
      </trkpt>
      <trkpt lat="48.23938" lon="5.13148">
        <ele>230.15</ele>
        <time>2025-01-04T13:46:42.447Z</time>
      </trkpt>
      <trkpt lat="48.2395" lon="5.13153">
        <ele>229.79</ele>
        <time>2025-01-04T13:46:43.201Z</time>
      </trkpt>
      <trkpt lat="48.2398" lon="5.13167">
        <ele>229.39</ele>
        <time>2025-01-04T13:46:43.960Z</time>
      </trkpt>
      <trkpt lat="48.23999" lon="5.13177">
        <ele>229.04</ele>
        <time>2025-01-04T13:46:44.722Z</time>
      </trkpt>
      <trkpt lat="48.24019" lon="5.13186">
        <ele>228.74</ele>
        <time>2025-01-04T13:46:45.488Z</time>
      </trkpt>
      <trkpt lat="48.24043" lon="5.13197">
        <ele>228.59</ele>
        <time>2025-01-04T13:46:46.258Z</time>
      </trkpt>
      <trkpt lat="48.24066" lon="5.13208">
        <ele>228.39</ele>
        <time>2025-01-04T13:46:47.032Z</time>
      </trkpt>
      <trkpt lat="48.24087" lon="5.13216">
        <ele>228.18</ele>
        <time>2025-01-04T13:46:47.809Z</time>
      </trkpt>
      <trkpt lat="48.24107" lon="5.13225">
        <ele>227.96</ele>
        <time>2025-01-04T13:46:48.590Z</time>
      </trkpt>
      <trkpt lat="48.24126" lon="5.13233">
        <ele>227.76</ele>
        <time>2025-01-04T13:46:49.374Z</time>
      </trkpt>
      <trkpt lat="48.24144" lon="5.13241">
        <ele>227.61</ele>
        <time>2025-01-04T13:46:50.161Z</time>
      </trkpt>
      <trkpt lat="48.24164" lon="5.13242">
        <ele>227.53</ele>
        <time>2025-01-04T13:46:50.951Z</time>
      </trkpt>
      <trkpt lat="48.24185" lon="5.13244">
        <ele>227.51</ele>
        <time>2025-01-04T13:46:51.744Z</time>
      </trkpt>
      <trkpt lat="48.24214" lon="5.13245">
        <ele>227.54</ele>
        <time>2025-01-04T13:46:52.542Z</time>
      </trkpt>
      <trkpt lat="48.24243" lon="5.13246">
        <ele>227.67</ele>
        <time>2025-01-04T13:46:53.344Z</time>
      </trkpt>
      <trkpt lat="48.24269" lon="5.13247">
        <ele>227.83</ele>
        <time>2025-01-04T13:46:54.151Z</time>
      </trkpt>
      <trkpt lat="48.24296" lon="5.13248">
        <ele>228</ele>
        <time>2025-01-04T13:46:54.962Z</time>
      </trkpt>
      <trkpt lat="48.24325" lon="5.13249">
        <ele>228.2</ele>
        <time>2025-01-04T13:46:55.778Z</time>
      </trkpt>
      <trkpt lat="48.24355" lon="5.13249">
        <ele>228.48</ele>
        <time>2025-01-04T13:46:56.598Z</time>
      </trkpt>
      <trkpt lat="48.24385" lon="5.1325">
        <ele>228.72</ele>
        <time>2025-01-04T13:46:57.423Z</time>
      </trkpt>
      <trkpt lat="48.24414" lon="5.13251">
        <ele>228.98</ele>
        <time>2025-01-04T13:46:58.253Z</time>
      </trkpt>
      <trkpt lat="48.24443" lon="5.13252">
        <ele>229.31</ele>
        <time>2025-01-04T13:46:59.088Z</time>
      </trkpt>
      <trkpt lat="48.24473" lon="5.13252">
        <ele>229.7</ele>
        <time>2025-01-04T13:46:59.927Z</time>
      </trkpt>
      <trkpt lat="48.24499" lon="5.13253">
        <ele>230.15</ele>
        <time>2025-01-04T13:47:00.771Z</time>
      </trkpt>
      <trkpt lat="48.24526" lon="5.13254">
        <ele>230.67</ele>
        <time>2025-01-04T13:47:01.619Z</time>
      </trkpt>
      <trkpt lat="48.24553" lon="5.13251">
        <ele>231.23</ele>
        <time>2025-01-04T13:47:02.471Z</time>
      </trkpt>
      <trkpt lat="48.24579" lon="5.13248">
        <ele>231.83</ele>
        <time>2025-01-04T13:47:03.327Z</time>
      </trkpt>
      <trkpt lat="48.246" lon="5.13243">
        <ele>232.39</ele>
        <time>2025-01-04T13:47:04.187Z</time>
      </trkpt>
      <trkpt lat="48.24622" lon="5.13238">
        <ele>232.96</ele>
        <time>2025-01-04T13:47:05.050Z</time>
      </trkpt>
      <trkpt lat="48.24652" lon="5.13231">
        <ele>233.65</ele>
        <time>2025-01-04T13:47:05.918Z</time>
      </trkpt>
      <trkpt lat="48.24682" lon="5.13224">
        <ele>234.25</ele>
        <time>2025-01-04T13:47:06.791Z</time>
      </trkpt>
      <trkpt lat="48.24689" lon="5.13222">
        <ele>234.8</ele>
        <time>2025-01-04T13:47:07.665Z</time>
      </trkpt>
      <trkpt lat="48.24711" lon="5.13217">
        <ele>235.36</ele>
        <time>2025-01-04T13:47:08.543Z</time>
      </trkpt>
      <trkpt lat="48.24733" lon="5.13212">
        <ele>235.87</ele>
        <time>2025-01-04T13:47:09.424Z</time>
      </trkpt>
      <trkpt lat="48.24752" lon="5.13207">
        <ele>236.33</ele>
        <time>2025-01-04T13:47:10.308Z</time>
      </trkpt>
      <trkpt lat="48.24772" lon="5.13203">
        <ele>236.72</ele>
        <time>2025-01-04T13:47:11.196Z</time>
      </trkpt>
      <trkpt lat="48.24788" lon="5.13199">
        <ele>237.15</ele>
        <time>2025-01-04T13:47:12.086Z</time>
      </trkpt>
      <trkpt lat="48.24804" lon="5.13195">
        <ele>237.49</ele>
        <time>2025-01-04T13:47:12.979Z</time>
      </trkpt>
      <trkpt lat="48.24823" lon="5.1319">
        <ele>237.83</ele>
        <time>2025-01-04T13:47:13.875Z</time>
      </trkpt>
      <trkpt lat="48.24833" lon="5.1319">
        <ele>238.12</ele>
        <time>2025-01-04T13:47:14.772Z</time>
      </trkpt>
      <trkpt lat="48.24849" lon="5.1319">
        <ele>238.46</ele>
        <time>2025-01-04T13:47:15.672Z</time>
      </trkpt>
      <trkpt lat="48.24866" lon="5.1319">
        <ele>238.64</ele>
        <time>2025-01-04T13:47:16.575Z</time>
      </trkpt>
      <trkpt lat="48.24884" lon="5.1319">
        <ele>238.69</ele>
        <time>2025-01-04T13:47:17.481Z</time>
      </trkpt>
      <trkpt lat="48.24903" lon="5.1319">
        <ele>238.62</ele>
        <time>2025-01-04T13:47:18.390Z</time>
      </trkpt>
      <trkpt lat="48.24921" lon="5.1319">
        <ele>238.47</ele>
        <time>2025-01-04T13:47:19.302Z</time>
      </trkpt>
      <trkpt lat="48.2494" lon="5.1319">
        <ele>238.28</ele>
        <time>2025-01-04T13:47:20.217Z</time>
      </trkpt>
      <trkpt lat="48.24946" lon="5.1319">
        <ele>238.12</ele>
        <time>2025-01-04T13:47:21.133Z</time>
      </trkpt>
      <trkpt lat="48.24963" lon="5.13197">
        <ele>237.89</ele>
        <time>2025-01-04T13:47:22.051Z</time>
      </trkpt>
      <trkpt lat="48.2498" lon="5.13204">
        <ele>237.68</ele>
        <time>2025-01-04T13:47:22.972Z</time>
      </trkpt>
      <trkpt lat="48.25001" lon="5.13218">
        <ele>237.45</ele>
        <time>2025-01-04T13:47:23.897Z</time>
      </trkpt>
      <trkpt lat="48.25023" lon="5.13232">
        <ele>237.17</ele>
        <time>2025-01-04T13:47:24.826Z</time>
      </trkpt>
      <trkpt lat="48.25045" lon="5.13248">
        <ele>236.88</ele>
        <time>2025-01-04T13:47:25.759Z</time>
      </trkpt>
      <trkpt lat="48.25068" lon="5.13265">
        <ele>236.56</ele>
        <time>2025-01-04T13:47:26.696Z</time>
      </trkpt>
      <trkpt lat="48.25095" lon="5.13285">
        <ele>236.25</ele>
        <time>2025-01-04T13:47:27.638Z</time>
      </trkpt>
      <trkpt lat="48.25122" lon="5.13306">
        <ele>236.04</ele>
        <time>2025-01-04T13:47:28.584Z</time>
      </trkpt>
      <trkpt lat="48.2513" lon="5.13311">
        <ele>235.82</ele>
        <time>2025-01-04T13:47:29.532Z</time>
      </trkpt>
      <trkpt lat="48.25155" lon="5.1333">
        <ele>235.61</ele>
        <time>2025-01-04T13:47:30.484Z</time>
      </trkpt>
      <trkpt lat="48.2518" lon="5.13348">
        <ele>235.41</ele>
        <time>2025-01-04T13:47:31.441Z</time>
      </trkpt>
      <trkpt lat="48.25194" lon="5.13359">
        <ele>235.18</ele>
        <time>2025-01-04T13:47:32.400Z</time>
      </trkpt>
      <trkpt lat="48.25216" lon="5.13375">
        <ele>234.92</ele>
        <time>2025-01-04T13:47:33.363Z</time>
      </trkpt>
      <trkpt lat="48.25231" lon="5.13386">
        <ele>234.7</ele>
        <time>2025-01-04T13:47:34.329Z</time>
      </trkpt>
      <trkpt lat="48.25246" lon="5.13397">
        <ele>234.52</ele>
        <time>2025-01-04T13:47:35.298Z</time>
      </trkpt>
      <trkpt lat="48.25267" lon="5.13413">
        <ele>234.37</ele>
        <time>2025-01-04T13:47:36.270Z</time>
      </trkpt>
      <trkpt lat="48.25289" lon="5.13429">
        <ele>234.27</ele>
        <time>2025-01-04T13:47:37.246Z</time>
      </trkpt>
      <trkpt lat="48.25312" lon="5.13448">
        <ele>234.22</ele>
        <time>2025-01-04T13:47:38.226Z</time>
      </trkpt>
      <trkpt lat="48.25335" lon="5.13468">
        <ele>234.18</ele>
        <time>2025-01-04T13:47:39.211Z</time>
      </trkpt>
      <trkpt lat="48.25351" lon="5.13483">
        <ele>234.11</ele>
        <time>2025-01-04T13:47:40.199Z</time>
      </trkpt>
      <trkpt lat="48.25368" lon="5.13498">
        <ele>233.91</ele>
        <time>2025-01-04T13:47:41.190Z</time>
      </trkpt>
      <trkpt lat="48.25372" lon="5.13508">
        <ele>233.77</ele>
        <time>2025-01-04T13:47:42.182Z</time>
      </trkpt>
      <trkpt lat="48.2538" lon="5.13529">
        <ele>233.64</ele>
        <time>2025-01-04T13:47:43.177Z</time>
      </trkpt>
      <trkpt lat="48.25392" lon="5.1356">
        <ele>233.57</ele>
        <time>2025-01-04T13:47:44.176Z</time>
      </trkpt>
      <trkpt lat="48.25404" lon="5.13591">
        <ele>233.54</ele>
        <time>2025-01-04T13:47:45.178Z</time>
      </trkpt>
      <trkpt lat="48.25415" lon="5.1362">
        <ele>233.47</ele>
        <time>2025-01-04T13:47:46.184Z</time>
      </trkpt>
      <trkpt lat="48.25426" lon="5.13649">
        <ele>233.33</ele>
        <time>2025-01-04T13:47:47.194Z</time>
      </trkpt>
      <trkpt lat="48.25436" lon="5.13677">
        <ele>233.11</ele>
        <time>2025-01-04T13:47:48.207Z</time>
      </trkpt>
      <trkpt lat="48.25444" lon="5.13696">
        <ele>232.91</ele>
        <time>2025-01-04T13:47:49.222Z</time>
      </trkpt>
      <trkpt lat="48.25449" lon="5.13706">
        <ele>232.75</ele>
        <time>2025-01-04T13:47:50.239Z</time>
      </trkpt>
      <trkpt lat="48.25462" lon="5.13721">
        <ele>232.56</ele>
        <time>2025-01-04T13:47:51.258Z</time>
      </trkpt>
      <trkpt lat="48.25474" lon="5.13735">
        <ele>232.41</ele>
        <time>2025-01-04T13:47:52.280Z</time>
      </trkpt>
      <trkpt lat="48.25495" lon="5.1376">
        <ele>232.29</ele>
        <time>2025-01-04T13:47:53.306Z</time>
      </trkpt>
      <trkpt lat="48.25516" lon="5.13785">
        <ele>232.21</ele>
        <time>2025-01-04T13:47:54.336Z</time>
      </trkpt>
      <trkpt lat="48.25529" lon="5.13806">
        <ele>232.24</ele>
        <time>2025-01-04T13:47:55.369Z</time>
      </trkpt>
      <trkpt lat="48.25542" lon="5.13828">
        <ele>232.36</ele>
        <time>2025-01-04T13:47:56.405Z</time>
      </trkpt>
      <trkpt lat="48.25556" lon="5.13853">
        <ele>232.52</ele>
        <time>2025-01-04T13:47:57.445Z</time>
      </trkpt>
      <trkpt lat="48.2557" lon="5.13879">
        <ele>232.58</ele>
        <time>2025-01-04T13:47:58.488Z</time>
      </trkpt>
      <trkpt lat="48.25575" lon="5.13887">
        <ele>232.65</ele>
        <time>2025-01-04T13:47:59.533Z</time>
      </trkpt>
      <trkpt lat="48.25595" lon="5.13918">
        <ele>232.7</ele>
        <time>2025-01-04T13:48:00.582Z</time>
      </trkpt>
      <trkpt lat="48.25615" lon="5.13949">
        <ele>232.79</ele>
        <time>2025-01-04T13:48:01.636Z</time>
      </trkpt>
      <trkpt lat="48.25629" lon="5.13968">
        <ele>232.88</ele>
        <time>2025-01-04T13:48:02.693Z</time>
      </trkpt>
      <trkpt lat="48.25641" lon="5.13988">
        <ele>233.02</ele>
        <time>2025-01-04T13:48:03.753Z</time>
      </trkpt>
      <trkpt lat="48.25655" lon="5.14008">
        <ele>233.24</ele>
        <time>2025-01-04T13:48:04.816Z</time>
      </trkpt>
      <trkpt lat="48.25668" lon="5.14028">
        <ele>233.46</ele>
        <time>2025-01-04T13:48:05.882Z</time>
      </trkpt>
      <trkpt lat="48.25686" lon="5.14044">
        <ele>233.63</ele>
        <time>2025-01-04T13:48:06.951Z</time>
      </trkpt>
      <trkpt lat="48.257" lon="5.14054">
        <ele>233.9</ele>
        <time>2025-01-04T13:48:08.023Z</time>
      </trkpt>
      <trkpt lat="48.25724" lon="5.14071">
        <ele>234.22</ele>
        <time>2025-01-04T13:48:09.099Z</time>
      </trkpt>
      <trkpt lat="48.25749" lon="5.14088">
        <ele>234.54</ele>
        <time>2025-01-04T13:48:10.179Z</time>
      </trkpt>
      <trkpt lat="48.25769" lon="5.14103">
        <ele>234.75</ele>
        <time>2025-01-04T13:48:11.263Z</time>
      </trkpt>
      <trkpt lat="48.25789" lon="5.14117">
        <ele>235.04</ele>
        <time>2025-01-04T13:48:12.350Z</time>
      </trkpt>
      <trkpt lat="48.25809" lon="5.14131">
        <ele>235.39</ele>
        <time>2025-01-04T13:48:13.441Z</time>
      </trkpt>
      <trkpt lat="48.25828" lon="5.14145">
        <ele>235.86</ele>
        <time>2025-01-04T13:48:14.535Z</time>
      </trkpt>
      <trkpt lat="48.25848" lon="5.14159">
        <ele>236.33</ele>
        <time>2025-01-04T13:48:15.633Z</time>
      </trkpt>
      <trkpt lat="48.25868" lon="5.14173">
        <ele>236.81</ele>
        <time>2025-01-04T13:48:16.735Z</time>
      </trkpt>
      <trkpt lat="48.25894" lon="5.14192">
        <ele>237.35</ele>
        <time>2025-01-04T13:48:17.841Z</time>
      </trkpt>
      <trkpt lat="48.2592" lon="5.14207">
        <ele>237.91</ele>
        <time>2025-01-04T13:48:18.952Z</time>
      </trkpt>
      <trkpt lat="48.25946" lon="5.14222">
        <ele>238.46</ele>
        <time>2025-01-04T13:48:20.067Z</time>
      </trkpt>
      <trkpt lat="48.25971" lon="5.14233">
        <ele>239.06</ele>
        <time>2025-01-04T13:48:21.186Z</time>
      </trkpt>
      <trkpt lat="48.25997" lon="5.14244">
        <ele>239.57</ele>
        <time>2025-01-04T13:48:22.310Z</time>
      </trkpt>
      <trkpt lat="48.26023" lon="5.14251">
        <ele>240.05</ele>
        <time>2025-01-04T13:48:23.438Z</time>
      </trkpt>
      <trkpt lat="48.26049" lon="5.14257">
        <ele>240.64</ele>
        <time>2025-01-04T13:48:24.570Z</time>
      </trkpt>
      <trkpt lat="48.26075" lon="5.14261">
        <ele>241.25</ele>
        <time>2025-01-04T13:48:25.706Z</time>
      </trkpt>
      <trkpt lat="48.26082" lon="5.1426">
        <ele>241.95</ele>
        <time>2025-01-04T13:48:26.843Z</time>
      </trkpt>
      <trkpt lat="48.26095" lon="5.14259">
        <ele>242.72</ele>
        <time>2025-01-04T13:48:27.982Z</time>
      </trkpt>
      <trkpt lat="48.26116" lon="5.14257">
        <ele>243.52</ele>
        <time>2025-01-04T13:48:29.125Z</time>
      </trkpt>
      <trkpt lat="48.26143" lon="5.14254">
        <ele>244.49</ele>
        <time>2025-01-04T13:48:30.272Z</time>
      </trkpt>
      <trkpt lat="48.26171" lon="5.14252">
        <ele>245.43</ele>
        <time>2025-01-04T13:48:31.424Z</time>
      </trkpt>
      <trkpt lat="48.26191" lon="5.14247">
        <ele>246.16</ele>
        <time>2025-01-04T13:48:32.579Z</time>
      </trkpt>
      <trkpt lat="48.26211" lon="5.14243">
        <ele>246.77</ele>
        <time>2025-01-04T13:48:33.737Z</time>
      </trkpt>
      <trkpt lat="48.26237" lon="5.14235">
        <ele>247.38</ele>
        <time>2025-01-04T13:48:34.899Z</time>
      </trkpt>
      <trkpt lat="48.2625" lon="5.14231">
        <ele>247.86</ele>
        <time>2025-01-04T13:48:36.063Z</time>
      </trkpt>
      <trkpt lat="48.26273" lon="5.14225">
        <ele>248.28</ele>
        <time>2025-01-04T13:48:37.231Z</time>
      </trkpt>
      <trkpt lat="48.26295" lon="5.14218">
        <ele>248.58</ele>
        <time>2025-01-04T13:48:38.403Z</time>
      </trkpt>
      <trkpt lat="48.26317" lon="5.14214">
        <ele>248.91</ele>
        <time>2025-01-04T13:48:39.578Z</time>
      </trkpt>
      <trkpt lat="48.26339" lon="5.1421">
        <ele>249.27</ele>
        <time>2025-01-04T13:48:40.757Z</time>
      </trkpt>
      <trkpt lat="48.26357" lon="5.14207">
        <ele>249.56</ele>
        <time>2025-01-04T13:48:41.939Z</time>
      </trkpt>
      <trkpt lat="48.26375" lon="5.14204">
        <ele>249.75</ele>
        <time>2025-01-04T13:48:43.124Z</time>
      </trkpt>
      <trkpt lat="48.26393" lon="5.142">
        <ele>249.9</ele>
        <time>2025-01-04T13:48:44.312Z</time>
      </trkpt>
      <trkpt lat="48.26411" lon="5.14196">
        <ele>249.98</ele>
        <time>2025-01-04T13:48:45.503Z</time>
      </trkpt>
      <trkpt lat="48.2643" lon="5.14191">
        <ele>249.87</ele>
        <time>2025-01-04T13:48:46.697Z</time>
      </trkpt>
      <trkpt lat="48.26449" lon="5.14186">
        <ele>249.64</ele>
        <time>2025-01-04T13:48:47.894Z</time>
      </trkpt>
      <trkpt lat="48.26454" lon="5.14185">
        <ele>249.35</ele>
        <time>2025-01-04T13:48:49.091Z</time>
      </trkpt>
      <trkpt lat="48.26482" lon="5.14177">
        <ele>248.86</ele>
        <time>2025-01-04T13:48:50.293Z</time>
      </trkpt>
      <trkpt lat="48.26504" lon="5.14171">
        <ele>248.34</ele>
        <time>2025-01-04T13:48:51.499Z</time>
      </trkpt>
      <trkpt lat="48.26517" lon="5.14166">
        <ele>247.78</ele>
        <time>2025-01-04T13:48:52.707Z</time>
      </trkpt>
      <trkpt lat="48.26532" lon="5.14157">
        <ele>247.08</ele>
        <time>2025-01-04T13:48:53.917Z</time>
      </trkpt>
      <trkpt lat="48.26546" lon="5.14149">
        <ele>246.37</ele>
        <time>2025-01-04T13:48:55.130Z</time>
      </trkpt>
      <trkpt lat="48.26565" lon="5.14138">
        <ele>245.61</ele>
        <time>2025-01-04T13:48:56.346Z</time>
      </trkpt>
      <trkpt lat="48.26583" lon="5.14127">
        <ele>244.8</ele>
        <time>2025-01-04T13:48:57.565Z</time>
      </trkpt>
      <trkpt lat="48.26599" lon="5.14117">
        <ele>243.89</ele>
        <time>2025-01-04T13:48:58.787Z</time>
      </trkpt>
      <trkpt lat="48.26614" lon="5.14107">
        <ele>242.95</ele>
        <time>2025-01-04T13:49:00.012Z</time>
      </trkpt>
      <trkpt lat="48.26631" lon="5.14097">
        <ele>241.98</ele>
        <time>2025-01-04T13:49:01.240Z</time>
      </trkpt>
      <trkpt lat="48.26649" lon="5.14087">
        <ele>240.99</ele>
        <time>2025-01-04T13:49:02.470Z</time>
      </trkpt>
      <trkpt lat="48.26679" lon="5.14079">
        <ele>240.02</ele>
        <time>2025-01-04T13:49:03.705Z</time>
      </trkpt>
      <trkpt lat="48.26709" lon="5.14074">
        <ele>239.07</ele>
        <time>2025-01-04T13:49:04.945Z</time>
      </trkpt>
      <trkpt lat="48.26733" lon="5.1406">
        <ele>238.05</ele>
        <time>2025-01-04T13:49:06.189Z</time>
      </trkpt>
      <trkpt lat="48.26746" lon="5.14038">
        <ele>236.99</ele>
        <time>2025-01-04T13:49:07.436Z</time>
      </trkpt>
      <trkpt lat="48.26758" lon="5.14008">
        <ele>235.95</ele>
        <time>2025-01-04T13:49:08.687Z</time>
      </trkpt>
      <trkpt lat="48.26765" lon="5.13984">
        <ele>234.89</ele>
        <time>2025-01-04T13:49:09.941Z</time>
      </trkpt>
      <trkpt lat="48.26772" lon="5.13959">
        <ele>233.88</ele>
        <time>2025-01-04T13:49:11.198Z</time>
      </trkpt>
      <trkpt lat="48.26776" lon="5.13943">
        <ele>232.93</ele>
        <time>2025-01-04T13:49:12.457Z</time>
      </trkpt>
      <trkpt lat="48.26783" lon="5.13928">
        <ele>232.02</ele>
        <time>2025-01-04T13:49:13.718Z</time>
      </trkpt>
      <trkpt lat="48.26786" lon="5.13918">
        <ele>231.16</ele>
        <time>2025-01-04T13:49:14.980Z</time>
      </trkpt>
      <trkpt lat="48.2679" lon="5.13907">
        <ele>230.33</ele>
        <time>2025-01-04T13:49:16.243Z</time>
      </trkpt>
      <trkpt lat="48.2679" lon="5.13877">
        <ele>229.55</ele>
        <time>2025-01-04T13:49:17.509Z</time>
      </trkpt>
      <trkpt lat="48.26792" lon="5.13869">
        <ele>228.88</ele>
        <time>2025-01-04T13:49:18.776Z</time>
      </trkpt>
      <trkpt lat="48.26795" lon="5.13867">
        <ele>228.28</ele>
        <time>2025-01-04T13:49:20.044Z</time>
      </trkpt>
      <trkpt lat="48.26817" lon="5.13853">
        <ele>227.71</ele>
        <time>2025-01-04T13:49:21.316Z</time>
      </trkpt>
      <trkpt lat="48.26841" lon="5.13839">
        <ele>227.22</ele>
        <time>2025-01-04T13:49:22.592Z</time>
      </trkpt>
      <trkpt lat="48.26865" lon="5.13824">
        <ele>226.84</ele>
        <time>2025-01-04T13:49:23.872Z</time>
      </trkpt>
      <trkpt lat="48.26885" lon="5.13812">
        <ele>226.55</ele>
        <time>2025-01-04T13:49:25.155Z</time>
      </trkpt>
      <trkpt lat="48.26903" lon="5.13801">
        <ele>226.32</ele>
        <time>2025-01-04T13:49:26.442Z</time>
      </trkpt>
      <trkpt lat="48.26924" lon="5.13788">
        <ele>226.17</ele>
        <time>2025-01-04T13:49:27.732Z</time>
      </trkpt>
      <trkpt lat="48.26945" lon="5.13775">
        <ele>226.07</ele>
        <time>2025-01-04T13:49:29.026Z</time>
      </trkpt>
      <trkpt lat="48.26965" lon="5.13761">
        <ele>225.89</ele>
        <time>2025-01-04T13:49:30.323Z</time>
      </trkpt>
      <trkpt lat="48.26985" lon="5.13746">
        <ele>225.77</ele>
        <time>2025-01-04T13:49:31.624Z</time>
      </trkpt>
      <trkpt lat="48.27004" lon="5.13727">
        <ele>225.83</ele>
        <time>2025-01-04T13:49:32.929Z</time>
      </trkpt>
      <trkpt lat="48.27023" lon="5.13709">
        <ele>225.89</ele>
        <time>2025-01-04T13:49:34.237Z</time>
      </trkpt>
      <trkpt lat="48.27039" lon="5.13682">
        <ele>226</ele>
        <time>2025-01-04T13:49:35.549Z</time>
      </trkpt>
      <trkpt lat="48.27056" lon="5.13655">
        <ele>226.18</ele>
        <time>2025-01-04T13:49:36.865Z</time>
      </trkpt>
      <trkpt lat="48.2707" lon="5.13631">
        <ele>226.37</ele>
        <time>2025-01-04T13:49:38.184Z</time>
      </trkpt>
      <trkpt lat="48.27083" lon="5.13607">
        <ele>226.57</ele>
        <time>2025-01-04T13:49:39.507Z</time>
      </trkpt>
      <trkpt lat="48.27099" lon="5.13579">
        <ele>226.7</ele>
        <time>2025-01-04T13:49:40.834Z</time>
      </trkpt>
      <trkpt lat="48.27115" lon="5.1355">
        <ele>226.92</ele>
        <time>2025-01-04T13:49:42.165Z</time>
      </trkpt>
      <trkpt lat="48.27129" lon="5.13525">
        <ele>227.13</ele>
        <time>2025-01-04T13:49:43.499Z</time>
      </trkpt>
      <trkpt lat="48.27144" lon="5.13499">
        <ele>227.4</ele>
        <time>2025-01-04T13:49:44.837Z</time>
      </trkpt>
      <trkpt lat="48.27156" lon="5.13478">
        <ele>227.62</ele>
        <time>2025-01-04T13:49:46.178Z</time>
      </trkpt>
      <trkpt lat="48.27167" lon="5.13456">
        <ele>227.91</ele>
        <time>2025-01-04T13:49:47.522Z</time>
      </trkpt>
      <trkpt lat="48.27186" lon="5.13424">
        <ele>228.16</ele>
        <time>2025-01-04T13:49:48.870Z</time>
      </trkpt>
      <trkpt lat="48.27203" lon="5.13392">
        <ele>228.42</ele>
        <time>2025-01-04T13:49:50.223Z</time>
      </trkpt>
      <trkpt lat="48.27217" lon="5.13363">
        <ele>228.62</ele>
        <time>2025-01-04T13:49:51.580Z</time>
      </trkpt>
      <trkpt lat="48.2723" lon="5.13334">
        <ele>228.8</ele>
        <time>2025-01-04T13:49:52.940Z</time>
      </trkpt>
      <trkpt lat="48.27245" lon="5.13298">
        <ele>228.97</ele>
        <time>2025-01-04T13:49:54.305Z</time>
      </trkpt>
      <trkpt lat="48.27259" lon="5.13262">
        <ele>229.1</ele>
        <time>2025-01-04T13:49:55.674Z</time>
      </trkpt>
      <trkpt lat="48.27275" lon="5.13232">
        <ele>229.26</ele>
        <time>2025-01-04T13:49:57.047Z</time>
      </trkpt>
      <trkpt lat="48.2729" lon="5.13202">
        <ele>229.53</ele>
        <time>2025-01-04T13:49:58.424Z</time>
      </trkpt>
      <trkpt lat="48.27307" lon="5.13171">
        <ele>229.69</ele>
        <time>2025-01-04T13:49:59.806Z</time>
      </trkpt>
      <trkpt lat="48.27324" lon="5.1314">
        <ele>229.81</ele>
        <time>2025-01-04T13:50:01.192Z</time>
      </trkpt>
      <trkpt lat="48.27336" lon="5.13112">
        <ele>230.03</ele>
        <time>2025-01-04T13:50:02.581Z</time>
      </trkpt>
      <trkpt lat="48.27348" lon="5.13084">
        <ele>230.16</ele>
        <time>2025-01-04T13:50:03.974Z</time>
      </trkpt>
      <trkpt lat="48.27354" lon="5.1306">
        <ele>230.11</ele>
        <time>2025-01-04T13:50:05.370Z</time>
      </trkpt>
      <trkpt lat="48.2736" lon="5.13035">
        <ele>230.02</ele>
        <time>2025-01-04T13:50:06.769Z</time>
      </trkpt>
      <trkpt lat="48.27366" lon="5.13003">
        <ele>229.91</ele>
        <time>2025-01-04T13:50:08.171Z</time>
      </trkpt>
      <trkpt lat="48.27371" lon="5.12971">
        <ele>229.88</ele>
        <time>2025-01-04T13:50:09.577Z</time>
      </trkpt>
      <trkpt lat="48.27375" lon="5.12961">
        <ele>229.93</ele>
        <time>2025-01-04T13:50:10.984Z</time>
      </trkpt>
      <trkpt lat="48.27387" lon="5.12933">
        <ele>229.98</ele>
        <time>2025-01-04T13:50:12.395Z</time>
      </trkpt>
      <trkpt lat="48.27397" lon="5.12912">
        <ele>230.08</ele>
        <time>2025-01-04T13:50:13.808Z</time>
      </trkpt>
      <trkpt lat="48.27408" lon="5.12891">
        <ele>230.16</ele>
        <time>2025-01-04T13:50:15.224Z</time>
      </trkpt>
      <trkpt lat="48.27424" lon="5.12869">
        <ele>230.4</ele>
        <time>2025-01-04T13:50:16.644Z</time>
      </trkpt>
      <trkpt lat="48.2744" lon="5.12848">
        <ele>230.59</ele>
        <time>2025-01-04T13:50:18.067Z</time>
      </trkpt>
      <trkpt lat="48.2746" lon="5.12831">
        <ele>230.92</ele>
        <time>2025-01-04T13:50:19.494Z</time>
      </trkpt>
      <trkpt lat="48.27479" lon="5.12815">
        <ele>231.25</ele>
        <time>2025-01-04T13:50:20.924Z</time>
      </trkpt>
      <trkpt lat="48.27485" lon="5.12811">
        <ele>231.66</ele>
        <time>2025-01-04T13:50:22.355Z</time>
      </trkpt>
      <trkpt lat="48.27492" lon="5.12808">
        <ele>232.13</ele>
        <time>2025-01-04T13:50:23.787Z</time>
      </trkpt>
      <trkpt lat="48.27504" lon="5.12807">
        <ele>232.65</ele>
        <time>2025-01-04T13:50:25.221Z</time>
      </trkpt>
      <trkpt lat="48.2751" lon="5.12807">
        <ele>233.24</ele>
        <time>2025-01-04T13:50:26.656Z</time>
      </trkpt>
      <trkpt lat="48.27522" lon="5.12809">
        <ele>233.91</ele>
        <time>2025-01-04T13:50:28.093Z</time>
      </trkpt>
      <trkpt lat="48.27527" lon="5.12812">
        <ele>234.63</ele>
        <time>2025-01-04T13:50:29.531Z</time>
      </trkpt>
      <trkpt lat="48.27546" lon="5.12828">
        <ele>235.43</ele>
        <time>2025-01-04T13:50:30.973Z</time>
      </trkpt>
      <trkpt lat="48.2755" lon="5.12833">
        <ele>236.28</ele>
        <time>2025-01-04T13:50:32.415Z</time>
      </trkpt>
      <trkpt lat="48.27571" lon="5.12868">
        <ele>237.44</ele>
        <time>2025-01-04T13:50:33.862Z</time>
      </trkpt>
      <trkpt lat="48.27584" lon="5.12889">
        <ele>238.49</ele>
        <time>2025-01-04T13:50:35.312Z</time>
      </trkpt>
      <trkpt lat="48.27597" lon="5.12909">
        <ele>239.48</ele>
        <time>2025-01-04T13:50:36.766Z</time>
      </trkpt>
      <trkpt lat="48.27617" lon="5.1294">
        <ele>240.43</ele>
        <time>2025-01-04T13:50:38.224Z</time>
      </trkpt>
      <trkpt lat="48.27635" lon="5.12969">
        <ele>241.32</ele>
        <time>2025-01-04T13:50:39.686Z</time>
      </trkpt>
      <trkpt lat="48.27637" lon="5.12974">
        <ele>242.18</ele>
        <time>2025-01-04T13:50:41.149Z</time>
      </trkpt>
      <trkpt lat="48.2764" lon="5.12979">
        <ele>243.01</ele>
        <time>2025-01-04T13:50:42.613Z</time>
      </trkpt>
      <trkpt lat="48.2765" lon="5.12994">
        <ele>243.83</ele>
        <time>2025-01-04T13:50:44.079Z</time>
      </trkpt>
      <trkpt lat="48.27661" lon="5.13011">
        <ele>244.66</ele>
        <time>2025-01-04T13:50:45.548Z</time>
      </trkpt>
      <trkpt lat="48.27672" lon="5.13029">
        <ele>245.42</ele>
        <time>2025-01-04T13:50:47.019Z</time>
      </trkpt>
      <trkpt lat="48.27685" lon="5.1305">
        <ele>246.12</ele>
        <time>2025-01-04T13:50:48.493Z</time>
      </trkpt>
      <trkpt lat="48.27697" lon="5.13072">
        <ele>246.67</ele>
        <time>2025-01-04T13:50:49.970Z</time>
      </trkpt>
      <trkpt lat="48.27709" lon="5.13093">
        <ele>247.14</ele>
        <time>2025-01-04T13:50:51.450Z</time>
      </trkpt>
      <trkpt lat="48.2772" lon="5.13114">
        <ele>247.53</ele>
        <time>2025-01-04T13:50:52.933Z</time>
      </trkpt>
      <trkpt lat="48.27728" lon="5.13128">
        <ele>247.86</ele>
        <time>2025-01-04T13:50:54.418Z</time>
      </trkpt>
      <trkpt lat="48.27739" lon="5.13148">
        <ele>248.07</ele>
        <time>2025-01-04T13:50:55.906Z</time>
      </trkpt>
      <trkpt lat="48.27754" lon="5.13176">
        <ele>248.22</ele>
        <time>2025-01-04T13:50:57.398Z</time>
      </trkpt>
      <trkpt lat="48.27758" lon="5.13183">
        <ele>248.3</ele>
        <time>2025-01-04T13:50:58.891Z</time>
      </trkpt>
      <trkpt lat="48.2777" lon="5.13206">
        <ele>248.24</ele>
        <time>2025-01-04T13:51:00.387Z</time>
      </trkpt>
      <trkpt lat="48.27779" lon="5.13221">
        <ele>248.11</ele>
        <time>2025-01-04T13:51:01.885Z</time>
      </trkpt>
      <trkpt lat="48.27787" lon="5.13236">
        <ele>247.89</ele>
        <time>2025-01-04T13:51:03.385Z</time>
      </trkpt>
      <trkpt lat="48.27799" lon="5.13258">
        <ele>247.52</ele>
        <time>2025-01-04T13:51:04.888Z</time>
      </trkpt>
      <trkpt lat="48.2781" lon="5.1328">
        <ele>247.22</ele>
        <time>2025-01-04T13:51:06.394Z</time>
      </trkpt>
      <trkpt lat="48.27816" lon="5.13296">
        <ele>246.9</ele>
        <time>2025-01-04T13:51:07.902Z</time>
      </trkpt>
      <trkpt lat="48.27819" lon="5.13305">
        <ele>246.4</ele>
        <time>2025-01-04T13:51:09.411Z</time>
      </trkpt>
      <trkpt lat="48.2783" lon="5.13334">
        <ele>245.83</ele>
        <time>2025-01-04T13:51:10.923Z</time>
      </trkpt>
      <trkpt lat="48.27833" lon="5.13341">
        <ele>245.15</ele>
        <time>2025-01-04T13:51:12.436Z</time>
      </trkpt>
      <trkpt lat="48.27843" lon="5.13369">
        <ele>244.37</ele>
        <time>2025-01-04T13:51:13.953Z</time>
      </trkpt>
      <trkpt lat="48.27853" lon="5.13395">
        <ele>243.5</ele>
        <time>2025-01-04T13:51:15.473Z</time>
      </trkpt>
      <trkpt lat="48.27863" lon="5.1342">
        <ele>242.56</ele>
        <time>2025-01-04T13:51:16.996Z</time>
      </trkpt>
      <trkpt lat="48.2787" lon="5.13438">
        <ele>241.57</ele>
        <time>2025-01-04T13:51:18.521Z</time>
      </trkpt>
      <trkpt lat="48.2788" lon="5.13466">
        <ele>240.53</ele>
        <time>2025-01-04T13:51:20.050Z</time>
      </trkpt>
      <trkpt lat="48.27895" lon="5.13504">
        <ele>239.48</ele>
        <time>2025-01-04T13:51:21.583Z</time>
      </trkpt>
      <trkpt lat="48.27898" lon="5.13514">
        <ele>238.4</ele>
        <time>2025-01-04T13:51:23.118Z</time>
      </trkpt>
      <trkpt lat="48.27908" lon="5.13539">
        <ele>237.24</ele>
        <time>2025-01-04T13:51:24.656Z</time>
      </trkpt>
      <trkpt lat="48.27917" lon="5.13564">
        <ele>236.02</ele>
        <time>2025-01-04T13:51:26.197Z</time>
      </trkpt>
      <trkpt lat="48.27921" lon="5.13576">
        <ele>234.83</ele>
        <time>2025-01-04T13:51:27.739Z</time>
      </trkpt>
      <trkpt lat="48.27927" lon="5.13606">
        <ele>233.65</ele>
        <time>2025-01-04T13:51:29.284Z</time>
      </trkpt>
      <trkpt lat="48.27933" lon="5.13635">
        <ele>232.45</ele>
        <time>2025-01-04T13:51:30.833Z</time>
      </trkpt>
      <trkpt lat="48.27932" lon="5.13667">
        <ele>231.12</ele>
        <time>2025-01-04T13:51:32.385Z</time>
      </trkpt>
      <trkpt lat="48.27932" lon="5.13698">
        <ele>229.81</ele>
        <time>2025-01-04T13:51:33.940Z</time>
      </trkpt>
      <trkpt lat="48.27928" lon="5.13739">
        <ele>228.53</ele>
        <time>2025-01-04T13:51:35.500Z</time>
      </trkpt>
      <trkpt lat="48.27924" lon="5.13779">
        <ele>227.43</ele>
        <time>2025-01-04T13:51:37.064Z</time>
      </trkpt>
      <trkpt lat="48.27923" lon="5.13793">
        <ele>226.42</ele>
        <time>2025-01-04T13:51:38.630Z</time>
      </trkpt>
      <trkpt lat="48.27926" lon="5.13821">
        <ele>225.45</ele>
        <time>2025-01-04T13:51:40.199Z</time>
      </trkpt>
      <trkpt lat="48.27928" lon="5.13849">
        <ele>224.54</ele>
        <time>2025-01-04T13:51:41.771Z</time>
      </trkpt>
      <trkpt lat="48.27935" lon="5.13874">
        <ele>223.75</ele>
        <time>2025-01-04T13:51:43.346Z</time>
      </trkpt>
      <trkpt lat="48.27941" lon="5.13898">
        <ele>223.06</ele>
        <time>2025-01-04T13:51:44.923Z</time>
      </trkpt>
      <trkpt lat="48.27954" lon="5.13925">
        <ele>222.48</ele>
        <time>2025-01-04T13:51:46.504Z</time>
      </trkpt>
      <trkpt lat="48.27966" lon="5.13951">
        <ele>222.07</ele>
        <time>2025-01-04T13:51:48.088Z</time>
      </trkpt>
      <trkpt lat="48.27982" lon="5.13975">
        <ele>221.65</ele>
        <time>2025-01-04T13:51:49.676Z</time>
      </trkpt>
      <trkpt lat="48.27998" lon="5.13998">
        <ele>221.27</ele>
        <time>2025-01-04T13:51:51.267Z</time>
      </trkpt>
      <trkpt lat="48.28013" lon="5.14021">
        <ele>220.95</ele>
        <time>2025-01-04T13:51:52.862Z</time>
      </trkpt>
      <trkpt lat="48.28029" lon="5.14043">
        <ele>220.76</ele>
        <time>2025-01-04T13:51:54.460Z</time>
      </trkpt>
      <trkpt lat="48.28042" lon="5.14064">
        <ele>220.69</ele>
        <time>2025-01-04T13:51:56.061Z</time>
      </trkpt>
      <trkpt lat="48.28055" lon="5.14085">
        <ele>220.69</ele>
        <time>2025-01-04T13:51:57.666Z</time>
      </trkpt>
      <trkpt lat="48.28067" lon="5.14111">
        <ele>220.77</ele>
        <time>2025-01-04T13:51:59.274Z</time>
      </trkpt>
      <trkpt lat="48.28078" lon="5.14137">
        <ele>220.88</ele>
        <time>2025-01-04T13:52:00.885Z</time>
      </trkpt>
      <trkpt lat="48.28088" lon="5.14172">
        <ele>221.06</ele>
        <time>2025-01-04T13:52:02.500Z</time>
      </trkpt>
      <trkpt lat="48.28098" lon="5.14207">
        <ele>221.33</ele>
        <time>2025-01-04T13:52:04.119Z</time>
      </trkpt>
      <trkpt lat="48.28109" lon="5.1423">
        <ele>221.67</ele>
        <time>2025-01-04T13:52:05.741Z</time>
      </trkpt>
      <trkpt lat="48.28119" lon="5.14253">
        <ele>222.06</ele>
        <time>2025-01-04T13:52:07.366Z</time>
      </trkpt>
      <trkpt lat="48.28132" lon="5.14279">
        <ele>222.52</ele>
        <time>2025-01-04T13:52:08.995Z</time>
      </trkpt>
      <trkpt lat="48.28139" lon="5.14294">
        <ele>223.03</ele>
        <time>2025-01-04T13:52:10.626Z</time>
      </trkpt>
      <trkpt lat="48.28153" lon="5.14322">
        <ele>223.61</ele>
        <time>2025-01-04T13:52:12.260Z</time>
      </trkpt>
      <trkpt lat="48.28166" lon="5.1435">
        <ele>224.24</ele>
        <time>2025-01-04T13:52:13.898Z</time>
      </trkpt>
      <trkpt lat="48.28181" lon="5.14383">
        <ele>224.9</ele>
        <time>2025-01-04T13:52:15.540Z</time>
      </trkpt>
      <trkpt lat="48.28197" lon="5.14415">
        <ele>225.52</ele>
        <time>2025-01-04T13:52:17.187Z</time>
      </trkpt>
      <trkpt lat="48.28213" lon="5.14451">
        <ele>226.18</ele>
        <time>2025-01-04T13:52:18.838Z</time>
      </trkpt>
      <trkpt lat="48.28228" lon="5.14487">
        <ele>226.84</ele>
        <time>2025-01-04T13:52:20.494Z</time>
      </trkpt>
      <trkpt lat="48.28231" lon="5.14496">
        <ele>227.6</ele>
        <time>2025-01-04T13:52:22.151Z</time>
      </trkpt>
      <trkpt lat="48.28242" lon="5.14526">
        <ele>228.41</ele>
        <time>2025-01-04T13:52:23.812Z</time>
      </trkpt>
      <trkpt lat="48.28252" lon="5.14556">
        <ele>229.33</ele>
        <time>2025-01-04T13:52:25.476Z</time>
      </trkpt>
      <trkpt lat="48.28264" lon="5.1459">
        <ele>230.34</ele>
        <time>2025-01-04T13:52:27.144Z</time>
      </trkpt>
      <trkpt lat="48.28276" lon="5.14624">
        <ele>231.39</ele>
        <time>2025-01-04T13:52:28.816Z</time>
      </trkpt>
      <trkpt lat="48.28289" lon="5.14657">
        <ele>232.35</ele>
        <time>2025-01-04T13:52:30.492Z</time>
      </trkpt>
      <trkpt lat="48.28302" lon="5.14689">
        <ele>233.29</ele>
        <time>2025-01-04T13:52:32.172Z</time>
      </trkpt>
      <trkpt lat="48.28314" lon="5.14721">
        <ele>234.27</ele>
        <time>2025-01-04T13:52:33.856Z</time>
      </trkpt>
      <trkpt lat="48.28328" lon="5.14752">
        <ele>235.31</ele>
        <time>2025-01-04T13:52:35.544Z</time>
      </trkpt>
      <trkpt lat="48.28344" lon="5.14785">
        <ele>236.24</ele>
        <time>2025-01-04T13:52:37.237Z</time>
      </trkpt>
      <trkpt lat="48.28361" lon="5.14817">
        <ele>237.09</ele>
        <time>2025-01-04T13:52:38.934Z</time>
      </trkpt>
      <trkpt lat="48.28367" lon="5.14831">
        <ele>237.9</ele>
        <time>2025-01-04T13:52:40.633Z</time>
      </trkpt>
      <trkpt lat="48.28374" lon="5.14845">
        <ele>238.7</ele>
        <time>2025-01-04T13:52:42.334Z</time>
      </trkpt>
      <trkpt lat="48.28387" lon="5.1487">
        <ele>239.49</ele>
        <time>2025-01-04T13:52:44.038Z</time>
      </trkpt>
      <trkpt lat="48.28397" lon="5.1489">
        <ele>240.21</ele>
        <time>2025-01-04T13:52:45.745Z</time>
      </trkpt>
      <trkpt lat="48.28407" lon="5.1491">
        <ele>240.9</ele>
        <time>2025-01-04T13:52:47.454Z</time>
      </trkpt>
      <trkpt lat="48.28418" lon="5.14932">
        <ele>241.63</ele>
        <time>2025-01-04T13:52:49.166Z</time>
      </trkpt>
      <trkpt lat="48.28425" lon="5.14946">
        <ele>242.33</ele>
        <time>2025-01-04T13:52:50.880Z</time>
      </trkpt>
      <trkpt lat="48.28433" lon="5.1496">
        <ele>242.99</ele>
        <time>2025-01-04T13:52:52.596Z</time>
      </trkpt>
      <trkpt lat="48.28442" lon="5.14975">
        <ele>243.62</ele>
        <time>2025-01-04T13:52:54.314Z</time>
      </trkpt>
      <trkpt lat="48.28446" lon="5.14982">
        <ele>244.23</ele>
        <time>2025-01-04T13:52:56.033Z</time>
      </trkpt>
      <trkpt lat="48.2845" lon="5.1499">
        <ele>244.82</ele>
        <time>2025-01-04T13:52:57.753Z</time>
      </trkpt>
      <trkpt lat="48.28466" lon="5.15018">
        <ele>245.36</ele>
        <time>2025-01-04T13:52:59.477Z</time>
      </trkpt>
      <trkpt lat="48.28482" lon="5.15047">
        <ele>246.03</ele>
        <time>2025-01-04T13:53:01.205Z</time>
      </trkpt>
      <trkpt lat="48.28498" lon="5.15076">
        <ele>246.67</ele>
        <time>2025-01-04T13:53:02.937Z</time>
      </trkpt>
      <trkpt lat="48.28509" lon="5.15095">
        <ele>247.23</ele>
        <time>2025-01-04T13:53:04.672Z</time>
      </trkpt>
      <trkpt lat="48.28519" lon="5.15113">
        <ele>247.72</ele>
        <time>2025-01-04T13:53:06.410Z</time>
      </trkpt>
      <trkpt lat="48.2853" lon="5.15131">
        <ele>248.07</ele>
        <time>2025-01-04T13:53:08.150Z</time>
      </trkpt>
      <trkpt lat="48.2854" lon="5.15148">
        <ele>248.34</ele>
        <time>2025-01-04T13:53:09.893Z</time>
      </trkpt>
      <trkpt lat="48.2855" lon="5.15161">
        <ele>248.54</ele>
        <time>2025-01-04T13:53:11.638Z</time>
      </trkpt>
      <trkpt lat="48.28565" lon="5.15182">
        <ele>248.61</ele>
        <time>2025-01-04T13:53:13.386Z</time>
      </trkpt>
      <trkpt lat="48.28577" lon="5.15199">
        <ele>248.62</ele>
        <time>2025-01-04T13:53:15.137Z</time>
      </trkpt>
      <trkpt lat="48.28589" lon="5.15216">
        <ele>248.61</ele>
        <time>2025-01-04T13:53:16.890Z</time>
      </trkpt>
      <trkpt lat="48.28601" lon="5.15229">
        <ele>248.53</ele>
        <time>2025-01-04T13:53:18.646Z</time>
      </trkpt>
      <trkpt lat="48.28619" lon="5.15248">
        <ele>248.47</ele>
        <time>2025-01-04T13:53:20.405Z</time>
      </trkpt>
      <trkpt lat="48.28642" lon="5.15274">
        <ele>248.34</ele>
        <time>2025-01-04T13:53:22.169Z</time>
      </trkpt>
      <trkpt lat="48.28648" lon="5.1528">
        <ele>248.24</ele>
        <time>2025-01-04T13:53:23.934Z</time>
      </trkpt>
      <trkpt lat="48.28669" lon="5.15302">
        <ele>248.12</ele>
        <time>2025-01-04T13:53:25.703Z</time>
      </trkpt>
      <trkpt lat="48.28689" lon="5.15323">
        <ele>247.98</ele>
        <time>2025-01-04T13:53:27.476Z</time>
      </trkpt>
      <trkpt lat="48.28706" lon="5.1534">
        <ele>247.77</ele>
        <time>2025-01-04T13:53:29.252Z</time>
      </trkpt>
      <trkpt lat="48.28711" lon="5.15346">
        <ele>247.5</ele>
        <time>2025-01-04T13:53:31.029Z</time>
      </trkpt>
      <trkpt lat="48.28727" lon="5.15359">
        <ele>247.17</ele>
        <time>2025-01-04T13:53:32.809Z</time>
      </trkpt>
      <trkpt lat="48.28742" lon="5.15371">
        <ele>246.81</ele>
        <time>2025-01-04T13:53:34.592Z</time>
      </trkpt>
      <trkpt lat="48.28757" lon="5.15384">
        <ele>246.4</ele>
        <time>2025-01-04T13:53:36.378Z</time>
      </trkpt>
      <trkpt lat="48.28773" lon="5.15397">
        <ele>245.92</ele>
        <time>2025-01-04T13:53:38.167Z</time>
      </trkpt>
      <trkpt lat="48.28788" lon="5.15408">
        <ele>245.53</ele>
        <time>2025-01-04T13:53:39.958Z</time>
      </trkpt>
      <trkpt lat="48.28803" lon="5.15419">
        <ele>245.09</ele>
        <time>2025-01-04T13:53:41.752Z</time>
      </trkpt>
      <trkpt lat="48.28809" lon="5.15423">
        <ele>244.53</ele>
        <time>2025-01-04T13:53:43.547Z</time>
      </trkpt>
      <trkpt lat="48.28834" lon="5.15438">
        <ele>243.91</ele>
        <time>2025-01-04T13:53:45.346Z</time>
      </trkpt>
      <trkpt lat="48.28857" lon="5.15451">
        <ele>243.18</ele>
        <time>2025-01-04T13:53:47.149Z</time>
      </trkpt>
      <trkpt lat="48.2888" lon="5.15464">
        <ele>242.48</ele>
        <time>2025-01-04T13:53:48.956Z</time>
      </trkpt>
      <trkpt lat="48.28904" lon="5.15475">
        <ele>241.57</ele>
        <time>2025-01-04T13:53:50.767Z</time>
      </trkpt>
      <trkpt lat="48.28927" lon="5.15486">
        <ele>240.71</ele>
        <time>2025-01-04T13:53:52.582Z</time>
      </trkpt>
      <trkpt lat="48.28954" lon="5.15496">
        <ele>239.92</ele>
        <time>2025-01-04T13:53:54.401Z</time>
      </trkpt>
      <trkpt lat="48.28981" lon="5.15506">
        <ele>239.13</ele>
        <time>2025-01-04T13:53:56.225Z</time>
      </trkpt>
      <trkpt lat="48.29004" lon="5.15511">
        <ele>238.06</ele>
        <time>2025-01-04T13:53:58.053Z</time>
      </trkpt>
      <trkpt lat="48.29027" lon="5.15516">
        <ele>236.87</ele>
        <time>2025-01-04T13:53:59.884Z</time>
      </trkpt>
      <trkpt lat="48.29046" lon="5.15517">
        <ele>235.75</ele>
        <time>2025-01-04T13:54:01.718Z</time>
      </trkpt>
      <trkpt lat="48.29064" lon="5.15518">
        <ele>234.66</ele>
        <time>2025-01-04T13:54:03.555Z</time>
      </trkpt>
      <trkpt lat="48.29082" lon="5.15519">
        <ele>233.58</ele>
        <time>2025-01-04T13:54:05.395Z</time>
      </trkpt>
      <trkpt lat="48.291" lon="5.15519">
        <ele>232.53</ele>
        <time>2025-01-04T13:54:07.238Z</time>
      </trkpt>
      <trkpt lat="48.29119" lon="5.1552">
        <ele>231.52</ele>
        <time>2025-01-04T13:54:09.084Z</time>
      </trkpt>
      <trkpt lat="48.29138" lon="5.15521">
        <ele>230.54</ele>
        <time>2025-01-04T13:54:10.933Z</time>
      </trkpt>
      <trkpt lat="48.29158" lon="5.15522">
        <ele>229.56</ele>
        <time>2025-01-04T13:54:12.785Z</time>
      </trkpt>
      <trkpt lat="48.29178" lon="5.15523">
        <ele>228.63</ele>
        <time>2025-01-04T13:54:14.641Z</time>
      </trkpt>
      <trkpt lat="48.29195" lon="5.15523">
        <ele>227.76</ele>
        <time>2025-01-04T13:54:16.499Z</time>
      </trkpt>
      <trkpt lat="48.29211" lon="5.15524">
        <ele>226.93</ele>
        <time>2025-01-04T13:54:18.360Z</time>
      </trkpt>
      <trkpt lat="48.29233" lon="5.15525">
        <ele>226.14</ele>
        <time>2025-01-04T13:54:20.224Z</time>
      </trkpt>
      <trkpt lat="48.29261" lon="5.15526">
        <ele>225.39</ele>
        <time>2025-01-04T13:54:22.093Z</time>
      </trkpt>
      <trkpt lat="48.29277" lon="5.15527">
        <ele>224.75</ele>
        <time>2025-01-04T13:54:23.964Z</time>
      </trkpt>
      <trkpt lat="48.29288" lon="5.15521">
        <ele>224.14</ele>
        <time>2025-01-04T13:54:25.837Z</time>
      </trkpt>
      <trkpt lat="48.29292" lon="5.15498">
        <ele>223.52</ele>
        <time>2025-01-04T13:54:27.713Z</time>
      </trkpt>
      <trkpt lat="48.29283" lon="5.15463">
        <ele>222.99</ele>
        <time>2025-01-04T13:54:29.593Z</time>
      </trkpt>
      <trkpt lat="48.29276" lon="5.15433">
        <ele>222.7</ele>
        <time>2025-01-04T13:54:31.476Z</time>
      </trkpt>
      <trkpt lat="48.2927" lon="5.15398">
        <ele>222.5</ele>
        <time>2025-01-04T13:54:33.363Z</time>
      </trkpt>
      <trkpt lat="48.29262" lon="5.15363">
        <ele>222.34</ele>
        <time>2025-01-04T13:54:35.254Z</time>
      </trkpt>
      <trkpt lat="48.29256" lon="5.1533">
        <ele>222.26</ele>
        <time>2025-01-04T13:54:37.149Z</time>
      </trkpt>
      <trkpt lat="48.29249" lon="5.15296">
        <ele>222.29</ele>
        <time>2025-01-04T13:54:39.047Z</time>
      </trkpt>
      <trkpt lat="48.2924" lon="5.15261">
        <ele>222.44</ele>
        <time>2025-01-04T13:54:40.950Z</time>
      </trkpt>
      <trkpt lat="48.29239" lon="5.15242">
        <ele>222.63</ele>
        <time>2025-01-04T13:54:42.855Z</time>
      </trkpt>
      <trkpt lat="48.29239" lon="5.15234">
        <ele>222.87</ele>
        <time>2025-01-04T13:54:44.760Z</time>
      </trkpt>
      <trkpt lat="48.29238" lon="5.15204">
        <ele>223.24</ele>
        <time>2025-01-04T13:54:46.669Z</time>
      </trkpt>
      <trkpt lat="48.2924" lon="5.15184">
        <ele>223.61</ele>
        <time>2025-01-04T13:54:48.580Z</time>
      </trkpt>
      <trkpt lat="48.29243" lon="5.15165">
        <ele>224.05</ele>
        <time>2025-01-04T13:54:50.493Z</time>
      </trkpt>
      <trkpt lat="48.2925" lon="5.15147">
        <ele>224.54</ele>
        <time>2025-01-04T13:54:52.408Z</time>
      </trkpt>
      <trkpt lat="48.29266" lon="5.15147">
        <ele>224.97</ele>
        <time>2025-01-04T13:54:54.326Z</time>
      </trkpt>
      <trkpt lat="48.29282" lon="5.15148">
        <ele>225.41</ele>
        <time>2025-01-04T13:54:56.246Z</time>
      </trkpt>
      <trkpt lat="48.29298" lon="5.1515">
        <ele>225.87</ele>
        <time>2025-01-04T13:54:58.169Z</time>
      </trkpt>
      <trkpt lat="48.29325" lon="5.1515">
        <ele>226.4</ele>
        <time>2025-01-04T13:55:00.096Z</time>
      </trkpt>
      <trkpt lat="48.29343" lon="5.15148">
        <ele>226.93</ele>
        <time>2025-01-04T13:55:02.026Z</time>
      </trkpt>
      <trkpt lat="48.2936" lon="5.15146">
        <ele>227.44</ele>
        <time>2025-01-04T13:55:03.959Z</time>
      </trkpt>
      <trkpt lat="48.29376" lon="5.15144">
        <ele>227.9</ele>
        <time>2025-01-04T13:55:05.894Z</time>
      </trkpt>
      <trkpt lat="48.29391" lon="5.15142">
        <ele>228.36</ele>
        <time>2025-01-04T13:55:07.832Z</time>
      </trkpt>
      <trkpt lat="48.29409" lon="5.1514">
        <ele>228.77</ele>
        <time>2025-01-04T13:55:09.773Z</time>
      </trkpt>
      <trkpt lat="48.29427" lon="5.15138">
        <ele>229.21</ele>
        <time>2025-01-04T13:55:11.716Z</time>
      </trkpt>
      <trkpt lat="48.29446" lon="5.15136">
        <ele>229.61</ele>
        <time>2025-01-04T13:55:13.663Z</time>
      </trkpt>
      <trkpt lat="48.29466" lon="5.15134">
        <ele>230</ele>
        <time>2025-01-04T13:55:15.613Z</time>
      </trkpt>
      <trkpt lat="48.29495" lon="5.15131">
        <ele>230.41</ele>
        <time>2025-01-04T13:55:17.567Z</time>
      </trkpt>
      <trkpt lat="48.29507" lon="5.15127">
        <ele>230.82</ele>
        <time>2025-01-04T13:55:19.523Z</time>
      </trkpt>
      <trkpt lat="48.29514" lon="5.15118">
        <ele>231.2</ele>
        <time>2025-01-04T13:55:21.481Z</time>
      </trkpt>
      <trkpt lat="48.29521" lon="5.15109">
        <ele>231.56</ele>
        <time>2025-01-04T13:55:23.440Z</time>
      </trkpt>
      <trkpt lat="48.29524" lon="5.15103">
        <ele>231.87</ele>
        <time>2025-01-04T13:55:25.400Z</time>
      </trkpt>
      <trkpt lat="48.29528" lon="5.15086">
        <ele>232.14</ele>
        <time>2025-01-04T13:55:27.362Z</time>
      </trkpt>
      <trkpt lat="48.29529" lon="5.15072">
        <ele>232.37</ele>
        <time>2025-01-04T13:55:29.325Z</time>
      </trkpt>
      <trkpt lat="48.29527" lon="5.15055">
        <ele>232.56</ele>
        <time>2025-01-04T13:55:31.290Z</time>
      </trkpt>
      <trkpt lat="48.29523" lon="5.15023">
        <ele>232.76</ele>
        <time>2025-01-04T13:55:33.259Z</time>
      </trkpt>
      <trkpt lat="48.29519" lon="5.1499">
        <ele>232.93</ele>
        <time>2025-01-04T13:55:35.231Z</time>
      </trkpt>
      <trkpt lat="48.29515" lon="5.1496">
        <ele>232.99</ele>
        <time>2025-01-04T13:55:37.207Z</time>
      </trkpt>
      <trkpt lat="48.29513" lon="5.14946">
        <ele>233.02</ele>
        <time>2025-01-04T13:55:39.184Z</time>
      </trkpt>
      <trkpt lat="48.29507" lon="5.14903">
        <ele>232.99</ele>
        <time>2025-01-04T13:55:41.166Z</time>
      </trkpt>
      <trkpt lat="48.29509" lon="5.1489">
        <ele>232.91</ele>
        <time>2025-01-04T13:55:43.149Z</time>
      </trkpt>
      <trkpt lat="48.29514" lon="5.1487">
        <ele>232.79</ele>
        <time>2025-01-04T13:55:45.135Z</time>
      </trkpt>
      <trkpt lat="48.29519" lon="5.14855">
        <ele>232.59</ele>
        <time>2025-01-04T13:55:47.122Z</time>
      </trkpt>
      <trkpt lat="48.29534" lon="5.14836">
        <ele>232.32</ele>
        <time>2025-01-04T13:55:49.113Z</time>
      </trkpt>
      <trkpt lat="48.29548" lon="5.14817">
        <ele>231.98</ele>
        <time>2025-01-04T13:55:51.107Z</time>
      </trkpt>
      <trkpt lat="48.29557" lon="5.14806">
        <ele>231.6</ele>
        <time>2025-01-04T13:55:53.102Z</time>
      </trkpt>
      <trkpt lat="48.29572" lon="5.14796">
        <ele>231.16</ele>
        <time>2025-01-04T13:55:55.100Z</time>
      </trkpt>
      <trkpt lat="48.2959" lon="5.14788">
        <ele>230.71</ele>
        <time>2025-01-04T13:55:57.101Z</time>
      </trkpt>
      <trkpt lat="48.29608" lon="5.14781">
        <ele>230.22</ele>
        <time>2025-01-04T13:55:59.105Z</time>
      </trkpt>
      <trkpt lat="48.29632" lon="5.14778">
        <ele>229.65</ele>
        <time>2025-01-04T13:56:01.113Z</time>
      </trkpt>
      <trkpt lat="48.29656" lon="5.14775">
        <ele>229.05</ele>
        <time>2025-01-04T13:56:03.125Z</time>
      </trkpt>
      <trkpt lat="48.29678" lon="5.14772">
        <ele>228.42</ele>
        <time>2025-01-04T13:56:05.140Z</time>
      </trkpt>
      <trkpt lat="48.29699" lon="5.14769">
        <ele>227.75</ele>
        <time>2025-01-04T13:56:07.159Z</time>
      </trkpt>
      <trkpt lat="48.2972" lon="5.14768">
        <ele>227.05</ele>
        <time>2025-01-04T13:56:09.181Z</time>
      </trkpt>
      <trkpt lat="48.29741" lon="5.14768">
        <ele>226.4</ele>
        <time>2025-01-04T13:56:11.206Z</time>
      </trkpt>
      <trkpt lat="48.2976" lon="5.14777">
        <ele>225.75</ele>
        <time>2025-01-04T13:56:13.235Z</time>
      </trkpt>
      <trkpt lat="48.2978" lon="5.14786">
        <ele>225.07</ele>
        <time>2025-01-04T13:56:15.267Z</time>
      </trkpt>
      <trkpt lat="48.29803" lon="5.14798">
        <ele>224.36</ele>
        <time>2025-01-04T13:56:17.303Z</time>
      </trkpt>
      <trkpt lat="48.29825" lon="5.1481">
        <ele>223.64</ele>
        <time>2025-01-04T13:56:19.343Z</time>
      </trkpt>
      <trkpt lat="48.29843" lon="5.14823">
        <ele>222.95</ele>
        <time>2025-01-04T13:56:21.386Z</time>
      </trkpt>
      <trkpt lat="48.29852" lon="5.14837">
        <ele>222.27</ele>
        <time>2025-01-04T13:56:23.431Z</time>
      </trkpt>
      <trkpt lat="48.29875" lon="5.14866">
        <ele>221.57</ele>
        <time>2025-01-04T13:56:25.481Z</time>
      </trkpt>
      <trkpt lat="48.29886" lon="5.14877">
        <ele>220.89</ele>
        <time>2025-01-04T13:56:27.533Z</time>
      </trkpt>
      <trkpt lat="48.2989" lon="5.14877">
        <ele>220.25</ele>
        <time>2025-01-04T13:56:29.585Z</time>
      </trkpt>
      <trkpt lat="48.29906" lon="5.14853">
        <ele>219.61</ele>
        <time>2025-01-04T13:56:31.641Z</time>
      </trkpt>
      <trkpt lat="48.29921" lon="5.14826">
        <ele>219.04</ele>
        <time>2025-01-04T13:56:33.701Z</time>
      </trkpt>
      <trkpt lat="48.29936" lon="5.14797">
        <ele>218.44</ele>
        <time>2025-01-04T13:56:35.765Z</time>
      </trkpt>
      <trkpt lat="48.29952" lon="5.14768">
        <ele>217.9</ele>
        <time>2025-01-04T13:56:37.833Z</time>
      </trkpt>
      <trkpt lat="48.2996" lon="5.14755">
        <ele>217.42</ele>
        <time>2025-01-04T13:56:39.903Z</time>
      </trkpt>
      <trkpt lat="48.2997" lon="5.14759">
        <ele>216.98</ele>
        <time>2025-01-04T13:56:41.974Z</time>
      </trkpt>
      <trkpt lat="48.2998" lon="5.14762">
        <ele>216.61</ele>
        <time>2025-01-04T13:56:44.047Z</time>
      </trkpt>
      <trkpt lat="48.29985" lon="5.14762">
        <ele>216.3</ele>
        <time>2025-01-04T13:56:46.121Z</time>
      </trkpt>
      <trkpt lat="48.30003" lon="5.14759">
        <ele>216.02</ele>
        <time>2025-01-04T13:56:48.198Z</time>
      </trkpt>
      <trkpt lat="48.30016" lon="5.14763">
        <ele>215.83</ele>
        <time>2025-01-04T13:56:50.277Z</time>
      </trkpt>
      <trkpt lat="48.30029" lon="5.14767">
        <ele>215.71</ele>
        <time>2025-01-04T13:56:52.358Z</time>
      </trkpt>
      <trkpt lat="48.30048" lon="5.14771">
        <ele>215.66</ele>
        <time>2025-01-04T13:56:54.442Z</time>
      </trkpt>
      <trkpt lat="48.30067" lon="5.14776">
        <ele>215.68</ele>
        <time>2025-01-04T13:56:56.529Z</time>
      </trkpt>
      <trkpt lat="48.30087" lon="5.14779">
        <ele>215.8</ele>
        <time>2025-01-04T13:56:58.619Z</time>
      </trkpt>
      <trkpt lat="48.30106" lon="5.14782">
        <ele>216.02</ele>
        <time>2025-01-04T13:57:00.712Z</time>
      </trkpt>
      <trkpt lat="48.30126" lon="5.1478">
        <ele>216.37</ele>
        <time>2025-01-04T13:57:02.809Z</time>
      </trkpt>
      <trkpt lat="48.30146" lon="5.14777">
        <ele>216.8</ele>
        <time>2025-01-04T13:57:04.909Z</time>
      </trkpt>
      <trkpt lat="48.30163" lon="5.14775">
        <ele>217.28</ele>
        <time>2025-01-04T13:57:07.011Z</time>
      </trkpt>
      <trkpt lat="48.30179" lon="5.14772">
        <ele>217.84</ele>
        <time>2025-01-04T13:57:09.116Z</time>
      </trkpt>
      <trkpt lat="48.3021" lon="5.14779">
        <ele>218.68</ele>
        <time>2025-01-04T13:57:11.226Z</time>
      </trkpt>
      <trkpt lat="48.30221" lon="5.14786">
        <ele>219.58</ele>
        <time>2025-01-04T13:57:13.338Z</time>
      </trkpt>
      <trkpt lat="48.30229" lon="5.14788">
        <ele>220.54</ele>
        <time>2025-01-04T13:57:15.451Z</time>
      </trkpt>
      <trkpt lat="48.30243" lon="5.14785">
        <ele>221.57</ele>
        <time>2025-01-04T13:57:17.567Z</time>
      </trkpt>
      <trkpt lat="48.30247" lon="5.14781">
        <ele>222.52</ele>
        <time>2025-01-04T13:57:19.683Z</time>
      </trkpt>
      <trkpt lat="48.30247" lon="5.14781">
        <ele>223.48</ele>
        <time>2025-01-04T13:57:21.799Z</time>
      </trkpt>
      <trkpt lat="48.30251" lon="5.14778">
        <ele>224.54</ele>
        <time>2025-01-04T13:57:23.916Z</time>
      </trkpt>
      <trkpt lat="48.30266" lon="5.14746">
        <ele>225.51</ele>
        <time>2025-01-04T13:57:26.037Z</time>
      </trkpt>
      <trkpt lat="48.30281" lon="5.14714">
        <ele>226.64</ele>
        <time>2025-01-04T13:57:28.162Z</time>
      </trkpt>
      <trkpt lat="48.303" lon="5.14683">
        <ele>227.8</ele>
        <time>2025-01-04T13:57:30.292Z</time>
      </trkpt>
      <trkpt lat="48.30319" lon="5.14652">
        <ele>228.94</ele>
        <time>2025-01-04T13:57:32.426Z</time>
      </trkpt>
      <trkpt lat="48.30332" lon="5.14639">
        <ele>230.11</ele>
        <time>2025-01-04T13:57:34.563Z</time>
      </trkpt>
      <trkpt lat="48.30349" lon="5.14634">
        <ele>231.41</ele>
        <time>2025-01-04T13:57:36.703Z</time>
      </trkpt>
      <trkpt lat="48.30371" lon="5.14637">
        <ele>232.85</ele>
        <time>2025-01-04T13:57:38.846Z</time>
      </trkpt>
      <trkpt lat="48.3039" lon="5.14643">
        <ele>234.4</ele>
        <time>2025-01-04T13:57:40.992Z</time>
      </trkpt>
      <trkpt lat="48.30405" lon="5.1466">
        <ele>236.07</ele>
        <time>2025-01-04T13:57:43.141Z</time>
      </trkpt>
      <trkpt lat="48.3042" lon="5.14692">
        <ele>237.94</ele>
        <time>2025-01-04T13:57:45.295Z</time>
      </trkpt>
      <trkpt lat="48.30429" lon="5.14733">
        <ele>239.81</ele>
        <time>2025-01-04T13:57:47.453Z</time>
      </trkpt>
      <trkpt lat="48.30431" lon="5.14767">
        <ele>241.56</ele>
        <time>2025-01-04T13:57:49.615Z</time>
      </trkpt>
      <trkpt lat="48.30429" lon="5.14806">
        <ele>243.24</ele>
        <time>2025-01-04T13:57:51.781Z</time>
      </trkpt>
      <trkpt lat="48.3042" lon="5.14847">
        <ele>245.04</ele>
        <time>2025-01-04T13:57:53.952Z</time>
      </trkpt>
      <trkpt lat="48.30407" lon="5.1489">
        <ele>246.98</ele>
        <time>2025-01-04T13:57:56.128Z</time>
      </trkpt>
      <trkpt lat="48.30394" lon="5.14933">
        <ele>248.97</ele>
        <time>2025-01-04T13:57:58.309Z</time>
      </trkpt>
      <trkpt lat="48.30382" lon="5.14976">
        <ele>250.77</ele>
        <time>2025-01-04T13:58:00.495Z</time>
      </trkpt>
      <trkpt lat="48.30382" lon="5.14988">
        <ele>252.46</ele>
        <time>2025-01-04T13:58:02.682Z</time>
      </trkpt>
      <trkpt lat="48.30386" lon="5.15018">
        <ele>254.14</ele>
        <time>2025-01-04T13:58:04.872Z</time>
      </trkpt>
      <trkpt lat="48.30401" lon="5.15029">
        <ele>255.92</ele>
        <time>2025-01-04T13:58:07.065Z</time>
      </trkpt>
      <trkpt lat="48.30414" lon="5.15025">
        <ele>257.58</ele>
        <time>2025-01-04T13:58:09.260Z</time>
      </trkpt>
      <trkpt lat="48.30418" lon="5.15018">
        <ele>259.18</ele>
        <time>2025-01-04T13:58:11.456Z</time>
      </trkpt>
      <trkpt lat="48.30435" lon="5.14984">
        <ele>260.74</ele>
        <time>2025-01-04T13:58:13.657Z</time>
      </trkpt>
      <trkpt lat="48.30452" lon="5.1495">
        <ele>262.3</ele>
        <time>2025-01-04T13:58:15.862Z</time>
      </trkpt>
      <trkpt lat="48.30464" lon="5.1493">
        <ele>263.78</ele>
        <time>2025-01-04T13:58:18.070Z</time>
      </trkpt>
      <trkpt lat="48.30476" lon="5.14911">
        <ele>265.23</ele>
        <time>2025-01-04T13:58:20.281Z</time>
      </trkpt>
      <trkpt lat="48.30499" lon="5.14884">
        <ele>266.67</ele>
        <time>2025-01-04T13:58:22.496Z</time>
      </trkpt>
      <trkpt lat="48.30521" lon="5.14858">
        <ele>268.08</ele>
        <time>2025-01-04T13:58:24.716Z</time>
      </trkpt>
      <trkpt lat="48.30544" lon="5.14839">
        <ele>269.64</ele>
        <time>2025-01-04T13:58:26.940Z</time>
      </trkpt>
      <trkpt lat="48.30566" lon="5.14821">
        <ele>271.03</ele>
        <time>2025-01-04T13:58:29.168Z</time>
      </trkpt>
      <trkpt lat="48.30594" lon="5.14815">
        <ele>272.32</ele>
        <time>2025-01-04T13:58:31.401Z</time>
      </trkpt>
      <trkpt lat="48.3061" lon="5.14816">
        <ele>273.55</ele>
        <time>2025-01-04T13:58:33.636Z</time>
      </trkpt>
      <trkpt lat="48.30626" lon="5.14817">
        <ele>274.72</ele>
        <time>2025-01-04T13:58:35.874Z</time>
      </trkpt>
      <trkpt lat="48.30656" lon="5.1483">
        <ele>275.99</ele>
        <time>2025-01-04T13:58:38.117Z</time>
      </trkpt>
      <trkpt lat="48.30686" lon="5.14843">
        <ele>277.16</ele>
        <time>2025-01-04T13:58:40.365Z</time>
      </trkpt>
      <trkpt lat="48.30716" lon="5.14855">
        <ele>278.45</ele>
        <time>2025-01-04T13:58:42.618Z</time>
      </trkpt>
      <trkpt lat="48.30736" lon="5.14861">
        <ele>279.6</ele>
        <time>2025-01-04T13:58:44.874Z</time>
      </trkpt>
      <trkpt lat="48.30755" lon="5.14866">
        <ele>280.69</ele>
        <time>2025-01-04T13:58:47.133Z</time>
      </trkpt>
      <trkpt lat="48.30782" lon="5.14867">
        <ele>281.72</ele>
        <time>2025-01-04T13:58:49.396Z</time>
      </trkpt>
      <trkpt lat="48.30809" lon="5.14868">
        <ele>282.83</ele>
        <time>2025-01-04T13:58:51.664Z</time>
      </trkpt>
      <trkpt lat="48.30815" lon="5.14873">
        <ele>283.9</ele>
        <time>2025-01-04T13:58:53.933Z</time>
      </trkpt>
      <trkpt lat="48.30815" lon="5.14885">
        <ele>284.96</ele>
        <time>2025-01-04T13:58:56.203Z</time>
      </trkpt>
      <trkpt lat="48.30811" lon="5.14896">
        <ele>285.97</ele>
        <time>2025-01-04T13:58:58.475Z</time>
      </trkpt>
      <trkpt lat="48.30802" lon="5.14898">
        <ele>286.89</ele>
        <time>2025-01-04T13:59:00.748Z</time>
      </trkpt>
      <trkpt lat="48.30786" lon="5.14896">
        <ele>287.8</ele>
        <time>2025-01-04T13:59:03.024Z</time>
      </trkpt>
      <trkpt lat="48.3077" lon="5.14894">
        <ele>288.73</ele>
        <time>2025-01-04T13:59:05.302Z</time>
      </trkpt>
      <trkpt lat="48.30749" lon="5.14894">
        <ele>289.78</ele>
        <time>2025-01-04T13:59:07.584Z</time>
      </trkpt>
      <trkpt lat="48.30719" lon="5.14896">
        <ele>290.83</ele>
        <time>2025-01-04T13:59:09.870Z</time>
      </trkpt>
      <trkpt lat="48.30688" lon="5.14898">
        <ele>291.75</ele>
        <time>2025-01-04T13:59:12.161Z</time>
      </trkpt>
      <trkpt lat="48.30667" lon="5.14903">
        <ele>292.83</ele>
        <time>2025-01-04T13:59:14.456Z</time>
      </trkpt>
      <trkpt lat="48.30639" lon="5.14913">
        <ele>294.09</ele>
        <time>2025-01-04T13:59:16.755Z</time>
      </trkpt>
      <trkpt lat="48.30618" lon="5.14928">
        <ele>295.28</ele>
        <time>2025-01-04T13:59:19.058Z</time>
      </trkpt>
      <trkpt lat="48.30598" lon="5.14943">
        <ele>296.4</ele>
        <time>2025-01-04T13:59:21.365Z</time>
      </trkpt>
      <trkpt lat="48.30577" lon="5.14958">
        <ele>297.59</ele>
        <time>2025-01-04T13:59:23.675Z</time>
      </trkpt>
      <trkpt lat="48.30558" lon="5.14977">
        <ele>298.84</ele>
        <time>2025-01-04T13:59:25.989Z</time>
      </trkpt>
      <trkpt lat="48.30538" lon="5.14995">
        <ele>300.07</ele>
        <time>2025-01-04T13:59:28.307Z</time>
      </trkpt>
      <trkpt lat="48.30525" lon="5.15014">
        <ele>301.36</ele>
        <time>2025-01-04T13:59:30.628Z</time>
      </trkpt>
      <trkpt lat="48.30513" lon="5.15033">
        <ele>302.65</ele>
        <time>2025-01-04T13:59:32.952Z</time>
      </trkpt>
      <trkpt lat="48.30505" lon="5.1506">
        <ele>304.12</ele>
        <time>2025-01-04T13:59:35.279Z</time>
      </trkpt>
      <trkpt lat="48.30498" lon="5.15087">
        <ele>305.51</ele>
        <time>2025-01-04T13:59:37.609Z</time>
      </trkpt>
      <trkpt lat="48.30495" lon="5.15112">
        <ele>307.02</ele>
        <time>2025-01-04T13:59:39.941Z</time>
      </trkpt>
      <trkpt lat="48.30493" lon="5.15136">
        <ele>308.55</ele>
        <time>2025-01-04T13:59:42.276Z</time>
      </trkpt>
      <trkpt lat="48.30492" lon="5.15162">
        <ele>310.13</ele>
        <time>2025-01-04T13:59:44.614Z</time>
      </trkpt>
      <trkpt lat="48.30491" lon="5.15188">
        <ele>311.78</ele>
        <time>2025-01-04T13:59:46.955Z</time>
      </trkpt>
      <trkpt lat="48.30494" lon="5.15218">
        <ele>313.5</ele>
        <time>2025-01-04T13:59:49.299Z</time>
      </trkpt>
      <trkpt lat="48.30498" lon="5.15248">
        <ele>315.23</ele>
        <time>2025-01-04T13:59:51.646Z</time>
      </trkpt>
      <trkpt lat="48.30503" lon="5.15278">
        <ele>317.03</ele>
        <time>2025-01-04T13:59:53.996Z</time>
      </trkpt>
      <trkpt lat="48.30508" lon="5.15308">
        <ele>318.92</ele>
        <time>2025-01-04T13:59:56.350Z</time>
      </trkpt>
      <trkpt lat="48.30519" lon="5.15346">
        <ele>320.84</ele>
        <time>2025-01-04T13:59:58.708Z</time>
      </trkpt>
      <trkpt lat="48.3053" lon="5.15383">
        <ele>322.73</ele>
        <time>2025-01-04T14:00:01.070Z</time>
      </trkpt>
      <trkpt lat="48.3054" lon="5.15412">
        <ele>324.68</ele>
        <time>2025-01-04T14:00:03.436Z</time>
      </trkpt>
      <trkpt lat="48.3055" lon="5.15441">
        <ele>326.62</ele>
        <time>2025-01-04T14:00:05.805Z</time>
      </trkpt>
      <trkpt lat="48.3056" lon="5.15469">
        <ele>328.48</ele>
        <time>2025-01-04T14:00:08.178Z</time>
      </trkpt>
      <trkpt lat="48.30575" lon="5.15509">
        <ele>330.28</ele>
        <time>2025-01-04T14:00:10.556Z</time>
      </trkpt>
      <trkpt lat="48.30591" lon="5.15549">
        <ele>332.08</ele>
        <time>2025-01-04T14:00:12.939Z</time>
      </trkpt>
      <trkpt lat="48.30606" lon="5.15588">
        <ele>333.9</ele>
        <time>2025-01-04T14:00:15.327Z</time>
      </trkpt>
      <trkpt lat="48.30622" lon="5.15628">
        <ele>335.59</ele>
        <time>2025-01-04T14:00:17.719Z</time>
      </trkpt>
      <trkpt lat="48.30631" lon="5.1566">
        <ele>337.13</ele>
        <time>2025-01-04T14:00:20.115Z</time>
      </trkpt>
      <trkpt lat="48.30638" lon="5.15705">
        <ele>338.62</ele>
        <time>2025-01-04T14:00:22.516Z</time>
      </trkpt>
      <trkpt lat="48.30646" lon="5.1575">
        <ele>340.05</ele>
        <time>2025-01-04T14:00:24.922Z</time>
      </trkpt>
      <trkpt lat="48.30654" lon="5.15796">
        <ele>341.43</ele>
        <time>2025-01-04T14:00:27.333Z</time>
      </trkpt>
      <trkpt lat="48.30662" lon="5.15842">
        <ele>342.64</ele>
        <time>2025-01-04T14:00:29.749Z</time>
      </trkpt>
      <trkpt lat="48.3067" lon="5.15887">
        <ele>343.63</ele>
        <time>2025-01-04T14:00:32.170Z</time>
      </trkpt>
      <trkpt lat="48.30678" lon="5.15933">
        <ele>344.53</ele>
        <time>2025-01-04T14:00:34.596Z</time>
      </trkpt>
      <trkpt lat="48.30683" lon="5.15968">
        <ele>345.39</ele>
        <time>2025-01-04T14:00:37.026Z</time>
      </trkpt>
      <trkpt lat="48.30689" lon="5.16003">
        <ele>346.19</ele>
        <time>2025-01-04T14:00:39.460Z</time>
      </trkpt>
      <trkpt lat="48.30695" lon="5.16038">
        <ele>346.87</ele>
        <time>2025-01-04T14:00:41.898Z</time>
      </trkpt>
      <trkpt lat="48.30706" lon="5.16081">
        <ele>347.47</ele>
        <time>2025-01-04T14:00:44.341Z</time>
      </trkpt>
      <trkpt lat="48.30723" lon="5.16119">
        <ele>347.97</ele>
        <time>2025-01-04T14:00:46.789Z</time>
      </trkpt>
      <trkpt lat="48.30744" lon="5.16145">
        <ele>348.41</ele>
        <time>2025-01-04T14:00:49.241Z</time>
      </trkpt>
      <trkpt lat="48.30759" lon="5.16157">
        <ele>348.69</ele>
        <time>2025-01-04T14:00:51.696Z</time>
      </trkpt>
      <trkpt lat="48.30774" lon="5.16169">
        <ele>348.92</ele>
        <time>2025-01-04T14:00:54.153Z</time>
      </trkpt>
      <trkpt lat="48.30798" lon="5.16188">
        <ele>349.06</ele>
        <time>2025-01-04T14:00:56.615Z</time>
      </trkpt>
      <trkpt lat="48.30822" lon="5.16208">
        <ele>349.18</ele>
        <time>2025-01-04T14:00:59.081Z</time>
      </trkpt>
      <trkpt lat="48.30846" lon="5.16227">
        <ele>349.29</ele>
        <time>2025-01-04T14:01:01.552Z</time>
      </trkpt>
      <trkpt lat="48.3087" lon="5.16247">
        <ele>349.37</ele>
        <time>2025-01-04T14:01:04.027Z</time>
      </trkpt>
      <trkpt lat="48.30894" lon="5.16267">
        <ele>349.35</ele>
        <time>2025-01-04T14:01:06.506Z</time>
      </trkpt>
      <trkpt lat="48.30918" lon="5.16286">
        <ele>349.2</ele>
        <time>2025-01-04T14:01:08.990Z</time>
      </trkpt>
      <trkpt lat="48.30942" lon="5.16306">
        <ele>349.02</ele>
        <time>2025-01-04T14:01:11.478Z</time>
      </trkpt>
      <trkpt lat="48.30965" lon="5.16321">
        <ele>348.85</ele>
        <time>2025-01-04T14:01:13.970Z</time>
      </trkpt>
      <trkpt lat="48.30993" lon="5.1633">
        <ele>348.65</ele>
        <time>2025-01-04T14:01:16.467Z</time>
      </trkpt>
      <trkpt lat="48.31017" lon="5.1633">
        <ele>348.34</ele>
        <time>2025-01-04T14:01:18.968Z</time>
      </trkpt>
      <trkpt lat="48.31041" lon="5.1633">
        <ele>347.99</ele>
        <time>2025-01-04T14:01:21.472Z</time>
      </trkpt>
      <trkpt lat="48.31066" lon="5.1633">
        <ele>347.64</ele>
        <time>2025-01-04T14:01:23.980Z</time>
      </trkpt>
      <trkpt lat="48.3109" lon="5.1633">
        <ele>347.29</ele>
        <time>2025-01-04T14:01:26.492Z</time>
      </trkpt>
      <trkpt lat="48.31118" lon="5.16336">
        <ele>346.91</ele>
        <time>2025-01-04T14:01:29.009Z</time>
      </trkpt>
      <trkpt lat="48.31137" lon="5.16345">
        <ele>346.52</ele>
        <time>2025-01-04T14:01:31.529Z</time>
      </trkpt>
      <trkpt lat="48.31163" lon="5.16361">
        <ele>346.11</ele>
        <time>2025-01-04T14:01:34.053Z</time>
      </trkpt>
      <trkpt lat="48.31188" lon="5.16377">
        <ele>345.61</ele>
        <time>2025-01-04T14:01:36.582Z</time>
      </trkpt>
      <trkpt lat="48.31214" lon="5.16393">
        <ele>345.11</ele>
        <time>2025-01-04T14:01:39.115Z</time>
      </trkpt>
      <trkpt lat="48.3124" lon="5.16409">
        <ele>344.62</ele>
        <time>2025-01-04T14:01:41.653Z</time>
      </trkpt>
      <trkpt lat="48.31266" lon="5.16433">
        <ele>344.13</ele>
        <time>2025-01-04T14:01:44.196Z</time>
      </trkpt>
      <trkpt lat="48.31286" lon="5.16457">
        <ele>343.58</ele>
        <time>2025-01-04T14:01:46.743Z</time>
      </trkpt>
      <trkpt lat="48.31306" lon="5.16482">
        <ele>343.04</ele>
        <time>2025-01-04T14:01:49.294Z</time>
      </trkpt>
      <trkpt lat="48.31326" lon="5.16507">
        <ele>342.49</ele>
        <time>2025-01-04T14:01:51.849Z</time>
      </trkpt>
      <trkpt lat="48.31346" lon="5.16532">
        <ele>341.92</ele>
        <time>2025-01-04T14:01:54.408Z</time>
      </trkpt>
      <trkpt lat="48.31367" lon="5.16557">
        <ele>341.31</ele>
        <time>2025-01-04T14:01:56.972Z</time>
      </trkpt>
      <trkpt lat="48.31385" lon="5.16586">
        <ele>340.68</ele>
        <time>2025-01-04T14:01:59.540Z</time>
      </trkpt>
      <trkpt lat="48.31403" lon="5.16615">
        <ele>340</ele>
        <time>2025-01-04T14:02:02.112Z</time>
      </trkpt>
      <trkpt lat="48.31424" lon="5.16643">
        <ele>339.28</ele>
        <time>2025-01-04T14:02:04.689Z</time>
      </trkpt>
      <trkpt lat="48.31447" lon="5.16663">
        <ele>338.54</ele>
        <time>2025-01-04T14:02:07.270Z</time>
      </trkpt>
      <trkpt lat="48.31469" lon="5.16683">
        <ele>337.78</ele>
        <time>2025-01-04T14:02:09.855Z</time>
      </trkpt>
      <trkpt lat="48.31491" lon="5.16703">
        <ele>336.95</ele>
        <time>2025-01-04T14:02:12.444Z</time>
      </trkpt>
      <trkpt lat="48.31517" lon="5.16724">
        <ele>336.11</ele>
        <time>2025-01-04T14:02:15.038Z</time>
      </trkpt>
      <trkpt lat="48.31542" lon="5.16746">
        <ele>335.23</ele>
        <time>2025-01-04T14:02:17.636Z</time>
      </trkpt>
      <trkpt lat="48.31569" lon="5.16761">
        <ele>334.37</ele>
        <time>2025-01-04T14:02:20.239Z</time>
      </trkpt>
      <trkpt lat="48.31595" lon="5.16777">
        <ele>333.45</ele>
        <time>2025-01-04T14:02:22.847Z</time>
      </trkpt>
      <trkpt lat="48.31622" lon="5.16792">
        <ele>332.44</ele>
        <time>2025-01-04T14:02:25.459Z</time>
      </trkpt>
      <trkpt lat="48.31648" lon="5.16807">
        <ele>331.36</ele>
        <time>2025-01-04T14:02:28.076Z</time>
      </trkpt>
      <trkpt lat="48.31675" lon="5.16823">
        <ele>330.29</ele>
        <time>2025-01-04T14:02:30.697Z</time>
      </trkpt>
      <trkpt lat="48.31701" lon="5.16838">
        <ele>329.18</ele>
        <time>2025-01-04T14:02:33.323Z</time>
      </trkpt>
      <trkpt lat="48.31723" lon="5.16861">
        <ele>328.01</ele>
        <time>2025-01-04T14:02:35.953Z</time>
      </trkpt>
      <trkpt lat="48.31744" lon="5.16883">
        <ele>326.85</ele>
        <time>2025-01-04T14:02:38.587Z</time>
      </trkpt>
      <trkpt lat="48.31761" lon="5.16906">
        <ele>325.74</ele>
        <time>2025-01-04T14:02:41.225Z</time>
      </trkpt>
      <trkpt lat="48.31779" lon="5.16928">
        <ele>324.61</ele>
        <time>2025-01-04T14:02:43.866Z</time>
      </trkpt>
      <trkpt lat="48.31796" lon="5.16963">
        <ele>323.45</ele>
        <time>2025-01-04T14:02:46.512Z</time>
      </trkpt>
      <trkpt lat="48.31807" lon="5.17004">
        <ele>322.21</ele>
        <time>2025-01-04T14:02:49.163Z</time>
      </trkpt>
      <trkpt lat="48.31818" lon="5.17045">
        <ele>320.77</ele>
        <time>2025-01-04T14:02:51.818Z</time>
      </trkpt>
      <trkpt lat="48.31829" lon="5.17086">
        <ele>319.18</ele>
        <time>2025-01-04T14:02:54.478Z</time>
      </trkpt>
      <trkpt lat="48.3184" lon="5.17127">
        <ele>317.47</ele>
        <time>2025-01-04T14:02:57.143Z</time>
      </trkpt>
      <trkpt lat="48.31851" lon="5.17168">
        <ele>315.68</ele>
        <time>2025-01-04T14:02:59.813Z</time>
      </trkpt>
      <trkpt lat="48.31862" lon="5.1721">
        <ele>313.88</ele>
        <time>2025-01-04T14:03:02.487Z</time>
      </trkpt>
      <trkpt lat="48.31873" lon="5.1725">
        <ele>312</ele>
        <time>2025-01-04T14:03:05.166Z</time>
      </trkpt>
      <trkpt lat="48.31889" lon="5.17287">
        <ele>309.98</ele>
        <time>2025-01-04T14:03:07.850Z</time>
      </trkpt>
      <trkpt lat="48.31904" lon="5.17323">
        <ele>307.95</ele>
        <time>2025-01-04T14:03:10.538Z</time>
      </trkpt>
      <trkpt lat="48.3192" lon="5.17359">
        <ele>305.76</ele>
        <time>2025-01-04T14:03:13.231Z</time>
      </trkpt>
      <trkpt lat="48.31933" lon="5.17395">
        <ele>303.46</ele>
        <time>2025-01-04T14:03:15.928Z</time>
      </trkpt>
      <trkpt lat="48.31946" lon="5.17431">
        <ele>301.09</ele>
        <time>2025-01-04T14:03:18.630Z</time>
      </trkpt>
      <trkpt lat="48.31959" lon="5.17467">
        <ele>298.63</ele>
        <time>2025-01-04T14:03:21.336Z</time>
      </trkpt>
      <trkpt lat="48.31972" lon="5.17503">
        <ele>296.13</ele>
        <time>2025-01-04T14:03:24.046Z</time>
      </trkpt>
      <trkpt lat="48.31985" lon="5.17539">
        <ele>293.54</ele>
        <time>2025-01-04T14:03:26.761Z</time>
      </trkpt>
      <trkpt lat="48.31997" lon="5.17574">
        <ele>290.81</ele>
        <time>2025-01-04T14:03:29.480Z</time>
      </trkpt>
      <trkpt lat="48.3201" lon="5.17612">
        <ele>288.19</ele>
        <time>2025-01-04T14:03:32.204Z</time>
      </trkpt>
      <trkpt lat="48.32023" lon="5.1765">
        <ele>285.6</ele>
        <time>2025-01-04T14:03:34.932Z</time>
      </trkpt>
      <trkpt lat="48.32036" lon="5.17689">
        <ele>282.91</ele>
        <time>2025-01-04T14:03:37.665Z</time>
      </trkpt>
      <trkpt lat="48.32049" lon="5.17726">
        <ele>280.11</ele>
        <time>2025-01-04T14:03:40.402Z</time>
      </trkpt>
      <trkpt lat="48.32059" lon="5.17771">
        <ele>277.39</ele>
        <time>2025-01-04T14:03:43.144Z</time>
      </trkpt>
      <trkpt lat="48.32069" lon="5.17815">
        <ele>274.58</ele>
        <time>2025-01-04T14:03:45.891Z</time>
      </trkpt>
      <trkpt lat="48.3208" lon="5.17859">
        <ele>271.68</ele>
        <time>2025-01-04T14:03:48.643Z</time>
      </trkpt>
      <trkpt lat="48.3209" lon="5.17902">
        <ele>268.94</ele>
        <time>2025-01-04T14:03:51.400Z</time>
      </trkpt>
      <trkpt lat="48.32104" lon="5.17943">
        <ele>266.21</ele>
        <time>2025-01-04T14:03:54.162Z</time>
      </trkpt>
      <trkpt lat="48.32118" lon="5.17983">
        <ele>263.52</ele>
        <time>2025-01-04T14:03:56.929Z</time>
      </trkpt>
      <trkpt lat="48.32132" lon="5.18023">
        <ele>260.76</ele>
        <time>2025-01-04T14:03:59.701Z</time>
      </trkpt>
      <trkpt lat="48.32146" lon="5.18063">
        <ele>258.06</ele>
        <time>2025-01-04T14:04:02.478Z</time>
      </trkpt>
      <trkpt lat="48.3216" lon="5.18103">
        <ele>255.34</ele>
        <time>2025-01-04T14:04:05.259Z</time>
      </trkpt>
      <trkpt lat="48.32173" lon="5.18143">
        <ele>252.56</ele>
        <time>2025-01-04T14:04:08.045Z</time>
      </trkpt>
      <trkpt lat="48.32181" lon="5.18173">
        <ele>249.98</ele>
        <time>2025-01-04T14:04:10.835Z</time>
      </trkpt>
      <trkpt lat="48.32188" lon="5.18203">
        <ele>247.45</ele>
        <time>2025-01-04T14:04:13.628Z</time>
      </trkpt>
      <trkpt lat="48.32195" lon="5.18233">
        <ele>244.98</ele>
        <time>2025-01-04T14:04:16.424Z</time>
      </trkpt>
      <trkpt lat="48.32198" lon="5.18263">
        <ele>242.5</ele>
        <time>2025-01-04T14:04:19.224Z</time>
      </trkpt>
      <trkpt lat="48.32201" lon="5.18293">
        <ele>240.13</ele>
        <time>2025-01-04T14:04:22.027Z</time>
      </trkpt>
      <trkpt lat="48.32201" lon="5.18331">
        <ele>237.79</ele>
        <time>2025-01-04T14:04:24.834Z</time>
      </trkpt>
      <trkpt lat="48.32201" lon="5.18368">
        <ele>235.55</ele>
        <time>2025-01-04T14:04:27.645Z</time>
      </trkpt>
      <trkpt lat="48.32197" lon="5.18414">
        <ele>233.38</ele>
        <time>2025-01-04T14:04:30.461Z</time>
      </trkpt>
      <trkpt lat="48.32194" lon="5.18459">
        <ele>231.37</ele>
        <time>2025-01-04T14:04:33.282Z</time>
      </trkpt>
      <trkpt lat="48.3219" lon="5.18505">
        <ele>229.34</ele>
        <time>2025-01-04T14:04:36.108Z</time>
      </trkpt>
      <trkpt lat="48.32186" lon="5.1855">
        <ele>227.47</ele>
        <time>2025-01-04T14:04:38.938Z</time>
      </trkpt>
      <trkpt lat="48.32187" lon="5.18586">
        <ele>225.89</ele>
        <time>2025-01-04T14:04:41.772Z</time>
      </trkpt>
      <trkpt lat="48.32188" lon="5.18621">
        <ele>224.49</ele>
        <time>2025-01-04T14:04:44.610Z</time>
      </trkpt>
      <trkpt lat="48.32192" lon="5.1865">
        <ele>223.31</ele>
        <time>2025-01-04T14:04:47.451Z</time>
      </trkpt>
      <trkpt lat="48.32195" lon="5.18679">
        <ele>222.3</ele>
        <time>2025-01-04T14:04:50.295Z</time>
      </trkpt>
      <trkpt lat="48.32204" lon="5.18716">
        <ele>221.4</ele>
        <time>2025-01-04T14:04:53.144Z</time>
      </trkpt>
      <trkpt lat="48.32213" lon="5.18754">
        <ele>220.58</ele>
        <time>2025-01-04T14:04:55.997Z</time>
      </trkpt>
      <trkpt lat="48.32223" lon="5.18791">
        <ele>219.95</ele>
        <time>2025-01-04T14:04:58.854Z</time>
      </trkpt>
      <trkpt lat="48.3223" lon="5.18824">
        <ele>219.46</ele>
        <time>2025-01-04T14:05:01.715Z</time>
      </trkpt>
      <trkpt lat="48.32238" lon="5.18857">
        <ele>219.01</ele>
        <time>2025-01-04T14:05:04.580Z</time>
      </trkpt>
      <trkpt lat="48.32244" lon="5.18887">
        <ele>218.69</ele>
        <time>2025-01-04T14:05:07.448Z</time>
      </trkpt>
      <trkpt lat="48.32251" lon="5.18932">
        <ele>218.52</ele>
        <time>2025-01-04T14:05:10.321Z</time>
      </trkpt>
      <trkpt lat="48.3225" lon="5.18961">
        <ele>218.37</ele>
        <time>2025-01-04T14:05:13.197Z</time>
      </trkpt>
      <trkpt lat="48.32248" lon="5.1899">
        <ele>218.21</ele>
        <time>2025-01-04T14:05:16.076Z</time>
      </trkpt>
      <trkpt lat="48.32243" lon="5.19024">
        <ele>218.19</ele>
        <time>2025-01-04T14:05:18.959Z</time>
      </trkpt>
      <trkpt lat="48.32238" lon="5.19057">
        <ele>218.18</ele>
        <time>2025-01-04T14:05:21.845Z</time>
      </trkpt>
      <trkpt lat="48.32232" lon="5.19084">
        <ele>218.22</ele>
        <time>2025-01-04T14:05:24.734Z</time>
      </trkpt>
      <trkpt lat="48.32227" lon="5.1911">
        <ele>218.27</ele>
        <time>2025-01-04T14:05:27.626Z</time>
      </trkpt>
      <trkpt lat="48.32216" lon="5.19144">
        <ele>218.35</ele>
        <time>2025-01-04T14:05:30.522Z</time>
      </trkpt>
      <trkpt lat="48.32206" lon="5.19177">
        <ele>218.51</ele>
        <time>2025-01-04T14:05:33.422Z</time>
      </trkpt>
      <trkpt lat="48.32192" lon="5.19212">
        <ele>218.68</ele>
        <time>2025-01-04T14:05:36.327Z</time>
      </trkpt>
      <trkpt lat="48.32178" lon="5.19246">
        <ele>218.79</ele>
        <time>2025-01-04T14:05:39.236Z</time>
      </trkpt>
      <trkpt lat="48.32164" lon="5.19281">
        <ele>218.87</ele>
        <time>2025-01-04T14:05:42.149Z</time>
      </trkpt>
      <trkpt lat="48.3215" lon="5.19316">
        <ele>218.99</ele>
        <time>2025-01-04T14:05:45.067Z</time>
      </trkpt>
      <trkpt lat="48.32136" lon="5.19351">
        <ele>219.16</ele>
        <time>2025-01-04T14:05:47.989Z</time>
      </trkpt>
      <trkpt lat="48.32122" lon="5.19385">
        <ele>219.35</ele>
        <time>2025-01-04T14:05:50.915Z</time>
      </trkpt>
      <trkpt lat="48.32111" lon="5.19423">
        <ele>219.57</ele>
        <time>2025-01-04T14:05:53.846Z</time>
      </trkpt>
      <trkpt lat="48.321" lon="5.1946">
        <ele>219.7</ele>
        <time>2025-01-04T14:05:56.781Z</time>
      </trkpt>
      <trkpt lat="48.32095" lon="5.19489">
        <ele>219.82</ele>
        <time>2025-01-04T14:05:59.719Z</time>
      </trkpt>
      <trkpt lat="48.3209" lon="5.19518">
        <ele>220.01</ele>
        <time>2025-01-04T14:06:02.660Z</time>
      </trkpt>
      <trkpt lat="48.32086" lon="5.19556">
        <ele>220.17</ele>
        <time>2025-01-04T14:06:05.605Z</time>
      </trkpt>
      <trkpt lat="48.32083" lon="5.19593">
        <ele>220.32</ele>
        <time>2025-01-04T14:06:08.554Z</time>
      </trkpt>
      <trkpt lat="48.32088" lon="5.19623">
        <ele>220.41</ele>
        <time>2025-01-04T14:06:11.507Z</time>
      </trkpt>
      <trkpt lat="48.32092" lon="5.19653">
        <ele>220.48</ele>
        <time>2025-01-04T14:06:14.463Z</time>
      </trkpt>
      <trkpt lat="48.32103" lon="5.19697">
        <ele>220.58</ele>
        <time>2025-01-04T14:06:17.424Z</time>
      </trkpt>
      <trkpt lat="48.32113" lon="5.19741">
        <ele>220.72</ele>
        <time>2025-01-04T14:06:20.390Z</time>
      </trkpt>
      <trkpt lat="48.32122" lon="5.19776">
        <ele>220.84</ele>
        <time>2025-01-04T14:06:23.360Z</time>
      </trkpt>
      <trkpt lat="48.3213" lon="5.1981">
        <ele>220.87</ele>
        <time>2025-01-04T14:06:26.334Z</time>
      </trkpt>
      <trkpt lat="48.32139" lon="5.19844">
        <ele>220.88</ele>
        <time>2025-01-04T14:06:29.312Z</time>
      </trkpt>
      <trkpt lat="48.32139" lon="5.19883">
        <ele>220.88</ele>
        <time>2025-01-04T14:06:32.294Z</time>
      </trkpt>
      <trkpt lat="48.32133" lon="5.19907">
        <ele>221.01</ele>
        <time>2025-01-04T14:06:35.279Z</time>
      </trkpt>
      <trkpt lat="48.32124" lon="5.19927">
        <ele>221.09</ele>
        <time>2025-01-04T14:06:38.266Z</time>
      </trkpt>
      <trkpt lat="48.32115" lon="5.19947">
        <ele>221.17</ele>
        <time>2025-01-04T14:06:41.256Z</time>
      </trkpt>
      <trkpt lat="48.32103" lon="5.19972">
        <ele>221.19</ele>
        <time>2025-01-04T14:06:44.249Z</time>
      </trkpt>
      <trkpt lat="48.3209" lon="5.19997">
        <ele>221.12</ele>
        <time>2025-01-04T14:06:47.245Z</time>
      </trkpt>
      <trkpt lat="48.32077" lon="5.20022">
        <ele>221.03</ele>
        <time>2025-01-04T14:06:50.245Z</time>
      </trkpt>
      <trkpt lat="48.3206" lon="5.2005">
        <ele>221.06</ele>
        <time>2025-01-04T14:06:53.249Z</time>
      </trkpt>
      <trkpt lat="48.32042" lon="5.20077">
        <ele>221.1</ele>
        <time>2025-01-04T14:06:56.257Z</time>
      </trkpt>
      <trkpt lat="48.32025" lon="5.20104">
        <ele>221.1</ele>
        <time>2025-01-04T14:06:59.269Z</time>
      </trkpt>
      <trkpt lat="48.32" lon="5.20125">
        <ele>221.09</ele>
        <time>2025-01-04T14:07:02.286Z</time>
      </trkpt>
      <trkpt lat="48.31975" lon="5.20138">
        <ele>221.05</ele>
        <time>2025-01-04T14:07:05.307Z</time>
      </trkpt>
      <trkpt lat="48.31951" lon="5.20151">
        <ele>220.99</ele>
        <time>2025-01-04T14:07:08.332Z</time>
      </trkpt>
      <trkpt lat="48.31927" lon="5.20164">
        <ele>220.98</ele>
        <time>2025-01-04T14:07:11.361Z</time>
      </trkpt>
      <trkpt lat="48.31916" lon="5.20185">
        <ele>220.85</ele>
        <time>2025-01-04T14:07:14.393Z</time>
      </trkpt>
      <trkpt lat="48.31918" lon="5.20207">
        <ele>220.69</ele>
        <time>2025-01-04T14:07:17.427Z</time>
      </trkpt>
      <trkpt lat="48.31922" lon="5.2022">
        <ele>220.58</ele>
        <time>2025-01-04T14:07:20.463Z</time>
      </trkpt>
      <trkpt lat="48.31927" lon="5.20233">
        <ele>220.49</ele>
        <time>2025-01-04T14:07:23.500Z</time>
      </trkpt>
      <trkpt lat="48.31938" lon="5.20262">
        <ele>220.38</ele>
        <time>2025-01-04T14:07:26.541Z</time>
      </trkpt>
      <trkpt lat="48.3195" lon="5.20291">
        <ele>220.3</ele>
        <time>2025-01-04T14:07:29.585Z</time>
      </trkpt>
      <trkpt lat="48.31959" lon="5.20312">
        <ele>220.23</ele>
        <time>2025-01-04T14:07:32.632Z</time>
      </trkpt>
      <trkpt lat="48.31967" lon="5.20334">
        <ele>220.18</ele>
        <time>2025-01-04T14:07:35.682Z</time>
      </trkpt>
      <trkpt lat="48.3198" lon="5.20358">
        <ele>220.17</ele>
        <time>2025-01-04T14:07:38.735Z</time>
      </trkpt>
      <trkpt lat="48.31993" lon="5.20383">
        <ele>220.18</ele>
        <time>2025-01-04T14:07:41.791Z</time>
      </trkpt>
      <trkpt lat="48.32008" lon="5.20398">
        <ele>220.2</ele>
        <time>2025-01-04T14:07:44.850Z</time>
      </trkpt>
      <trkpt lat="48.32036" lon="5.20413">
        <ele>220.22</ele>
        <time>2025-01-04T14:07:47.914Z</time>
      </trkpt>
      <trkpt lat="48.32063" lon="5.20428">
        <ele>220.21</ele>
        <time>2025-01-04T14:07:50.983Z</time>
      </trkpt>
      <trkpt lat="48.32091" lon="5.20443">
        <ele>220.24</ele>
        <time>2025-01-04T14:07:54.056Z</time>
      </trkpt>
      <trkpt lat="48.32118" lon="5.20458">
        <ele>220.33</ele>
        <time>2025-01-04T14:07:57.134Z</time>
      </trkpt>
      <trkpt lat="48.32145" lon="5.20473">
        <ele>220.4</ele>
        <time>2025-01-04T14:08:00.217Z</time>
      </trkpt>
      <trkpt lat="48.32168" lon="5.20496">
        <ele>220.45</ele>
        <time>2025-01-04T14:08:03.304Z</time>
      </trkpt>
      <trkpt lat="48.32191" lon="5.20518">
        <ele>220.5</ele>
        <time>2025-01-04T14:08:06.395Z</time>
      </trkpt>
      <trkpt lat="48.32208" lon="5.20527">
        <ele>220.56</ele>
        <time>2025-01-04T14:08:09.489Z</time>
      </trkpt>
      <trkpt lat="48.32225" lon="5.20535">
        <ele>220.63</ele>
        <time>2025-01-04T14:08:12.586Z</time>
      </trkpt>
      <trkpt lat="48.32231" lon="5.20524">
        <ele>220.69</ele>
        <time>2025-01-04T14:08:15.685Z</time>
      </trkpt>
      <trkpt lat="48.32231" lon="5.20524">
        <ele>220.75</ele>
        <time>2025-01-04T14:08:18.784Z</time>
      </trkpt>
      <trkpt lat="48.32251" lon="5.2049">
        <ele>220.8</ele>
        <time>2025-01-04T14:08:21.888Z</time>
      </trkpt>
      <trkpt lat="48.32259" lon="5.20484">
        <ele>220.86</ele>
        <time>2025-01-04T14:08:24.993Z</time>
      </trkpt>
      <trkpt lat="48.32277" lon="5.20456">
        <ele>220.92</ele>
        <time>2025-01-04T14:08:28.102Z</time>
      </trkpt>
      <trkpt lat="48.32296" lon="5.20428">
        <ele>220.99</ele>
        <time>2025-01-04T14:08:31.215Z</time>
      </trkpt>
      <trkpt lat="48.32298" lon="5.20434">
        <ele>221.05</ele>
        <time>2025-01-04T14:08:34.329Z</time>
      </trkpt>
      <trkpt lat="48.32304" lon="5.20443">
        <ele>221.11</ele>
        <time>2025-01-04T14:08:37.445Z</time>
      </trkpt>
      <trkpt lat="48.32317" lon="5.20471">
        <ele>221.18</ele>
        <time>2025-01-04T14:08:40.564Z</time>
      </trkpt>
      <trkpt lat="48.32324" lon="5.20475">
        <ele>221.23</ele>
        <time>2025-01-04T14:08:43.684Z</time>
      </trkpt>
      <trkpt lat="48.32319" lon="5.20499">
        <ele>221.25</ele>
        <time>2025-01-04T14:08:46.807Z</time>
      </trkpt>
      <trkpt lat="48.32338" lon="5.2052">
        <ele>221.28</ele>
        <time>2025-01-04T14:08:49.934Z</time>
      </trkpt>
      <trkpt lat="48.32356" lon="5.20542">
        <ele>221.33</ele>
        <time>2025-01-04T14:08:53.064Z</time>
      </trkpt>
      <trkpt lat="48.32375" lon="5.20558">
        <ele>221.35</ele>
        <time>2025-01-04T14:08:56.198Z</time>
      </trkpt>
      <trkpt lat="48.32394" lon="5.20575">
        <ele>221.38</ele>
        <time>2025-01-04T14:08:59.336Z</time>
      </trkpt>
      <trkpt lat="48.32414" lon="5.20591">
        <ele>221.42</ele>
        <time>2025-01-04T14:09:02.477Z</time>
      </trkpt>
      <trkpt lat="48.32416" lon="5.20596">
        <ele>221.43</ele>
        <time>2025-01-04T14:09:05.619Z</time>
      </trkpt>
      <trkpt lat="48.32416" lon="5.20596">
        <ele>221.41</ele>
        <time>2025-01-04T14:09:08.761Z</time>
      </trkpt>
      <trkpt lat="48.32414" lon="5.20591">
        <ele>221.42</ele>
        <time>2025-01-04T14:09:11.903Z</time>
      </trkpt>
      <trkpt lat="48.32394" lon="5.20575">
        <ele>221.32</ele>
        <time>2025-01-04T14:09:15.049Z</time>
      </trkpt>
      <trkpt lat="48.32375" lon="5.20558">
        <ele>221.27</ele>
        <time>2025-01-04T14:09:18.199Z</time>
      </trkpt>
      <trkpt lat="48.32356" lon="5.20542">
        <ele>221.33</ele>
        <time>2025-01-04T14:09:21.352Z</time>
      </trkpt>
      <trkpt lat="48.32337" lon="5.2052">
        <ele>221.19</ele>
        <time>2025-01-04T14:09:24.509Z</time>
      </trkpt>
      <trkpt lat="48.32319" lon="5.20499">
        <ele>221.25</ele>
        <time>2025-01-04T14:09:27.670Z</time>
      </trkpt>
      <trkpt lat="48.32311" lon="5.20529">
        <ele>221.17</ele>
        <time>2025-01-04T14:09:30.834Z</time>
      </trkpt>
      <trkpt lat="48.32286" lon="5.20552">
        <ele>221.18</ele>
        <time>2025-01-04T14:09:34.003Z</time>
      </trkpt>
      <trkpt lat="48.32261" lon="5.20576">
        <ele>221.21</ele>
        <time>2025-01-04T14:09:37.176Z</time>
      </trkpt>
      <trkpt lat="48.32244" lon="5.20593">
        <ele>221.23</ele>
        <time>2025-01-04T14:09:40.353Z</time>
      </trkpt>
      <trkpt lat="48.32226" lon="5.2062">
        <ele>221.24</ele>
        <time>2025-01-04T14:09:43.534Z</time>
      </trkpt>
      <trkpt lat="48.32207" lon="5.20646">
        <ele>221.25</ele>
        <time>2025-01-04T14:09:46.719Z</time>
      </trkpt>
      <trkpt lat="48.32188" lon="5.20673">
        <ele>221.28</ele>
        <time>2025-01-04T14:09:49.908Z</time>
      </trkpt>
      <trkpt lat="48.32169" lon="5.20698">
        <ele>221.39</ele>
        <time>2025-01-04T14:09:53.101Z</time>
      </trkpt>
      <trkpt lat="48.3215" lon="5.20724">
        <ele>221.54</ele>
        <time>2025-01-04T14:09:56.298Z</time>
      </trkpt>
      <trkpt lat="48.32139" lon="5.20739">
        <ele>221.66</ele>
        <time>2025-01-04T14:09:59.498Z</time>
      </trkpt>
      <trkpt lat="48.32139" lon="5.20739">
        <ele>221.82</ele>
        <time>2025-01-04T14:10:02.698Z</time>
      </trkpt>
      <trkpt lat="48.32118" lon="5.20766">
        <ele>222.02</ele>
        <time>2025-01-04T14:10:05.902Z</time>
      </trkpt>
      <trkpt lat="48.32097" lon="5.20792">
        <ele>222.28</ele>
        <time>2025-01-04T14:10:09.110Z</time>
      </trkpt>
      <trkpt lat="48.32077" lon="5.20818">
        <ele>222.57</ele>
        <time>2025-01-04T14:10:12.323Z</time>
      </trkpt>
      <trkpt lat="48.32053" lon="5.20844">
        <ele>222.87</ele>
        <time>2025-01-04T14:10:15.540Z</time>
      </trkpt>
      <trkpt lat="48.32034" lon="5.20857">
        <ele>223.15</ele>
        <time>2025-01-04T14:10:18.761Z</time>
      </trkpt>
      <trkpt lat="48.32006" lon="5.20874">
        <ele>223.46</ele>
        <time>2025-01-04T14:10:21.987Z</time>
      </trkpt>
      <trkpt lat="48.31978" lon="5.20891">
        <ele>223.79</ele>
        <time>2025-01-04T14:10:25.217Z</time>
      </trkpt>
      <trkpt lat="48.3195" lon="5.20909">
        <ele>224.13</ele>
        <time>2025-01-04T14:10:28.452Z</time>
      </trkpt>
      <trkpt lat="48.31922" lon="5.20926">
        <ele>224.54</ele>
        <time>2025-01-04T14:10:31.692Z</time>
      </trkpt>
      <trkpt lat="48.31896" lon="5.20941">
        <ele>224.99</ele>
        <time>2025-01-04T14:10:34.937Z</time>
      </trkpt>
      <trkpt lat="48.31869" lon="5.20956">
        <ele>225.51</ele>
        <time>2025-01-04T14:10:38.186Z</time>
      </trkpt>
      <trkpt lat="48.31842" lon="5.20971">
        <ele>226.07</ele>
        <time>2025-01-04T14:10:41.440Z</time>
      </trkpt>
      <trkpt lat="48.31816" lon="5.20986">
        <ele>226.62</ele>
        <time>2025-01-04T14:10:44.698Z</time>
      </trkpt>
      <trkpt lat="48.31789" lon="5.21001">
        <ele>227.14</ele>
        <time>2025-01-04T14:10:47.961Z</time>
      </trkpt>
      <trkpt lat="48.31762" lon="5.21016">
        <ele>227.73</ele>
        <time>2025-01-04T14:10:51.229Z</time>
      </trkpt>
      <trkpt lat="48.31736" lon="5.21031">
        <ele>228.37</ele>
        <time>2025-01-04T14:10:54.501Z</time>
      </trkpt>
      <trkpt lat="48.31713" lon="5.21047">
        <ele>229.11</ele>
        <time>2025-01-04T14:10:57.777Z</time>
      </trkpt>
      <trkpt lat="48.31691" lon="5.21063">
        <ele>229.78</ele>
        <time>2025-01-04T14:11:01.057Z</time>
      </trkpt>
      <trkpt lat="48.31676" lon="5.21085">
        <ele>230.42</ele>
        <time>2025-01-04T14:11:04.340Z</time>
      </trkpt>
      <trkpt lat="48.31661" lon="5.21106">
        <ele>231.1</ele>
        <time>2025-01-04T14:11:07.627Z</time>
      </trkpt>
      <trkpt lat="48.31644" lon="5.21145">
        <ele>231.83</ele>
        <time>2025-01-04T14:11:10.919Z</time>
      </trkpt>
      <trkpt lat="48.31628" lon="5.21183">
        <ele>232.64</ele>
        <time>2025-01-04T14:11:14.215Z</time>
      </trkpt>
      <trkpt lat="48.3162" lon="5.21216">
        <ele>233.41</ele>
        <time>2025-01-04T14:11:17.515Z</time>
      </trkpt>
      <trkpt lat="48.31611" lon="5.21248">
        <ele>234.18</ele>
        <time>2025-01-04T14:11:20.819Z</time>
      </trkpt>
      <trkpt lat="48.31603" lon="5.2128">
        <ele>234.83</ele>
        <time>2025-01-04T14:11:24.127Z</time>
      </trkpt>
      <trkpt lat="48.31597" lon="5.21324">
        <ele>235.38</ele>
        <time>2025-01-04T14:11:27.439Z</time>
      </trkpt>
      <trkpt lat="48.31592" lon="5.21368">
        <ele>235.75</ele>
        <time>2025-01-04T14:11:30.756Z</time>
      </trkpt>
      <trkpt lat="48.3159" lon="5.21409">
        <ele>236.23</ele>
        <time>2025-01-04T14:11:34.077Z</time>
      </trkpt>
      <trkpt lat="48.31589" lon="5.2145">
        <ele>236.62</ele>
        <time>2025-01-04T14:11:37.403Z</time>
      </trkpt>
      <trkpt lat="48.31588" lon="5.2149">
        <ele>236.92</ele>
        <time>2025-01-04T14:11:40.733Z</time>
      </trkpt>
      <trkpt lat="48.31588" lon="5.2153">
        <ele>237.22</ele>
        <time>2025-01-04T14:11:44.067Z</time>
      </trkpt>
      <trkpt lat="48.31588" lon="5.21569">
        <ele>237.44</ele>
        <time>2025-01-04T14:11:47.406Z</time>
      </trkpt>
      <trkpt lat="48.31588" lon="5.21609">
        <ele>237.64</ele>
        <time>2025-01-04T14:11:50.749Z</time>
      </trkpt>
      <trkpt lat="48.31588" lon="5.21648">
        <ele>237.76</ele>
        <time>2025-01-04T14:11:54.096Z</time>
      </trkpt>
      <trkpt lat="48.31588" lon="5.21688">
        <ele>237.85</ele>
        <time>2025-01-04T14:11:57.447Z</time>
      </trkpt>
      <trkpt lat="48.31586" lon="5.21727">
        <ele>237.85</ele>
        <time>2025-01-04T14:12:00.803Z</time>
      </trkpt>
      <trkpt lat="48.31585" lon="5.21767">
        <ele>237.8</ele>
        <time>2025-01-04T14:12:04.163Z</time>
      </trkpt>
      <trkpt lat="48.31584" lon="5.21807">
        <ele>237.69</ele>
        <time>2025-01-04T14:12:07.527Z</time>
      </trkpt>
      <trkpt lat="48.31583" lon="5.21846">
        <ele>237.47</ele>
        <time>2025-01-04T14:12:10.895Z</time>
      </trkpt>
      <trkpt lat="48.31583" lon="5.21889">
        <ele>237.29</ele>
        <time>2025-01-04T14:12:14.268Z</time>
      </trkpt>
      <trkpt lat="48.31583" lon="5.21932">
        <ele>237.03</ele>
        <time>2025-01-04T14:12:17.645Z</time>
      </trkpt>
      <trkpt lat="48.31583" lon="5.21975">
        <ele>236.77</ele>
        <time>2025-01-04T14:12:21.027Z</time>
      </trkpt>
      <trkpt lat="48.31583" lon="5.22018">
        <ele>236.57</ele>
        <time>2025-01-04T14:12:24.414Z</time>
      </trkpt>
      <trkpt lat="48.31579" lon="5.22063">
        <ele>236.26</ele>
        <time>2025-01-04T14:12:27.805Z</time>
      </trkpt>
      <trkpt lat="48.31575" lon="5.22108">
        <ele>235.88</ele>
        <time>2025-01-04T14:12:31.201Z</time>
      </trkpt>
      <trkpt lat="48.3157" lon="5.22153">
        <ele>235.54</ele>
        <time>2025-01-04T14:12:34.602Z</time>
      </trkpt>
      <trkpt lat="48.31566" lon="5.22198">
        <ele>235.23</ele>
        <time>2025-01-04T14:12:38.008Z</time>
      </trkpt>
      <trkpt lat="48.31556" lon="5.2224">
        <ele>234.84</ele>
        <time>2025-01-04T14:12:41.419Z</time>
      </trkpt>
      <trkpt lat="48.31547" lon="5.22282">
        <ele>234.55</ele>
        <time>2025-01-04T14:12:44.834Z</time>
      </trkpt>
      <trkpt lat="48.31532" lon="5.22319">
        <ele>234.47</ele>
        <time>2025-01-04T14:12:48.254Z</time>
      </trkpt>
      <trkpt lat="48.31517" lon="5.22356">
        <ele>234.55</ele>
        <time>2025-01-04T14:12:51.679Z</time>
      </trkpt>
      <trkpt lat="48.31502" lon="5.22393">
        <ele>234.55</ele>
        <time>2025-01-04T14:12:55.108Z</time>
      </trkpt>
      <trkpt lat="48.31494" lon="5.22418">
        <ele>234.58</ele>
        <time>2025-01-04T14:12:58.540Z</time>
      </trkpt>
      <trkpt lat="48.31487" lon="5.22443">
        <ele>234.64</ele>
        <time>2025-01-04T14:13:01.975Z</time>
      </trkpt>
      <trkpt lat="48.31476" lon="5.22484">
        <ele>234.79</ele>
        <time>2025-01-04T14:13:05.415Z</time>
      </trkpt>
      <trkpt lat="48.31466" lon="5.22524">
        <ele>234.85</ele>
        <time>2025-01-04T14:13:08.860Z</time>
      </trkpt>
      <trkpt lat="48.31455" lon="5.22565">
        <ele>234.88</ele>
        <time>2025-01-04T14:13:12.309Z</time>
      </trkpt>
      <trkpt lat="48.31444" lon="5.22606">
        <ele>235.02</ele>
        <time>2025-01-04T14:13:15.763Z</time>
      </trkpt>
      <trkpt lat="48.31434" lon="5.22646">
        <ele>235.3</ele>
        <time>2025-01-04T14:13:19.222Z</time>
      </trkpt>
      <trkpt lat="48.31423" lon="5.22687">
        <ele>235.58</ele>
        <time>2025-01-04T14:13:22.685Z</time>
      </trkpt>
      <trkpt lat="48.31413" lon="5.22728">
        <ele>235.94</ele>
        <time>2025-01-04T14:13:26.153Z</time>
      </trkpt>
      <trkpt lat="48.31402" lon="5.22768">
        <ele>236.36</ele>
        <time>2025-01-04T14:13:29.626Z</time>
      </trkpt>
      <trkpt lat="48.31391" lon="5.22809">
        <ele>236.83</ele>
        <time>2025-01-04T14:13:33.103Z</time>
      </trkpt>
      <trkpt lat="48.31381" lon="5.2285">
        <ele>237.37</ele>
        <time>2025-01-04T14:13:36.585Z</time>
      </trkpt>
      <trkpt lat="48.3137" lon="5.22891">
        <ele>238.05</ele>
        <time>2025-01-04T14:13:40.072Z</time>
      </trkpt>
      <trkpt lat="48.3136" lon="5.22931">
        <ele>238.7</ele>
        <time>2025-01-04T14:13:43.563Z</time>
      </trkpt>
      <trkpt lat="48.31349" lon="5.22971">
        <ele>239.51</ele>
        <time>2025-01-04T14:13:47.059Z</time>
      </trkpt>
      <trkpt lat="48.31349" lon="5.22971">
        <ele>240.32</ele>
        <time>2025-01-04T14:13:50.555Z</time>
      </trkpt>
      <trkpt lat="48.31336" lon="5.23012">
        <ele>241.24</ele>
        <time>2025-01-04T14:13:54.056Z</time>
      </trkpt>
      <trkpt lat="48.31324" lon="5.23053">
        <ele>242.3</ele>
        <time>2025-01-04T14:13:57.561Z</time>
      </trkpt>
      <trkpt lat="48.31311" lon="5.23095">
        <ele>243.45</ele>
        <time>2025-01-04T14:14:01.071Z</time>
      </trkpt>
      <trkpt lat="48.31298" lon="5.23136">
        <ele>244.46</ele>
        <time>2025-01-04T14:14:04.586Z</time>
      </trkpt>
      <trkpt lat="48.31285" lon="5.23177">
        <ele>245.48</ele>
        <time>2025-01-04T14:14:08.106Z</time>
      </trkpt>
      <trkpt lat="48.31273" lon="5.23214">
        <ele>246.53</ele>
        <time>2025-01-04T14:14:11.630Z</time>
      </trkpt>
      <trkpt lat="48.3126" lon="5.23252">
        <ele>247.57</ele>
        <time>2025-01-04T14:14:15.159Z</time>
      </trkpt>
      <trkpt lat="48.31248" lon="5.2329">
        <ele>248.58</ele>
        <time>2025-01-04T14:14:18.692Z</time>
      </trkpt>
      <trkpt lat="48.31236" lon="5.23328">
        <ele>249.45</ele>
        <time>2025-01-04T14:14:22.230Z</time>
      </trkpt>
      <trkpt lat="48.31224" lon="5.23366">
        <ele>250.16</ele>
        <time>2025-01-04T14:14:25.772Z</time>
      </trkpt>
      <trkpt lat="48.31211" lon="5.23403">
        <ele>250.96</ele>
        <time>2025-01-04T14:14:29.319Z</time>
      </trkpt>
      <trkpt lat="48.31199" lon="5.23441">
        <ele>251.74</ele>
        <time>2025-01-04T14:14:32.870Z</time>
      </trkpt>
      <trkpt lat="48.31189" lon="5.23481">
        <ele>252.39</ele>
        <time>2025-01-04T14:14:36.426Z</time>
      </trkpt>
      <trkpt lat="48.31179" lon="5.23522">
        <ele>252.9</ele>
        <time>2025-01-04T14:14:39.987Z</time>
      </trkpt>
      <trkpt lat="48.31169" lon="5.23563">
        <ele>253.39</ele>
        <time>2025-01-04T14:14:43.552Z</time>
      </trkpt>
      <trkpt lat="48.31163" lon="5.23609">
        <ele>253.84</ele>
        <time>2025-01-04T14:14:47.122Z</time>
      </trkpt>
      <trkpt lat="48.31157" lon="5.23654">
        <ele>254.13</ele>
        <time>2025-01-04T14:14:50.697Z</time>
      </trkpt>
      <trkpt lat="48.31151" lon="5.237">
        <ele>254.36</ele>
        <time>2025-01-04T14:14:54.277Z</time>
      </trkpt>
      <trkpt lat="48.31145" lon="5.23745">
        <ele>254.38</ele>
        <time>2025-01-04T14:14:57.862Z</time>
      </trkpt>
      <trkpt lat="48.31139" lon="5.2379">
        <ele>254.41</ele>
        <time>2025-01-04T14:15:01.452Z</time>
      </trkpt>
      <trkpt lat="48.31135" lon="5.23837">
        <ele>254.28</ele>
        <time>2025-01-04T14:15:05.047Z</time>
      </trkpt>
      <trkpt lat="48.31132" lon="5.23883">
        <ele>254.07</ele>
        <time>2025-01-04T14:15:08.647Z</time>
      </trkpt>
      <trkpt lat="48.31128" lon="5.2393">
        <ele>253.8</ele>
        <time>2025-01-04T14:15:12.252Z</time>
      </trkpt>
      <trkpt lat="48.31124" lon="5.23976">
        <ele>253.39</ele>
        <time>2025-01-04T14:15:15.862Z</time>
      </trkpt>
      <trkpt lat="48.31121" lon="5.24022">
        <ele>252.82</ele>
        <time>2025-01-04T14:15:19.477Z</time>
      </trkpt>
      <trkpt lat="48.31117" lon="5.24069">
        <ele>252.16</ele>
        <time>2025-01-04T14:15:23.097Z</time>
      </trkpt>
      <trkpt lat="48.31113" lon="5.24114">
        <ele>251.58</ele>
        <time>2025-01-04T14:15:26.722Z</time>
      </trkpt>
      <trkpt lat="48.31105" lon="5.24156">
        <ele>250.87</ele>
        <time>2025-01-04T14:15:30.352Z</time>
      </trkpt>
      <trkpt lat="48.31096" lon="5.24198">
        <ele>250.01</ele>
        <time>2025-01-04T14:15:33.986Z</time>
      </trkpt>
      <trkpt lat="48.31088" lon="5.24239">
        <ele>249.11</ele>
        <time>2025-01-04T14:15:37.625Z</time>
      </trkpt>
      <trkpt lat="48.31076" lon="5.24277">
        <ele>248.09</ele>
        <time>2025-01-04T14:15:41.268Z</time>
      </trkpt>
      <trkpt lat="48.31064" lon="5.24315">
        <ele>247.13</ele>
        <time>2025-01-04T14:15:44.916Z</time>
      </trkpt>
      <trkpt lat="48.31052" lon="5.24353">
        <ele>246.2</ele>
        <time>2025-01-04T14:15:48.568Z</time>
      </trkpt>
      <trkpt lat="48.3104" lon="5.24391">
        <ele>245.19</ele>
        <time>2025-01-04T14:15:52.225Z</time>
      </trkpt>
      <trkpt lat="48.31025" lon="5.2443">
        <ele>244.1</ele>
        <time>2025-01-04T14:15:55.887Z</time>
      </trkpt>
      <trkpt lat="48.31009" lon="5.24469">
        <ele>242.93</ele>
        <time>2025-01-04T14:15:59.553Z</time>
      </trkpt>
      <trkpt lat="48.30994" lon="5.24507">
        <ele>241.82</ele>
        <time>2025-01-04T14:16:03.224Z</time>
      </trkpt>
      <trkpt lat="48.30978" lon="5.24546">
        <ele>240.83</ele>
        <time>2025-01-04T14:16:06.900Z</time>
      </trkpt>
      <trkpt lat="48.30961" lon="5.24583">
        <ele>239.8</ele>
        <time>2025-01-04T14:16:10.581Z</time>
      </trkpt>
      <trkpt lat="48.30944" lon="5.24621">
        <ele>238.78</ele>
        <time>2025-01-04T14:16:14.267Z</time>
      </trkpt>
      <trkpt lat="48.30926" lon="5.24649">
        <ele>237.87</ele>
        <time>2025-01-04T14:16:17.957Z</time>
      </trkpt>
      <trkpt lat="48.30908" lon="5.24678">
        <ele>237.04</ele>
        <time>2025-01-04T14:16:21.651Z</time>
      </trkpt>
      <trkpt lat="48.3089" lon="5.24707">
        <ele>236.18</ele>
        <time>2025-01-04T14:16:25.349Z</time>
      </trkpt>
      <trkpt lat="48.30873" lon="5.24736">
        <ele>235.45</ele>
        <time>2025-01-04T14:16:29.051Z</time>
      </trkpt>
      <trkpt lat="48.30856" lon="5.24765">
        <ele>234.67</ele>
        <time>2025-01-04T14:16:32.758Z</time>
      </trkpt>
      <trkpt lat="48.30852" lon="5.24771">
        <ele>233.98</ele>
        <time>2025-01-04T14:16:36.466Z</time>
      </trkpt>
      <trkpt lat="48.30831" lon="5.24805">
        <ele>233.27</ele>
        <time>2025-01-04T14:16:40.178Z</time>
      </trkpt>
      <trkpt lat="48.30811" lon="5.24839">
        <ele>232.64</ele>
        <time>2025-01-04T14:16:43.895Z</time>
      </trkpt>
      <trkpt lat="48.30791" lon="5.24872">
        <ele>232.12</ele>
        <time>2025-01-04T14:16:47.617Z</time>
      </trkpt>
      <trkpt lat="48.30771" lon="5.24906">
        <ele>231.6</ele>
        <time>2025-01-04T14:16:51.344Z</time>
      </trkpt>
      <trkpt lat="48.30751" lon="5.2494">
        <ele>231.22</ele>
        <time>2025-01-04T14:16:55.076Z</time>
      </trkpt>
      <trkpt lat="48.30731" lon="5.24974">
        <ele>230.88</ele>
        <time>2025-01-04T14:16:58.813Z</time>
      </trkpt>
      <trkpt lat="48.30711" lon="5.25008">
        <ele>230.53</ele>
        <time>2025-01-04T14:17:02.554Z</time>
      </trkpt>
      <trkpt lat="48.30691" lon="5.25041">
        <ele>230.28</ele>
        <time>2025-01-04T14:17:06.300Z</time>
      </trkpt>
      <trkpt lat="48.3067" lon="5.25075">
        <ele>230.07</ele>
        <time>2025-01-04T14:17:10.051Z</time>
      </trkpt>
      <trkpt lat="48.3065" lon="5.25109">
        <ele>229.86</ele>
        <time>2025-01-04T14:17:13.807Z</time>
      </trkpt>
      <trkpt lat="48.30631" lon="5.25142">
        <ele>229.69</ele>
        <time>2025-01-04T14:17:17.568Z</time>
      </trkpt>
      <trkpt lat="48.30615" lon="5.25179">
        <ele>229.56</ele>
        <time>2025-01-04T14:17:21.333Z</time>
      </trkpt>
      <trkpt lat="48.30599" lon="5.25217">
        <ele>229.47</ele>
        <time>2025-01-04T14:17:25.103Z</time>
      </trkpt>
      <trkpt lat="48.30583" lon="5.25254">
        <ele>229.41</ele>
        <time>2025-01-04T14:17:28.878Z</time>
      </trkpt>
      <trkpt lat="48.30559" lon="5.25235">
        <ele>229.2</ele>
        <time>2025-01-04T14:17:32.657Z</time>
      </trkpt>
      <trkpt lat="48.30535" lon="5.25217">
        <ele>229</ele>
        <time>2025-01-04T14:17:36.441Z</time>
      </trkpt>
      <trkpt lat="48.3051" lon="5.25198">
        <ele>228.83</ele>
        <time>2025-01-04T14:17:40.229Z</time>
      </trkpt>
      <trkpt lat="48.305" lon="5.25189">
        <ele>228.71</ele>
        <time>2025-01-04T14:17:44.019Z</time>
      </trkpt>
      <trkpt lat="48.30473" lon="5.25169">
        <ele>228.52</ele>
        <time>2025-01-04T14:17:47.814Z</time>
      </trkpt>
      <trkpt lat="48.30446" lon="5.25149">
        <ele>228.37</ele>
        <time>2025-01-04T14:17:51.614Z</time>
      </trkpt>
      <trkpt lat="48.30443" lon="5.25146">
        <ele>228.34</ele>
        <time>2025-01-04T14:17:55.414Z</time>
      </trkpt>
      <trkpt lat="48.30443" lon="5.25146">
        <ele>228.35</ele>
        <time>2025-01-04T14:17:59.214Z</time>
      </trkpt>
      <trkpt lat="48.30431" lon="5.25136">
        <ele>228.36</ele>
        <time>2025-01-04T14:18:03.016Z</time>
      </trkpt>
      <trkpt lat="48.30412" lon="5.25121">
        <ele>228.42</ele>
        <time>2025-01-04T14:18:06.822Z</time>
      </trkpt>
      <trkpt lat="48.30392" lon="5.25106">
        <ele>228.51</ele>
        <time>2025-01-04T14:18:10.631Z</time>
      </trkpt>
      <trkpt lat="48.30366" lon="5.25085">
        <ele>228.63</ele>
        <time>2025-01-04T14:18:14.445Z</time>
      </trkpt>
      <trkpt lat="48.30339" lon="5.25065">
        <ele>228.8</ele>
        <time>2025-01-04T14:18:18.264Z</time>
      </trkpt>
      <trkpt lat="48.30312" lon="5.25045">
        <ele>229</ele>
        <time>2025-01-04T14:18:22.088Z</time>
      </trkpt>
      <trkpt lat="48.30285" lon="5.25024">
        <ele>229.16</ele>
        <time>2025-01-04T14:18:25.917Z</time>
      </trkpt>
      <trkpt lat="48.30258" lon="5.25004">
        <ele>229.35</ele>
        <time>2025-01-04T14:18:29.750Z</time>
      </trkpt>
      <trkpt lat="48.30231" lon="5.24983">
        <ele>229.64</ele>
        <time>2025-01-04T14:18:33.588Z</time>
      </trkpt>
      <trkpt lat="48.30231" lon="5.24983">
        <ele>229.89</ele>
        <time>2025-01-04T14:18:37.426Z</time>
      </trkpt>
      <trkpt lat="48.30205" lon="5.24964">
        <ele>230.27</ele>
        <time>2025-01-04T14:18:41.269Z</time>
      </trkpt>
      <trkpt lat="48.30178" lon="5.24945">
        <ele>230.61</ele>
        <time>2025-01-04T14:18:45.117Z</time>
      </trkpt>
      <trkpt lat="48.30169" lon="5.24966">
        <ele>230.93</ele>
        <time>2025-01-04T14:18:48.967Z</time>
      </trkpt>
      <trkpt lat="48.30161" lon="5.24988">
        <ele>231.25</ele>
        <time>2025-01-04T14:18:52.820Z</time>
      </trkpt>
      <trkpt lat="48.3015" lon="5.25027">
        <ele>231.56</ele>
        <time>2025-01-04T14:18:56.678Z</time>
      </trkpt>
      <trkpt lat="48.3014" lon="5.25066">
        <ele>231.81</ele>
        <time>2025-01-04T14:19:00.540Z</time>
      </trkpt>
      <trkpt lat="48.3013" lon="5.25105">
        <ele>232.03</ele>
        <time>2025-01-04T14:19:04.407Z</time>
      </trkpt>
      <trkpt lat="48.3012" lon="5.25145">
        <ele>232.12</ele>
        <time>2025-01-04T14:19:08.278Z</time>
      </trkpt>
      <trkpt lat="48.3011" lon="5.25184">
        <ele>232.23</ele>
        <time>2025-01-04T14:19:12.154Z</time>
      </trkpt>
      <trkpt lat="48.30099" lon="5.25223">
        <ele>232.39</ele>
        <time>2025-01-04T14:19:16.034Z</time>
      </trkpt>
      <trkpt lat="48.30089" lon="5.25262">
        <ele>232.6</ele>
        <time>2025-01-04T14:19:19.919Z</time>
      </trkpt>
      <trkpt lat="48.30079" lon="5.25301">
        <ele>232.7</ele>
        <time>2025-01-04T14:19:23.808Z</time>
      </trkpt>
      <trkpt lat="48.30069" lon="5.25341">
        <ele>232.88</ele>
        <time>2025-01-04T14:19:27.702Z</time>
      </trkpt>
      <trkpt lat="48.30059" lon="5.25381">
        <ele>233.09</ele>
        <time>2025-01-04T14:19:31.600Z</time>
      </trkpt>
      <trkpt lat="48.30048" lon="5.25421">
        <ele>233.18</ele>
        <time>2025-01-04T14:19:35.503Z</time>
      </trkpt>
      <trkpt lat="48.30038" lon="5.25461">
        <ele>233.22</ele>
        <time>2025-01-04T14:19:39.410Z</time>
      </trkpt>
      <trkpt lat="48.30028" lon="5.25501">
        <ele>233.27</ele>
        <time>2025-01-04T14:19:43.322Z</time>
      </trkpt>
      <trkpt lat="48.30017" lon="5.2554">
        <ele>233.25</ele>
        <time>2025-01-04T14:19:47.238Z</time>
      </trkpt>
      <trkpt lat="48.30007" lon="5.2558">
        <ele>233.17</ele>
        <time>2025-01-04T14:19:51.159Z</time>
      </trkpt>
      <trkpt lat="48.29997" lon="5.2562">
        <ele>233.05</ele>
        <time>2025-01-04T14:19:55.085Z</time>
      </trkpt>
      <trkpt lat="48.29987" lon="5.25659">
        <ele>232.96</ele>
        <time>2025-01-04T14:19:59.015Z</time>
      </trkpt>
      <trkpt lat="48.30006" lon="5.25676">
        <ele>232.87</ele>
        <time>2025-01-04T14:20:02.949Z</time>
      </trkpt>
      <trkpt lat="48.3003" lon="5.25689">
        <ele>232.75</ele>
        <time>2025-01-04T14:20:06.887Z</time>
      </trkpt>
      <trkpt lat="48.30055" lon="5.25702">
        <ele>232.61</ele>
        <time>2025-01-04T14:20:10.829Z</time>
      </trkpt>
      <trkpt lat="48.30079" lon="5.25715">
        <ele>232.46</ele>
        <time>2025-01-04T14:20:14.775Z</time>
      </trkpt>
      <trkpt lat="48.30087" lon="5.25684">
        <ele>232.33</ele>
        <time>2025-01-04T14:20:18.725Z</time>
      </trkpt>
      <trkpt lat="48.30096" lon="5.25653">
        <ele>232.22</ele>
        <time>2025-01-04T14:20:22.678Z</time>
      </trkpt>
      <trkpt lat="48.30096" lon="5.25653">
        <ele>232.06</ele>
        <time>2025-01-04T14:20:26.631Z</time>
      </trkpt>
      <trkpt lat="48.30087" lon="5.25684">
        <ele>231.85</ele>
        <time>2025-01-04T14:20:30.588Z</time>
      </trkpt>
      <trkpt lat="48.30079" lon="5.25715">
        <ele>232.46</ele>
        <time>2025-01-04T14:20:34.548Z</time>
      </trkpt>
      <trkpt lat="48.30077" lon="5.25728">
        <ele>231.51</ele>
        <time>2025-01-04T14:20:38.510Z</time>
      </trkpt>
      <trkpt lat="48.30067" lon="5.25769">
        <ele>231.35</ele>
        <time>2025-01-04T14:20:42.476Z</time>
      </trkpt>
      <trkpt lat="48.30058" lon="5.25811">
        <ele>231.15</ele>
        <time>2025-01-04T14:20:46.447Z</time>
      </trkpt>
      <trkpt lat="48.30049" lon="5.25852">
        <ele>230.99</ele>
        <time>2025-01-04T14:20:50.423Z</time>
      </trkpt>
      <trkpt lat="48.30039" lon="5.25893">
        <ele>230.87</ele>
        <time>2025-01-04T14:20:54.403Z</time>
      </trkpt>
      <trkpt lat="48.3003" lon="5.25934">
        <ele>230.7</ele>
        <time>2025-01-04T14:20:58.388Z</time>
      </trkpt>
      <trkpt lat="48.30028" lon="5.25953">
        <ele>230.53</ele>
        <time>2025-01-04T14:21:02.375Z</time>
      </trkpt>
      <trkpt lat="48.30045" lon="5.25949">
        <ele>230.34</ele>
        <time>2025-01-04T14:21:06.365Z</time>
      </trkpt>
      <trkpt lat="48.30055" lon="5.2596">
        <ele>230.16</ele>
        <time>2025-01-04T14:21:10.357Z</time>
      </trkpt>
      <trkpt lat="48.30058" lon="5.25996">
        <ele>230.01</ele>
        <time>2025-01-04T14:21:14.353Z</time>
      </trkpt>
      <trkpt lat="48.30058" lon="5.25996">
        <ele>229.9</ele>
        <time>2025-01-04T14:21:18.349Z</time>
      </trkpt>
      <trkpt lat="48.30055" lon="5.2596">
        <ele>229.81</ele>
        <time>2025-01-04T14:21:22.349Z</time>
      </trkpt>
      <trkpt lat="48.30068" lon="5.25985">
        <ele>229.68</ele>
        <time>2025-01-04T14:21:26.352Z</time>
      </trkpt>
      <trkpt lat="48.30078" lon="5.26008">
        <ele>229.59</ele>
        <time>2025-01-04T14:21:30.358Z</time>
      </trkpt>
      <trkpt lat="48.30088" lon="5.26031">
        <ele>229.54</ele>
        <time>2025-01-04T14:21:34.367Z</time>
      </trkpt>
      <trkpt lat="48.30101" lon="5.2607">
        <ele>229.5</ele>
        <time>2025-01-04T14:21:38.381Z</time>
      </trkpt>
      <trkpt lat="48.30114" lon="5.26109">
        <ele>229.48</ele>
        <time>2025-01-04T14:21:42.399Z</time>
      </trkpt>
      <trkpt lat="48.30127" lon="5.26148">
        <ele>229.53</ele>
        <time>2025-01-04T14:21:46.422Z</time>
      </trkpt>
      <trkpt lat="48.3014" lon="5.26188">
        <ele>229.5</ele>
        <time>2025-01-04T14:21:50.450Z</time>
      </trkpt>
      <trkpt lat="48.30154" lon="5.26227">
        <ele>229.52</ele>
        <time>2025-01-04T14:21:54.482Z</time>
      </trkpt>
      <trkpt lat="48.30167" lon="5.26266">
        <ele>229.67</ele>
        <time>2025-01-04T14:21:58.519Z</time>
      </trkpt>
      <trkpt lat="48.3018" lon="5.26305">
        <ele>229.89</ele>
        <time>2025-01-04T14:22:02.561Z</time>
      </trkpt>
      <trkpt lat="48.30197" lon="5.26333">
        <ele>230.14</ele>
        <time>2025-01-04T14:22:06.607Z</time>
      </trkpt>
      <trkpt lat="48.30193" lon="5.26342">
        <ele>230.18</ele>
        <time>2025-01-04T14:22:10.654Z</time>
      </trkpt>
      <trkpt lat="48.30182" lon="5.26373">
        <ele>230.19</ele>
        <time>2025-01-04T14:22:14.705Z</time>
      </trkpt>
      <trkpt lat="48.30171" lon="5.26405">
        <ele>230.22</ele>
        <time>2025-01-04T14:22:18.760Z</time>
      </trkpt>
      <trkpt lat="48.30161" lon="5.26437">
        <ele>230.3</ele>
        <time>2025-01-04T14:22:22.818Z</time>
      </trkpt>
      <trkpt lat="48.3015" lon="5.26468">
        <ele>230.44</ele>
        <time>2025-01-04T14:22:26.880Z</time>
      </trkpt>
      <trkpt lat="48.30134" lon="5.26503">
        <ele>230.56</ele>
        <time>2025-01-04T14:22:30.947Z</time>
      </trkpt>
      <trkpt lat="48.30118" lon="5.26537">
        <ele>230.72</ele>
        <time>2025-01-04T14:22:35.018Z</time>
      </trkpt>
      <trkpt lat="48.30116" lon="5.26541">
        <ele>230.92</ele>
        <time>2025-01-04T14:22:39.090Z</time>
      </trkpt>
      <trkpt lat="48.30109" lon="5.26548">
        <ele>231.14</ele>
        <time>2025-01-04T14:22:43.163Z</time>
      </trkpt>
      <trkpt lat="48.30092" lon="5.26569">
        <ele>231.37</ele>
        <time>2025-01-04T14:22:47.239Z</time>
      </trkpt>
      <trkpt lat="48.30075" lon="5.26591">
        <ele>231.63</ele>
        <time>2025-01-04T14:22:51.319Z</time>
      </trkpt>
      <trkpt lat="48.30058" lon="5.26612">
        <ele>231.95</ele>
        <time>2025-01-04T14:22:55.403Z</time>
      </trkpt>
      <trkpt lat="48.3004" lon="5.26626">
        <ele>232.34</ele>
        <time>2025-01-04T14:22:59.490Z</time>
      </trkpt>
      <trkpt lat="48.30023" lon="5.2664">
        <ele>232.79</ele>
        <time>2025-01-04T14:23:03.580Z</time>
      </trkpt>
      <trkpt lat="48.30023" lon="5.2664">
        <ele>233.19</ele>
        <time>2025-01-04T14:23:07.670Z</time>
      </trkpt>
      <trkpt lat="48.30004" lon="5.26652">
        <ele>233.75</ele>
        <time>2025-01-04T14:23:11.763Z</time>
      </trkpt>
      <trkpt lat="48.29985" lon="5.26664">
        <ele>234.36</ele>
        <time>2025-01-04T14:23:15.860Z</time>
      </trkpt>
      <trkpt lat="48.29961" lon="5.26674">
        <ele>234.93</ele>
        <time>2025-01-04T14:23:19.961Z</time>
      </trkpt>
      <trkpt lat="48.29931" lon="5.2668">
        <ele>235.39</ele>
        <time>2025-01-04T14:23:24.066Z</time>
      </trkpt>
      <trkpt lat="48.29901" lon="5.26685">
        <ele>235.83</ele>
        <time>2025-01-04T14:23:28.176Z</time>
      </trkpt>
      <trkpt lat="48.29881" lon="5.26685">
        <ele>236.25</ele>
        <time>2025-01-04T14:23:32.289Z</time>
      </trkpt>
      <trkpt lat="48.2986" lon="5.26685">
        <ele>236.72</ele>
        <time>2025-01-04T14:23:36.406Z</time>
      </trkpt>
      <trkpt lat="48.29829" lon="5.26682">
        <ele>237.02</ele>
        <time>2025-01-04T14:23:40.528Z</time>
      </trkpt>
      <trkpt lat="48.29798" lon="5.26678">
        <ele>237.37</ele>
        <time>2025-01-04T14:23:44.655Z</time>
      </trkpt>
      <trkpt lat="48.29766" lon="5.26675">
        <ele>237.88</ele>
        <time>2025-01-04T14:23:48.787Z</time>
      </trkpt>
      <trkpt lat="48.29735" lon="5.26672">
        <ele>238.46</ele>
        <time>2025-01-04T14:23:52.924Z</time>
      </trkpt>
      <trkpt lat="48.29704" lon="5.26668">
        <ele>238.98</ele>
        <time>2025-01-04T14:23:57.066Z</time>
      </trkpt>
      <trkpt lat="48.29673" lon="5.26665">
        <ele>239.47</ele>
        <time>2025-01-04T14:24:01.213Z</time>
      </trkpt>
      <trkpt lat="48.29641" lon="5.26661">
        <ele>239.92</ele>
        <time>2025-01-04T14:24:05.365Z</time>
      </trkpt>
      <trkpt lat="48.29621" lon="5.26661">
        <ele>240.42</ele>
        <time>2025-01-04T14:24:09.520Z</time>
      </trkpt>
      <trkpt lat="48.29601" lon="5.26661">
        <ele>240.95</ele>
        <time>2025-01-04T14:24:13.678Z</time>
      </trkpt>
      <trkpt lat="48.29582" lon="5.26664">
        <ele>241.55</ele>
        <time>2025-01-04T14:24:17.839Z</time>
      </trkpt>
      <trkpt lat="48.29564" lon="5.26666">
        <ele>242.16</ele>
        <time>2025-01-04T14:24:22.003Z</time>
      </trkpt>
      <trkpt lat="48.2954" lon="5.26672">
        <ele>242.72</ele>
        <time>2025-01-04T14:24:26.171Z</time>
      </trkpt>
      <trkpt lat="48.29517" lon="5.26679">
        <ele>243.2</ele>
        <time>2025-01-04T14:24:30.343Z</time>
      </trkpt>
      <trkpt lat="48.29497" lon="5.26689">
        <ele>243.75</ele>
        <time>2025-01-04T14:24:34.518Z</time>
      </trkpt>
      <trkpt lat="48.29477" lon="5.26699">
        <ele>244.15</ele>
        <time>2025-01-04T14:24:38.697Z</time>
      </trkpt>
      <trkpt lat="48.29457" lon="5.26709">
        <ele>244.58</ele>
        <time>2025-01-04T14:24:42.879Z</time>
      </trkpt>
      <trkpt lat="48.29441" lon="5.26718">
        <ele>244.83</ele>
        <time>2025-01-04T14:24:47.064Z</time>
      </trkpt>
      <trkpt lat="48.29425" lon="5.26728">
        <ele>245.14</ele>
        <time>2025-01-04T14:24:51.252Z</time>
      </trkpt>
      <trkpt lat="48.29401" lon="5.26754">
        <ele>245.41</ele>
        <time>2025-01-04T14:24:55.444Z</time>
      </trkpt>
      <trkpt lat="48.29387" lon="5.26776">
        <ele>245.59</ele>
        <time>2025-01-04T14:24:59.640Z</time>
      </trkpt>
      <trkpt lat="48.29373" lon="5.26799">
        <ele>245.72</ele>
        <time>2025-01-04T14:25:03.839Z</time>
      </trkpt>
      <trkpt lat="48.29359" lon="5.26833">
        <ele>245.82</ele>
        <time>2025-01-04T14:25:08.042Z</time>
      </trkpt>
      <trkpt lat="48.29345" lon="5.26867">
        <ele>245.75</ele>
        <time>2025-01-04T14:25:12.249Z</time>
      </trkpt>
      <trkpt lat="48.29339" lon="5.26897">
        <ele>245.73</ele>
        <time>2025-01-04T14:25:16.460Z</time>
      </trkpt>
      <trkpt lat="48.29332" lon="5.26927">
        <ele>245.62</ele>
        <time>2025-01-04T14:25:20.674Z</time>
      </trkpt>
      <trkpt lat="48.29328" lon="5.26973">
        <ele>245.48</ele>
        <time>2025-01-04T14:25:24.893Z</time>
      </trkpt>
      <trkpt lat="48.29324" lon="5.27018">
        <ele>245.19</ele>
        <time>2025-01-04T14:25:29.117Z</time>
      </trkpt>
      <trkpt lat="48.29319" lon="5.27063">
        <ele>244.85</ele>
        <time>2025-01-04T14:25:33.346Z</time>
      </trkpt>
      <trkpt lat="48.29312" lon="5.27102">
        <ele>244.51</ele>
        <time>2025-01-04T14:25:37.579Z</time>
      </trkpt>
      <trkpt lat="48.29304" lon="5.27142">
        <ele>244.27</ele>
        <time>2025-01-04T14:25:41.817Z</time>
      </trkpt>
      <trkpt lat="48.29292" lon="5.27184">
        <ele>244.03</ele>
        <time>2025-01-04T14:25:46.060Z</time>
      </trkpt>
      <trkpt lat="48.29279" lon="5.27225">
        <ele>243.81</ele>
        <time>2025-01-04T14:25:50.307Z</time>
      </trkpt>
      <trkpt lat="48.29266" lon="5.27267">
        <ele>243.52</ele>
        <time>2025-01-04T14:25:54.559Z</time>
      </trkpt>
      <trkpt lat="48.29254" lon="5.27287">
        <ele>243.4</ele>
        <time>2025-01-04T14:25:58.814Z</time>
      </trkpt>
      <trkpt lat="48.29242" lon="5.27307">
        <ele>243.25</ele>
        <time>2025-01-04T14:26:03.072Z</time>
      </trkpt>
      <trkpt lat="48.29221" lon="5.27331">
        <ele>243.09</ele>
        <time>2025-01-04T14:26:07.334Z</time>
      </trkpt>
      <trkpt lat="48.29199" lon="5.27348">
        <ele>243.06</ele>
        <time>2025-01-04T14:26:11.600Z</time>
      </trkpt>
      <trkpt lat="48.29174" lon="5.27357">
        <ele>243.05</ele>
        <time>2025-01-04T14:26:15.870Z</time>
      </trkpt>
      <trkpt lat="48.29147" lon="5.27361">
        <ele>243.01</ele>
        <time>2025-01-04T14:26:20.145Z</time>
      </trkpt>
      <trkpt lat="48.2912" lon="5.27365">
        <ele>242.99</ele>
        <time>2025-01-04T14:26:24.424Z</time>
      </trkpt>
      <trkpt lat="48.29098" lon="5.27372">
        <ele>243.06</ele>
        <time>2025-01-04T14:26:28.707Z</time>
      </trkpt>
      <trkpt lat="48.29077" lon="5.27378">
        <ele>243.18</ele>
        <time>2025-01-04T14:26:32.993Z</time>
      </trkpt>
      <trkpt lat="48.29056" lon="5.27389">
        <ele>243.32</ele>
        <time>2025-01-04T14:26:37.283Z</time>
      </trkpt>
      <trkpt lat="48.29034" lon="5.274">
        <ele>243.38</ele>
        <time>2025-01-04T14:26:41.576Z</time>
      </trkpt>
      <trkpt lat="48.29012" lon="5.27415">
        <ele>243.44</ele>
        <time>2025-01-04T14:26:45.873Z</time>
      </trkpt>
      <trkpt lat="48.28989" lon="5.2743">
        <ele>243.49</ele>
        <time>2025-01-04T14:26:50.174Z</time>
      </trkpt>
      <trkpt lat="48.28964" lon="5.27451">
        <ele>243.54</ele>
        <time>2025-01-04T14:26:54.480Z</time>
      </trkpt>
      <trkpt lat="48.2894" lon="5.27472">
        <ele>243.58</ele>
        <time>2025-01-04T14:26:58.790Z</time>
      </trkpt>
      <trkpt lat="48.28915" lon="5.27493">
        <ele>243.63</ele>
        <time>2025-01-04T14:27:03.105Z</time>
      </trkpt>
      <trkpt lat="48.2889" lon="5.27514">
        <ele>243.72</ele>
        <time>2025-01-04T14:27:07.424Z</time>
      </trkpt>
      <trkpt lat="48.28866" lon="5.27536">
        <ele>243.81</ele>
        <time>2025-01-04T14:27:11.748Z</time>
      </trkpt>
      <trkpt lat="48.28841" lon="5.27557">
        <ele>243.81</ele>
        <time>2025-01-04T14:27:16.077Z</time>
      </trkpt>
      <trkpt lat="48.28816" lon="5.27578">
        <ele>243.87</ele>
        <time>2025-01-04T14:27:20.410Z</time>
      </trkpt>
      <trkpt lat="48.28792" lon="5.27599">
        <ele>243.89</ele>
        <time>2025-01-04T14:27:24.748Z</time>
      </trkpt>
      <trkpt lat="48.28774" lon="5.27617">
        <ele>243.97</ele>
        <time>2025-01-04T14:27:29.089Z</time>
      </trkpt>
      <trkpt lat="48.28757" lon="5.27636">
        <ele>243.97</ele>
        <time>2025-01-04T14:27:33.433Z</time>
      </trkpt>
      <trkpt lat="48.28737" lon="5.27666">
        <ele>243.96</ele>
        <time>2025-01-04T14:27:37.782Z</time>
      </trkpt>
      <trkpt lat="48.28717" lon="5.27696">
        <ele>243.84</ele>
        <time>2025-01-04T14:27:42.136Z</time>
      </trkpt>
      <trkpt lat="48.28707" lon="5.27719">
        <ele>243.79</ele>
        <time>2025-01-04T14:27:46.493Z</time>
      </trkpt>
      <trkpt lat="48.28697" lon="5.27743">
        <ele>243.73</ele>
        <time>2025-01-04T14:27:50.852Z</time>
      </trkpt>
      <trkpt lat="48.28684" lon="5.27782">
        <ele>243.72</ele>
        <time>2025-01-04T14:27:55.216Z</time>
      </trkpt>
      <trkpt lat="48.28671" lon="5.2782">
        <ele>243.66</ele>
        <time>2025-01-04T14:27:59.585Z</time>
      </trkpt>
      <trkpt lat="48.28665" lon="5.27845">
        <ele>243.52</ele>
        <time>2025-01-04T14:28:03.957Z</time>
      </trkpt>
      <trkpt lat="48.28659" lon="5.27869">
        <ele>243.36</ele>
        <time>2025-01-04T14:28:08.331Z</time>
      </trkpt>
      <trkpt lat="48.28651" lon="5.27915">
        <ele>243.27</ele>
        <time>2025-01-04T14:28:12.710Z</time>
      </trkpt>
      <trkpt lat="48.28644" lon="5.27961">
        <ele>243.17</ele>
        <time>2025-01-04T14:28:17.094Z</time>
      </trkpt>
      <trkpt lat="48.28637" lon="5.28007">
        <ele>242.98</ele>
        <time>2025-01-04T14:28:21.483Z</time>
      </trkpt>
      <trkpt lat="48.28627" lon="5.28049">
        <ele>242.77</ele>
        <time>2025-01-04T14:28:25.877Z</time>
      </trkpt>
      <trkpt lat="48.28618" lon="5.2809">
        <ele>242.52</ele>
        <time>2025-01-04T14:28:30.276Z</time>
      </trkpt>
      <trkpt lat="48.28605" lon="5.2813">
        <ele>242.18</ele>
        <time>2025-01-04T14:28:34.680Z</time>
      </trkpt>
      <trkpt lat="48.28592" lon="5.2817">
        <ele>241.65</ele>
        <time>2025-01-04T14:28:39.088Z</time>
      </trkpt>
      <trkpt lat="48.2858" lon="5.28209">
        <ele>241.1</ele>
        <time>2025-01-04T14:28:43.501Z</time>
      </trkpt>
      <trkpt lat="48.28567" lon="5.28249">
        <ele>240.58</ele>
        <time>2025-01-04T14:28:47.919Z</time>
      </trkpt>
      <trkpt lat="48.28554" lon="5.28288">
        <ele>240.06</ele>
        <time>2025-01-04T14:28:52.341Z</time>
      </trkpt>
      <trkpt lat="48.28542" lon="5.28328">
        <ele>239.56</ele>
        <time>2025-01-04T14:28:56.768Z</time>
      </trkpt>
      <trkpt lat="48.28529" lon="5.28367">
        <ele>239.08</ele>
        <time>2025-01-04T14:29:01.200Z</time>
      </trkpt>
      <trkpt lat="48.28516" lon="5.28407">
        <ele>238.61</ele>
        <time>2025-01-04T14:29:05.636Z</time>
      </trkpt>
      <trkpt lat="48.28504" lon="5.28447">
        <ele>238.08</ele>
        <time>2025-01-04T14:29:10.077Z</time>
      </trkpt>
      <trkpt lat="48.28491" lon="5.28485">
        <ele>237.55</ele>
        <time>2025-01-04T14:29:14.523Z</time>
      </trkpt>
      <trkpt lat="48.28479" lon="5.2851">
        <ele>237.11</ele>
        <time>2025-01-04T14:29:18.972Z</time>
      </trkpt>
      <trkpt lat="48.28468" lon="5.28535">
        <ele>236.71</ele>
        <time>2025-01-04T14:29:23.424Z</time>
      </trkpt>
      <trkpt lat="48.2845" lon="5.28561">
        <ele>236.36</ele>
        <time>2025-01-04T14:29:27.880Z</time>
      </trkpt>
      <trkpt lat="48.28432" lon="5.28588">
        <ele>236.09</ele>
        <time>2025-01-04T14:29:32.340Z</time>
      </trkpt>
      <trkpt lat="48.28414" lon="5.28614">
        <ele>235.87</ele>
        <time>2025-01-04T14:29:36.804Z</time>
      </trkpt>
      <trkpt lat="48.284" lon="5.28629">
        <ele>235.64</ele>
        <time>2025-01-04T14:29:41.271Z</time>
      </trkpt>
      <trkpt lat="48.28386" lon="5.28644">
        <ele>235.46</ele>
        <time>2025-01-04T14:29:45.741Z</time>
      </trkpt>
      <trkpt lat="48.28365" lon="5.28663">
        <ele>235.32</ele>
        <time>2025-01-04T14:29:50.215Z</time>
      </trkpt>
      <trkpt lat="48.28343" lon="5.28683">
        <ele>235.19</ele>
        <time>2025-01-04T14:29:54.693Z</time>
      </trkpt>
      <trkpt lat="48.28321" lon="5.28695">
        <ele>235.08</ele>
        <time>2025-01-04T14:29:59.175Z</time>
      </trkpt>
      <trkpt lat="48.28298" lon="5.28706">
        <ele>234.99</ele>
        <time>2025-01-04T14:30:03.660Z</time>
      </trkpt>
      <trkpt lat="48.28269" lon="5.28714">
        <ele>234.98</ele>
        <time>2025-01-04T14:30:08.150Z</time>
      </trkpt>
      <trkpt lat="48.2824" lon="5.28721">
        <ele>235.01</ele>
        <time>2025-01-04T14:30:12.645Z</time>
      </trkpt>
      <trkpt lat="48.28223" lon="5.28722">
        <ele>235.08</ele>
        <time>2025-01-04T14:30:17.143Z</time>
      </trkpt>
      <trkpt lat="48.28206" lon="5.28723">
        <ele>235.24</ele>
        <time>2025-01-04T14:30:21.643Z</time>
      </trkpt>
      <trkpt lat="48.28178" lon="5.28718">
        <ele>235.44</ele>
        <time>2025-01-04T14:30:26.148Z</time>
      </trkpt>
      <trkpt lat="48.2815" lon="5.28713">
        <ele>235.63</ele>
        <time>2025-01-04T14:30:30.657Z</time>
      </trkpt>
      <trkpt lat="48.28122" lon="5.28708">
        <ele>235.84</ele>
        <time>2025-01-04T14:30:35.171Z</time>
      </trkpt>
      <trkpt lat="48.28097" lon="5.28706">
        <ele>236.09</ele>
        <time>2025-01-04T14:30:39.689Z</time>
      </trkpt>
      <trkpt lat="48.28072" lon="5.28704">
        <ele>236.35</ele>
        <time>2025-01-04T14:30:44.211Z</time>
      </trkpt>
      <trkpt lat="48.28047" lon="5.28702">
        <ele>236.59</ele>
        <time>2025-01-04T14:30:48.737Z</time>
      </trkpt>
      <trkpt lat="48.28018" lon="5.28705">
        <ele>236.89</ele>
        <time>2025-01-04T14:30:53.268Z</time>
      </trkpt>
      <trkpt lat="48.27989" lon="5.28708">
        <ele>237.15</ele>
        <time>2025-01-04T14:30:57.803Z</time>
      </trkpt>
      <trkpt lat="48.2796" lon="5.28712">
        <ele>237.37</ele>
        <time>2025-01-04T14:31:02.343Z</time>
      </trkpt>
      <trkpt lat="48.27931" lon="5.28715">
        <ele>237.66</ele>
        <time>2025-01-04T14:31:06.887Z</time>
      </trkpt>
      <trkpt lat="48.27904" lon="5.28714">
        <ele>238</ele>
        <time>2025-01-04T14:31:11.436Z</time>
      </trkpt>
      <trkpt lat="48.27878" lon="5.28713">
        <ele>238.33</ele>
        <time>2025-01-04T14:31:15.989Z</time>
      </trkpt>
      <trkpt lat="48.27851" lon="5.28706">
        <ele>238.79</ele>
        <time>2025-01-04T14:31:20.546Z</time>
      </trkpt>
      <trkpt lat="48.27824" lon="5.287">
        <ele>239.29</ele>
        <time>2025-01-04T14:31:25.108Z</time>
      </trkpt>
      <trkpt lat="48.27797" lon="5.28691">
        <ele>239.71</ele>
        <time>2025-01-04T14:31:29.674Z</time>
      </trkpt>
      <trkpt lat="48.27771" lon="5.28681">
        <ele>240.14</ele>
        <time>2025-01-04T14:31:34.244Z</time>
      </trkpt>
      <trkpt lat="48.27744" lon="5.28672">
        <ele>240.53</ele>
        <time>2025-01-04T14:31:38.819Z</time>
      </trkpt>
      <trkpt lat="48.27717" lon="5.28663">
        <ele>240.91</ele>
        <time>2025-01-04T14:31:43.398Z</time>
      </trkpt>
      <trkpt lat="48.27689" lon="5.28655">
        <ele>241.33</ele>
        <time>2025-01-04T14:31:47.982Z</time>
      </trkpt>
      <trkpt lat="48.2768" lon="5.28655">
        <ele>241.75</ele>
        <time>2025-01-04T14:31:52.567Z</time>
      </trkpt>
      <trkpt lat="48.27652" lon="5.28657">
        <ele>242.14</ele>
        <time>2025-01-04T14:31:57.157Z</time>
      </trkpt>
      <trkpt lat="48.27629" lon="5.28668">
        <ele>242.54</ele>
        <time>2025-01-04T14:32:01.751Z</time>
      </trkpt>
      <trkpt lat="48.27601" lon="5.28687">
        <ele>242.86</ele>
        <time>2025-01-04T14:32:06.350Z</time>
      </trkpt>
      <trkpt lat="48.27573" lon="5.28707">
        <ele>243.24</ele>
        <time>2025-01-04T14:32:10.954Z</time>
      </trkpt>
      <trkpt lat="48.27545" lon="5.28727">
        <ele>243.69</ele>
        <time>2025-01-04T14:32:15.563Z</time>
      </trkpt>
      <trkpt lat="48.27517" lon="5.28747">
        <ele>244.11</ele>
        <time>2025-01-04T14:32:20.177Z</time>
      </trkpt>
      <trkpt lat="48.27489" lon="5.28766">
        <ele>244.48</ele>
        <time>2025-01-04T14:32:24.795Z</time>
      </trkpt>
      <trkpt lat="48.27462" lon="5.28785">
        <ele>244.82</ele>
        <time>2025-01-04T14:32:29.418Z</time>
      </trkpt>
      <trkpt lat="48.27435" lon="5.28804">
        <ele>245.09</ele>
        <time>2025-01-04T14:32:34.046Z</time>
      </trkpt>
      <trkpt lat="48.27408" lon="5.28823">
        <ele>245.31</ele>
        <time>2025-01-04T14:32:38.679Z</time>
      </trkpt>
      <trkpt lat="48.2738" lon="5.28842">
        <ele>245.57</ele>
        <time>2025-01-04T14:32:43.317Z</time>
      </trkpt>
      <trkpt lat="48.27353" lon="5.28861">
        <ele>245.66</ele>
        <time>2025-01-04T14:32:47.959Z</time>
      </trkpt>
      <trkpt lat="48.27326" lon="5.28879">
        <ele>245.71</ele>
        <time>2025-01-04T14:32:52.606Z</time>
      </trkpt>
      <trkpt lat="48.27299" lon="5.28898">
        <ele>245.78</ele>
        <time>2025-01-04T14:32:57.258Z</time>
      </trkpt>
      <trkpt lat="48.27272" lon="5.28917">
        <ele>245.8</ele>
        <time>2025-01-04T14:33:01.915Z</time>
      </trkpt>
      <trkpt lat="48.27245" lon="5.28936">
        <ele>245.72</ele>
        <time>2025-01-04T14:33:06.577Z</time>
      </trkpt>
      <trkpt lat="48.27217" lon="5.28947">
        <ele>245.61</ele>
        <time>2025-01-04T14:33:11.243Z</time>
      </trkpt>
      <trkpt lat="48.27189" lon="5.28957">
        <ele>245.53</ele>
        <time>2025-01-04T14:33:15.914Z</time>
      </trkpt>
      <trkpt lat="48.27158" lon="5.28963">
        <ele>245.46</ele>
        <time>2025-01-04T14:33:20.590Z</time>
      </trkpt>
      <trkpt lat="48.27127" lon="5.28969">
        <ele>245.39</ele>
        <time>2025-01-04T14:33:25.271Z</time>
      </trkpt>
      <trkpt lat="48.27095" lon="5.28974">
        <ele>245.27</ele>
        <time>2025-01-04T14:33:29.957Z</time>
      </trkpt>
      <trkpt lat="48.27064" lon="5.2898">
        <ele>245.14</ele>
        <time>2025-01-04T14:33:34.648Z</time>
      </trkpt>
      <trkpt lat="48.27033" lon="5.28986">
        <ele>244.96</ele>
        <time>2025-01-04T14:33:39.344Z</time>
      </trkpt>
      <trkpt lat="48.27002" lon="5.28991">
        <ele>244.81</ele>
        <time>2025-01-04T14:33:44.045Z</time>
      </trkpt>
      <trkpt lat="48.26971" lon="5.28997">
        <ele>244.71</ele>
        <time>2025-01-04T14:33:48.751Z</time>
      </trkpt>
      <trkpt lat="48.2694" lon="5.29002">
        <ele>244.64</ele>
        <time>2025-01-04T14:33:53.462Z</time>
      </trkpt>
      <trkpt lat="48.26923" lon="5.29007">
        <ele>244.56</ele>
        <time>2025-01-04T14:33:58.176Z</time>
      </trkpt>
      <trkpt lat="48.26905" lon="5.29011">
        <ele>244.45</ele>
        <time>2025-01-04T14:34:02.893Z</time>
      </trkpt>
      <trkpt lat="48.26878" lon="5.29024">
        <ele>244.35</ele>
        <time>2025-01-04T14:34:07.614Z</time>
      </trkpt>
      <trkpt lat="48.26858" lon="5.29038">
        <ele>244.26</ele>
        <time>2025-01-04T14:34:12.339Z</time>
      </trkpt>
      <trkpt lat="48.26839" lon="5.29052">
        <ele>244.21</ele>
        <time>2025-01-04T14:34:17.067Z</time>
      </trkpt>
      <trkpt lat="48.26815" lon="5.29082">
        <ele>244.14</ele>
        <time>2025-01-04T14:34:21.800Z</time>
      </trkpt>
      <trkpt lat="48.268" lon="5.29111">
        <ele>244.02</ele>
        <time>2025-01-04T14:34:26.537Z</time>
      </trkpt>
      <trkpt lat="48.26785" lon="5.29141">
        <ele>243.91</ele>
        <time>2025-01-04T14:34:31.278Z</time>
      </trkpt>
      <trkpt lat="48.2677" lon="5.2917">
        <ele>243.72</ele>
        <time>2025-01-04T14:34:36.023Z</time>
      </trkpt>
      <trkpt lat="48.26755" lon="5.29208">
        <ele>243.69</ele>
        <time>2025-01-04T14:34:40.773Z</time>
      </trkpt>
      <trkpt lat="48.26741" lon="5.29246">
        <ele>243.64</ele>
        <time>2025-01-04T14:34:45.527Z</time>
      </trkpt>
      <trkpt lat="48.26726" lon="5.29284">
        <ele>243.64</ele>
        <time>2025-01-04T14:34:50.286Z</time>
      </trkpt>
      <trkpt lat="48.26711" lon="5.29322">
        <ele>243.52</ele>
        <time>2025-01-04T14:34:55.050Z</time>
      </trkpt>
      <trkpt lat="48.26696" lon="5.2936">
        <ele>243.43</ele>
        <time>2025-01-04T14:34:59.818Z</time>
      </trkpt>
      <trkpt lat="48.26681" lon="5.29398">
        <ele>243.29</ele>
        <time>2025-01-04T14:35:04.591Z</time>
      </trkpt>
      <trkpt lat="48.26666" lon="5.29436">
        <ele>243.15</ele>
        <time>2025-01-04T14:35:09.369Z</time>
      </trkpt>
      <trkpt lat="48.26652" lon="5.29474">
        <ele>243.01</ele>
        <time>2025-01-04T14:35:14.152Z</time>
      </trkpt>
      <trkpt lat="48.26637" lon="5.29512">
        <ele>242.85</ele>
        <time>2025-01-04T14:35:18.939Z</time>
      </trkpt>
      <trkpt lat="48.26622" lon="5.2955">
        <ele>242.67</ele>
        <time>2025-01-04T14:35:23.731Z</time>
      </trkpt>
      <trkpt lat="48.26617" lon="5.29575">
        <ele>242.57</ele>
        <time>2025-01-04T14:35:28.526Z</time>
      </trkpt>
      <trkpt lat="48.26612" lon="5.29601">
        <ele>242.49</ele>
        <time>2025-01-04T14:35:33.324Z</time>
      </trkpt>
      <trkpt lat="48.26612" lon="5.29625">
        <ele>242.44</ele>
        <time>2025-01-04T14:35:38.124Z</time>
      </trkpt>
      <trkpt lat="48.26613" lon="5.29669">
        <ele>242.39</ele>
        <time>2025-01-04T14:35:42.929Z</time>
      </trkpt>
      <trkpt lat="48.26615" lon="5.29714">
        <ele>242.35</ele>
        <time>2025-01-04T14:35:47.739Z</time>
      </trkpt>
      <trkpt lat="48.26617" lon="5.29759">
        <ele>242.38</ele>
        <time>2025-01-04T14:35:52.554Z</time>
      </trkpt>
      <trkpt lat="48.26618" lon="5.29804">
        <ele>242.43</ele>
        <time>2025-01-04T14:35:57.373Z</time>
      </trkpt>
      <trkpt lat="48.2662" lon="5.29848">
        <ele>242.51</ele>
        <time>2025-01-04T14:36:02.197Z</time>
      </trkpt>
      <trkpt lat="48.26622" lon="5.29893">
        <ele>242.6</ele>
        <time>2025-01-04T14:36:07.026Z</time>
      </trkpt>
      <trkpt lat="48.26624" lon="5.29938">
        <ele>242.71</ele>
        <time>2025-01-04T14:36:11.860Z</time>
      </trkpt>
      <trkpt lat="48.26625" lon="5.29983">
        <ele>242.7</ele>
        <time>2025-01-04T14:36:16.699Z</time>
      </trkpt>
      <trkpt lat="48.26627" lon="5.30027">
        <ele>242.71</ele>
        <time>2025-01-04T14:36:21.542Z</time>
      </trkpt>
      <trkpt lat="48.26629" lon="5.30071">
        <ele>242.73</ele>
        <time>2025-01-04T14:36:26.390Z</time>
      </trkpt>
      <trkpt lat="48.26633" lon="5.30095">
        <ele>242.73</ele>
        <time>2025-01-04T14:36:31.241Z</time>
      </trkpt>
      <trkpt lat="48.26637" lon="5.30118">
        <ele>242.75</ele>
        <time>2025-01-04T14:36:36.094Z</time>
      </trkpt>
      <trkpt lat="48.26648" lon="5.30162">
        <ele>242.75</ele>
        <time>2025-01-04T14:36:40.952Z</time>
      </trkpt>
      <trkpt lat="48.26658" lon="5.30206">
        <ele>242.74</ele>
        <time>2025-01-04T14:36:45.815Z</time>
      </trkpt>
      <trkpt lat="48.26668" lon="5.30251">
        <ele>242.78</ele>
        <time>2025-01-04T14:36:50.683Z</time>
      </trkpt>
      <trkpt lat="48.26679" lon="5.30295">
        <ele>242.81</ele>
        <time>2025-01-04T14:36:55.556Z</time>
      </trkpt>
      <trkpt lat="48.26689" lon="5.30339">
        <ele>242.79</ele>
        <time>2025-01-04T14:37:00.434Z</time>
      </trkpt>
      <trkpt lat="48.26699" lon="5.30382">
        <ele>242.69</ele>
        <time>2025-01-04T14:37:05.317Z</time>
      </trkpt>
      <trkpt lat="48.26708" lon="5.30412">
        <ele>242.62</ele>
        <time>2025-01-04T14:37:10.204Z</time>
      </trkpt>
      <trkpt lat="48.26717" lon="5.30442">
        <ele>242.5</ele>
        <time>2025-01-04T14:37:15.094Z</time>
      </trkpt>
      <trkpt lat="48.26725" lon="5.30472">
        <ele>242.43</ele>
        <time>2025-01-04T14:37:19.988Z</time>
      </trkpt>
      <trkpt lat="48.26742" lon="5.3051">
        <ele>242.37</ele>
        <time>2025-01-04T14:37:24.887Z</time>
      </trkpt>
      <trkpt lat="48.2676" lon="5.30547">
        <ele>242.27</ele>
        <time>2025-01-04T14:37:29.790Z</time>
      </trkpt>
      <trkpt lat="48.26774" lon="5.30575">
        <ele>242.17</ele>
        <time>2025-01-04T14:37:34.697Z</time>
      </trkpt>
      <trkpt lat="48.26787" lon="5.30603">
        <ele>242.05</ele>
        <time>2025-01-04T14:37:39.608Z</time>
      </trkpt>
      <trkpt lat="48.26761" lon="5.30612">
        <ele>241.64</ele>
        <time>2025-01-04T14:37:44.523Z</time>
      </trkpt>
      <trkpt lat="48.26734" lon="5.3062">
        <ele>241.27</ele>
        <time>2025-01-04T14:37:49.443Z</time>
      </trkpt>
      <trkpt lat="48.2673" lon="5.3062">
        <ele>241.03</ele>
        <time>2025-01-04T14:37:54.363Z</time>
      </trkpt>
      <trkpt lat="48.26702" lon="5.30631">
        <ele>240.76</ele>
        <time>2025-01-04T14:37:59.288Z</time>
      </trkpt>
      <trkpt lat="48.26674" lon="5.30642">
        <ele>240.49</ele>
        <time>2025-01-04T14:38:04.218Z</time>
      </trkpt>
      <trkpt lat="48.26645" lon="5.30649">
        <ele>240.26</ele>
        <time>2025-01-04T14:38:09.152Z</time>
      </trkpt>
      <trkpt lat="48.26615" lon="5.30656">
        <ele>239.95</ele>
        <time>2025-01-04T14:38:14.091Z</time>
      </trkpt>
      <trkpt lat="48.26586" lon="5.30662">
        <ele>239.6</ele>
        <time>2025-01-04T14:38:19.035Z</time>
      </trkpt>
      <trkpt lat="48.26557" lon="5.30669">
        <ele>239.33</ele>
        <time>2025-01-04T14:38:23.983Z</time>
      </trkpt>
      <trkpt lat="48.26528" lon="5.30676">
        <ele>239.16</ele>
        <time>2025-01-04T14:38:28.936Z</time>
      </trkpt>
      <trkpt lat="48.26501" lon="5.30679">
        <ele>238.97</ele>
        <time>2025-01-04T14:38:33.893Z</time>
      </trkpt>
      <trkpt lat="48.26474" lon="5.30683">
        <ele>238.8</ele>
        <time>2025-01-04T14:38:38.855Z</time>
      </trkpt>
      <trkpt lat="48.26447" lon="5.30686">
        <ele>238.62</ele>
        <time>2025-01-04T14:38:43.821Z</time>
      </trkpt>
      <trkpt lat="48.26421" lon="5.30689">
        <ele>238.47</ele>
        <time>2025-01-04T14:38:48.791Z</time>
      </trkpt>
      <trkpt lat="48.26396" lon="5.3069">
        <ele>238.33</ele>
        <time>2025-01-04T14:38:53.765Z</time>
      </trkpt>
      <trkpt lat="48.26372" lon="5.30691">
        <ele>238.16</ele>
        <time>2025-01-04T14:38:58.743Z</time>
      </trkpt>
      <trkpt lat="48.26348" lon="5.30692">
        <ele>238</ele>
        <time>2025-01-04T14:39:03.725Z</time>
      </trkpt>
      <trkpt lat="48.26324" lon="5.30693">
        <ele>237.89</ele>
        <time>2025-01-04T14:39:08.711Z</time>
      </trkpt>
      <trkpt lat="48.26307" lon="5.30693">
        <ele>237.82</ele>
        <time>2025-01-04T14:39:13.700Z</time>
      </trkpt>
      <trkpt lat="48.26276" lon="5.30693">
        <ele>237.73</ele>
        <time>2025-01-04T14:39:18.694Z</time>
      </trkpt>
      <trkpt lat="48.26245" lon="5.30693">
        <ele>237.54</ele>
        <time>2025-01-04T14:39:23.692Z</time>
      </trkpt>
      <trkpt lat="48.26215" lon="5.30693">
        <ele>237.45</ele>
        <time>2025-01-04T14:39:28.695Z</time>
      </trkpt>
      <trkpt lat="48.2619" lon="5.30689">
        <ele>237.42</ele>
        <time>2025-01-04T14:39:33.702Z</time>
      </trkpt>
      <trkpt lat="48.26165" lon="5.30685">
        <ele>237.42</ele>
        <time>2025-01-04T14:39:38.713Z</time>
      </trkpt>
      <trkpt lat="48.26136" lon="5.30679">
        <ele>237.38</ele>
        <time>2025-01-04T14:39:43.729Z</time>
      </trkpt>
      <trkpt lat="48.26106" lon="5.30674">
        <ele>237.36</ele>
        <time>2025-01-04T14:39:48.750Z</time>
      </trkpt>
      <trkpt lat="48.26076" lon="5.30669">
        <ele>237.39</ele>
        <time>2025-01-04T14:39:53.776Z</time>
      </trkpt>
      <trkpt lat="48.26046" lon="5.30663">
        <ele>237.38</ele>
        <time>2025-01-04T14:39:58.806Z</time>
      </trkpt>
      <trkpt lat="48.26017" lon="5.30658">
        <ele>237.38</ele>
        <time>2025-01-04T14:40:03.841Z</time>
      </trkpt>
      <trkpt lat="48.25987" lon="5.30653">
        <ele>237.38</ele>
        <time>2025-01-04T14:40:08.881Z</time>
      </trkpt>
      <trkpt lat="48.2596" lon="5.30645">
        <ele>237.38</ele>
        <time>2025-01-04T14:40:13.925Z</time>
      </trkpt>
      <trkpt lat="48.25933" lon="5.30638">
        <ele>237.4</ele>
        <time>2025-01-04T14:40:18.974Z</time>
      </trkpt>
      <trkpt lat="48.25918" lon="5.3063">
        <ele>237.41</ele>
        <time>2025-01-04T14:40:24.025Z</time>
      </trkpt>
      <trkpt lat="48.25903" lon="5.30622">
        <ele>237.4</ele>
        <time>2025-01-04T14:40:29.079Z</time>
      </trkpt>
      <trkpt lat="48.25903" lon="5.30622">
        <ele>237.43</ele>
        <time>2025-01-04T14:40:34.133Z</time>
      </trkpt>
      <trkpt lat="48.25874" lon="5.30605">
        <ele>237.4</ele>
        <time>2025-01-04T14:40:39.192Z</time>
      </trkpt>
      <trkpt lat="48.25845" lon="5.30587">
        <ele>237.47</ele>
        <time>2025-01-04T14:40:44.256Z</time>
      </trkpt>
      <trkpt lat="48.25816" lon="5.30569">
        <ele>237.53</ele>
        <time>2025-01-04T14:40:49.325Z</time>
      </trkpt>
      <trkpt lat="48.25787" lon="5.30551">
        <ele>237.55</ele>
        <time>2025-01-04T14:40:54.399Z</time>
      </trkpt>
      <trkpt lat="48.25758" lon="5.30534">
        <ele>237.62</ele>
        <time>2025-01-04T14:40:59.478Z</time>
      </trkpt>
      <trkpt lat="48.25729" lon="5.30516">
        <ele>237.75</ele>
        <time>2025-01-04T14:41:04.562Z</time>
      </trkpt>
      <trkpt lat="48.257" lon="5.30498">
        <ele>237.91</ele>
        <time>2025-01-04T14:41:09.651Z</time>
      </trkpt>
      <trkpt lat="48.25674" lon="5.30481">
        <ele>238.01</ele>
        <time>2025-01-04T14:41:14.745Z</time>
      </trkpt>
      <trkpt lat="48.25649" lon="5.30464">
        <ele>238.06</ele>
        <time>2025-01-04T14:41:19.843Z</time>
      </trkpt>
      <trkpt lat="48.25624" lon="5.30447">
        <ele>238.1</ele>
        <time>2025-01-04T14:41:24.945Z</time>
      </trkpt>
      <trkpt lat="48.25599" lon="5.30429">
        <ele>238.21</ele>
        <time>2025-01-04T14:41:30.052Z</time>
      </trkpt>
      <trkpt lat="48.25574" lon="5.30412">
        <ele>238.34</ele>
        <time>2025-01-04T14:41:35.163Z</time>
      </trkpt>
      <trkpt lat="48.25549" lon="5.30394">
        <ele>238.57</ele>
        <time>2025-01-04T14:41:40.279Z</time>
      </trkpt>
      <trkpt lat="48.25525" lon="5.30376">
        <ele>238.75</ele>
        <time>2025-01-04T14:41:45.399Z</time>
      </trkpt>
      <trkpt lat="48.255" lon="5.30359">
        <ele>238.91</ele>
        <time>2025-01-04T14:41:50.523Z</time>
      </trkpt>
      <trkpt lat="48.25475" lon="5.30335">
        <ele>239.07</ele>
        <time>2025-01-04T14:41:55.652Z</time>
      </trkpt>
      <trkpt lat="48.2545" lon="5.30312">
        <ele>239.21</ele>
        <time>2025-01-04T14:42:00.786Z</time>
      </trkpt>
      <trkpt lat="48.25424" lon="5.30289">
        <ele>239.39</ele>
        <time>2025-01-04T14:42:05.925Z</time>
      </trkpt>
      <trkpt lat="48.25399" lon="5.30266">
        <ele>239.61</ele>
        <time>2025-01-04T14:42:11.068Z</time>
      </trkpt>
      <trkpt lat="48.25374" lon="5.30242">
        <ele>239.8</ele>
        <time>2025-01-04T14:42:16.216Z</time>
      </trkpt>
      <trkpt lat="48.25349" lon="5.30217">
        <ele>239.98</ele>
        <time>2025-01-04T14:42:21.369Z</time>
      </trkpt>
      <trkpt lat="48.25324" lon="5.30193">
        <ele>240.16</ele>
        <time>2025-01-04T14:42:26.527Z</time>
      </trkpt>
      <trkpt lat="48.253" lon="5.30168">
        <ele>240.39</ele>
        <time>2025-01-04T14:42:31.689Z</time>
      </trkpt>
      <trkpt lat="48.25275" lon="5.30144">
        <ele>240.57</ele>
        <time>2025-01-04T14:42:36.856Z</time>
      </trkpt>
      <trkpt lat="48.25252" lon="5.30121">
        <ele>240.76</ele>
        <time>2025-01-04T14:42:42.027Z</time>
      </trkpt>
      <trkpt lat="48.2523" lon="5.30099">
        <ele>240.97</ele>
        <time>2025-01-04T14:42:47.203Z</time>
      </trkpt>
      <trkpt lat="48.2523" lon="5.30099">
        <ele>241.16</ele>
        <time>2025-01-04T14:42:52.379Z</time>
      </trkpt>
      <trkpt lat="48.25209" lon="5.30077">
        <ele>241.36</ele>
        <time>2025-01-04T14:42:57.559Z</time>
      </trkpt>
      <trkpt lat="48.25189" lon="5.30056">
        <ele>241.53</ele>
        <time>2025-01-04T14:43:02.743Z</time>
      </trkpt>
      <trkpt lat="48.25168" lon="5.30034">
        <ele>241.73</ele>
        <time>2025-01-04T14:43:07.931Z</time>
      </trkpt>
      <trkpt lat="48.25148" lon="5.30013">
        <ele>241.92</ele>
        <time>2025-01-04T14:43:13.123Z</time>
      </trkpt>
      <trkpt lat="48.25133" lon="5.3">
        <ele>242.12</ele>
        <time>2025-01-04T14:43:18.318Z</time>
      </trkpt>
      <trkpt lat="48.25118" lon="5.29987">
        <ele>242.34</ele>
        <time>2025-01-04T14:43:23.515Z</time>
      </trkpt>
      <trkpt lat="48.25096" lon="5.29974">
        <ele>242.58</ele>
        <time>2025-01-04T14:43:28.716Z</time>
      </trkpt>
      <trkpt lat="48.25073" lon="5.29962">
        <ele>242.85</ele>
        <time>2025-01-04T14:43:33.921Z</time>
      </trkpt>
      <trkpt lat="48.25047" lon="5.29942">
        <ele>243.14</ele>
        <time>2025-01-04T14:43:39.131Z</time>
      </trkpt>
      <trkpt lat="48.25028" lon="5.29918">
        <ele>243.4</ele>
        <time>2025-01-04T14:43:44.345Z</time>
      </trkpt>
      <trkpt lat="48.25009" lon="5.29893">
        <ele>243.72</ele>
        <time>2025-01-04T14:43:49.563Z</time>
      </trkpt>
      <trkpt lat="48.24989" lon="5.29868">
        <ele>244.02</ele>
        <time>2025-01-04T14:43:54.785Z</time>
      </trkpt>
      <trkpt lat="48.2497" lon="5.29844">
        <ele>244.33</ele>
        <time>2025-01-04T14:44:00.011Z</time>
      </trkpt>
      <trkpt lat="48.24945" lon="5.29818">
        <ele>244.76</ele>
        <time>2025-01-04T14:44:05.242Z</time>
      </trkpt>
      <trkpt lat="48.24921" lon="5.29792">
        <ele>245.06</ele>
        <time>2025-01-04T14:44:10.478Z</time>
      </trkpt>
      <trkpt lat="48.24901" lon="5.29777">
        <ele>245.31</ele>
        <time>2025-01-04T14:44:15.717Z</time>
      </trkpt>
      <trkpt lat="48.24875" lon="5.29763">
        <ele>245.52</ele>
        <time>2025-01-04T14:44:20.961Z</time>
      </trkpt>
      <trkpt lat="48.24848" lon="5.29749">
        <ele>245.6</ele>
        <time>2025-01-04T14:44:26.209Z</time>
      </trkpt>
      <trkpt lat="48.2483" lon="5.2973">
        <ele>245.72</ele>
        <time>2025-01-04T14:44:31.461Z</time>
      </trkpt>
      <trkpt lat="48.24812" lon="5.2971">
        <ele>245.84</ele>
        <time>2025-01-04T14:44:36.716Z</time>
      </trkpt>
      <trkpt lat="48.24794" lon="5.29691">
        <ele>245.96</ele>
        <time>2025-01-04T14:44:41.975Z</time>
      </trkpt>
      <trkpt lat="48.24773" lon="5.29678">
        <ele>246.08</ele>
        <time>2025-01-04T14:44:47.237Z</time>
      </trkpt>
      <trkpt lat="48.24749" lon="5.29678">
        <ele>246.15</ele>
        <time>2025-01-04T14:44:52.503Z</time>
      </trkpt>
      <trkpt lat="48.24725" lon="5.29677">
        <ele>246.22</ele>
        <time>2025-01-04T14:44:57.773Z</time>
      </trkpt>
      <trkpt lat="48.24702" lon="5.29676">
        <ele>246.31</ele>
        <time>2025-01-04T14:45:03.047Z</time>
      </trkpt>
      <trkpt lat="48.24672" lon="5.29685">
        <ele>246.43</ele>
        <time>2025-01-04T14:45:08.326Z</time>
      </trkpt>
      <trkpt lat="48.24642" lon="5.29693">
        <ele>246.56</ele>
        <time>2025-01-04T14:45:13.610Z</time>
      </trkpt>
      <trkpt lat="48.24613" lon="5.29704">
        <ele>246.68</ele>
        <time>2025-01-04T14:45:18.898Z</time>
      </trkpt>
      <trkpt lat="48.24585" lon="5.29714">
        <ele>246.78</ele>
        <time>2025-01-04T14:45:24.191Z</time>
      </trkpt>
      <trkpt lat="48.24556" lon="5.29724">
        <ele>246.9</ele>
        <time>2025-01-04T14:45:29.489Z</time>
      </trkpt>
      <trkpt lat="48.24528" lon="5.29734">
        <ele>246.95</ele>
        <time>2025-01-04T14:45:34.791Z</time>
      </trkpt>
      <trkpt lat="48.24502" lon="5.29736">
        <ele>247.03</ele>
        <time>2025-01-04T14:45:40.097Z</time>
      </trkpt>
      <trkpt lat="48.24485" lon="5.2973">
        <ele>247.11</ele>
        <time>2025-01-04T14:45:45.406Z</time>
      </trkpt>
      <trkpt lat="48.24461" lon="5.29711">
        <ele>247.16</ele>
        <time>2025-01-04T14:45:50.720Z</time>
      </trkpt>
      <trkpt lat="48.24442" lon="5.29685">
        <ele>247.22</ele>
        <time>2025-01-04T14:45:56.038Z</time>
      </trkpt>
      <trkpt lat="48.24423" lon="5.2966">
        <ele>247.28</ele>
        <time>2025-01-04T14:46:01.360Z</time>
      </trkpt>
      <trkpt lat="48.24404" lon="5.29635">
        <ele>247.31</ele>
        <time>2025-01-04T14:46:06.686Z</time>
      </trkpt>
      <trkpt lat="48.24393" lon="5.29627">
        <ele>247.41</ele>
        <time>2025-01-04T14:46:12.014Z</time>
      </trkpt>
      <trkpt lat="48.24365" lon="5.29617">
        <ele>247.62</ele>
        <time>2025-01-04T14:46:17.346Z</time>
      </trkpt>
      <trkpt lat="48.24337" lon="5.29608">
        <ele>247.85</ele>
        <time>2025-01-04T14:46:22.683Z</time>
      </trkpt>
      <trkpt lat="48.24335" lon="5.29584">
        <ele>247.92</ele>
        <time>2025-01-04T14:46:28.022Z</time>
      </trkpt>
      <trkpt lat="48.24337" lon="5.29567">
        <ele>248.04</ele>
        <time>2025-01-04T14:46:33.363Z</time>
      </trkpt>
      <trkpt lat="48.24339" lon="5.29547">
        <ele>248.2</ele>
        <time>2025-01-04T14:46:38.706Z</time>
      </trkpt>
      <trkpt lat="48.24343" lon="5.29511">
        <ele>248.44</ele>
        <time>2025-01-04T14:46:44.053Z</time>
      </trkpt>
      <trkpt lat="48.24341" lon="5.29487">
        <ele>248.74</ele>
        <time>2025-01-04T14:46:49.403Z</time>
      </trkpt>
      <trkpt lat="48.24358" lon="5.29468">
        <ele>249.07</ele>
        <time>2025-01-04T14:46:54.756Z</time>
      </trkpt>
      <trkpt lat="48.24363" lon="5.29462">
        <ele>249.41</ele>
        <time>2025-01-04T14:47:00.110Z</time>
      </trkpt>
      <trkpt lat="48.24363" lon="5.29453">
        <ele>249.79</ele>
        <time>2025-01-04T14:47:05.465Z</time>
      </trkpt>
      <trkpt lat="48.24361" lon="5.2944">
        <ele>250.19</ele>
        <time>2025-01-04T14:47:10.822Z</time>
      </trkpt>
      <trkpt lat="48.24361" lon="5.2944">
        <ele>250.63</ele>
        <time>2025-01-04T14:47:16.179Z</time>
      </trkpt>
      <trkpt lat="48.24358" lon="5.2944">
        <ele>251.1</ele>
        <time>2025-01-04T14:47:21.536Z</time>
      </trkpt>
      <trkpt lat="48.24353" lon="5.29426">
        <ele>251.63</ele>
        <time>2025-01-04T14:47:26.895Z</time>
      </trkpt>
      <trkpt lat="48.24345" lon="5.29405">
        <ele>252.21</ele>
        <time>2025-01-04T14:47:32.256Z</time>
      </trkpt>
      <trkpt lat="48.24337" lon="5.29384">
        <ele>252.82</ele>
        <time>2025-01-04T14:47:37.620Z</time>
      </trkpt>
      <trkpt lat="48.24328" lon="5.29364">
        <ele>253.44</ele>
        <time>2025-01-04T14:47:42.987Z</time>
      </trkpt>
      <trkpt lat="48.24318" lon="5.29355">
        <ele>254.1</ele>
        <time>2025-01-04T14:47:48.355Z</time>
      </trkpt>
      <trkpt lat="48.24304" lon="5.2934">
        <ele>254.81</ele>
        <time>2025-01-04T14:47:53.726Z</time>
      </trkpt>
      <trkpt lat="48.24289" lon="5.29326">
        <ele>255.56</ele>
        <time>2025-01-04T14:47:59.100Z</time>
      </trkpt>
      <trkpt lat="48.24269" lon="5.29301">
        <ele>256.37</ele>
        <time>2025-01-04T14:48:04.478Z</time>
      </trkpt>
      <trkpt lat="48.24255" lon="5.2927">
        <ele>257.25</ele>
        <time>2025-01-04T14:48:09.860Z</time>
      </trkpt>
      <trkpt lat="48.24243" lon="5.29242">
        <ele>258.17</ele>
        <time>2025-01-04T14:48:15.246Z</time>
      </trkpt>
      <trkpt lat="48.2423" lon="5.29211">
        <ele>259.14</ele>
        <time>2025-01-04T14:48:20.636Z</time>
      </trkpt>
      <trkpt lat="48.24217" lon="5.29182">
        <ele>260.1</ele>
        <time>2025-01-04T14:48:26.029Z</time>
      </trkpt>
      <trkpt lat="48.24201" lon="5.29148">
        <ele>261.03</ele>
        <time>2025-01-04T14:48:31.427Z</time>
      </trkpt>
      <trkpt lat="48.24185" lon="5.29117">
        <ele>261.84</ele>
        <time>2025-01-04T14:48:36.829Z</time>
      </trkpt>
      <trkpt lat="48.24166" lon="5.29079">
        <ele>262.61</ele>
        <time>2025-01-04T14:48:42.236Z</time>
      </trkpt>
      <trkpt lat="48.24154" lon="5.29056">
        <ele>263.44</ele>
        <time>2025-01-04T14:48:47.646Z</time>
      </trkpt>
      <trkpt lat="48.24142" lon="5.29032">
        <ele>264.27</ele>
        <time>2025-01-04T14:48:53.059Z</time>
      </trkpt>
      <trkpt lat="48.24131" lon="5.29011">
        <ele>265.06</ele>
        <time>2025-01-04T14:48:58.475Z</time>
      </trkpt>
      <trkpt lat="48.24121" lon="5.2899">
        <ele>265.79</ele>
        <time>2025-01-04T14:49:03.894Z</time>
      </trkpt>
      <trkpt lat="48.24109" lon="5.28965">
        <ele>266.45</ele>
        <time>2025-01-04T14:49:09.316Z</time>
      </trkpt>
      <trkpt lat="48.24098" lon="5.28939">
        <ele>267.13</ele>
        <time>2025-01-04T14:49:14.742Z</time>
      </trkpt>
      <trkpt lat="48.24087" lon="5.28913">
        <ele>267.77</ele>
        <time>2025-01-04T14:49:20.171Z</time>
      </trkpt>
      <trkpt lat="48.24076" lon="5.28887">
        <ele>268.4</ele>
        <time>2025-01-04T14:49:25.603Z</time>
      </trkpt>
      <trkpt lat="48.24064" lon="5.28857">
        <ele>268.97</ele>
        <time>2025-01-04T14:49:31.039Z</time>
      </trkpt>
      <trkpt lat="48.24052" lon="5.28828">
        <ele>269.54</ele>
        <time>2025-01-04T14:49:36.479Z</time>
      </trkpt>
      <trkpt lat="48.24038" lon="5.28794">
        <ele>269.93</ele>
        <time>2025-01-04T14:49:41.923Z</time>
      </trkpt>
      <trkpt lat="48.24035" lon="5.28787">
        <ele>270.35</ele>
        <time>2025-01-04T14:49:47.368Z</time>
      </trkpt>
      <trkpt lat="48.24028" lon="5.28767">
        <ele>270.7</ele>
        <time>2025-01-04T14:49:52.815Z</time>
      </trkpt>
      <trkpt lat="48.24022" lon="5.28754">
        <ele>271.04</ele>
        <time>2025-01-04T14:49:58.264Z</time>
      </trkpt>
      <trkpt lat="48.2401" lon="5.28731">
        <ele>271.37</ele>
        <time>2025-01-04T14:50:03.716Z</time>
      </trkpt>
      <trkpt lat="48.23997" lon="5.28708">
        <ele>271.66</ele>
        <time>2025-01-04T14:50:09.171Z</time>
      </trkpt>
      <trkpt lat="48.23994" lon="5.28702">
        <ele>271.84</ele>
        <time>2025-01-04T14:50:14.627Z</time>
      </trkpt>
      <trkpt lat="48.23979" lon="5.28678">
        <ele>271.97</ele>
        <time>2025-01-04T14:50:20.086Z</time>
      </trkpt>
      <trkpt lat="48.23965" lon="5.28655">
        <ele>272.05</ele>
        <time>2025-01-04T14:50:25.549Z</time>
      </trkpt>
      <trkpt lat="48.23945" lon="5.28626">
        <ele>272.1</ele>
        <time>2025-01-04T14:50:31.016Z</time>
      </trkpt>
      <trkpt lat="48.23924" lon="5.28598">
        <ele>272.06</ele>
        <time>2025-01-04T14:50:36.488Z</time>
      </trkpt>
      <trkpt lat="48.23908" lon="5.28576">
        <ele>271.94</ele>
        <time>2025-01-04T14:50:41.963Z</time>
      </trkpt>
      <trkpt lat="48.23892" lon="5.28554">
        <ele>271.76</ele>
        <time>2025-01-04T14:50:47.442Z</time>
      </trkpt>
      <trkpt lat="48.23871" lon="5.28526">
        <ele>271.5</ele>
        <time>2025-01-04T14:50:52.925Z</time>
      </trkpt>
      <trkpt lat="48.23851" lon="5.28498">
        <ele>271.21</ele>
        <time>2025-01-04T14:50:58.413Z</time>
      </trkpt>
      <trkpt lat="48.23847" lon="5.28492">
        <ele>270.99</ele>
        <time>2025-01-04T14:51:03.902Z</time>
      </trkpt>
      <trkpt lat="48.23831" lon="5.28469">
        <ele>270.74</ele>
        <time>2025-01-04T14:51:09.394Z</time>
      </trkpt>
      <trkpt lat="48.23815" lon="5.28446">
        <ele>270.49</ele>
        <time>2025-01-04T14:51:14.890Z</time>
      </trkpt>
      <trkpt lat="48.23799" lon="5.28414">
        <ele>270.25</ele>
        <time>2025-01-04T14:51:20.390Z</time>
      </trkpt>
      <trkpt lat="48.23783" lon="5.28383">
        <ele>270.02</ele>
        <time>2025-01-04T14:51:25.894Z</time>
      </trkpt>
      <trkpt lat="48.23773" lon="5.28354">
        <ele>269.73</ele>
        <time>2025-01-04T14:51:31.402Z</time>
      </trkpt>
      <trkpt lat="48.23762" lon="5.28325">
        <ele>269.57</ele>
        <time>2025-01-04T14:51:36.913Z</time>
      </trkpt>
      <trkpt lat="48.2375" lon="5.28286">
        <ele>269.42</ele>
        <time>2025-01-04T14:51:42.429Z</time>
      </trkpt>
      <trkpt lat="48.23737" lon="5.28247">
        <ele>269.3</ele>
        <time>2025-01-04T14:51:47.949Z</time>
      </trkpt>
      <trkpt lat="48.23734" lon="5.28237">
        <ele>269.23</ele>
        <time>2025-01-04T14:51:53.471Z</time>
      </trkpt>
      <trkpt lat="48.23721" lon="5.28196">
        <ele>269.17</ele>
        <time>2025-01-04T14:51:58.997Z</time>
      </trkpt>
      <trkpt lat="48.23708" lon="5.28156">
        <ele>269.2</ele>
        <time>2025-01-04T14:52:04.528Z</time>
      </trkpt>
      <trkpt lat="48.23694" lon="5.28127">
        <ele>269.28</ele>
        <time>2025-01-04T14:52:10.063Z</time>
      </trkpt>
      <trkpt lat="48.23681" lon="5.28099">
        <ele>269.44</ele>
        <time>2025-01-04T14:52:15.602Z</time>
      </trkpt>
      <trkpt lat="48.23664" lon="5.28077">
        <ele>269.66</ele>
        <time>2025-01-04T14:52:21.144Z</time>
      </trkpt>
      <trkpt lat="48.23647" lon="5.28055">
        <ele>269.84</ele>
        <time>2025-01-04T14:52:26.690Z</time>
      </trkpt>
      <trkpt lat="48.23626" lon="5.28038">
        <ele>270.07</ele>
        <time>2025-01-04T14:52:32.240Z</time>
      </trkpt>
      <trkpt lat="48.23605" lon="5.2802">
        <ele>270.34</ele>
        <time>2025-01-04T14:52:37.794Z</time>
      </trkpt>
      <trkpt lat="48.23585" lon="5.28005">
        <ele>270.68</ele>
        <time>2025-01-04T14:52:43.351Z</time>
      </trkpt>
      <trkpt lat="48.23564" lon="5.2799">
        <ele>271.07</ele>
        <time>2025-01-04T14:52:48.912Z</time>
      </trkpt>
      <trkpt lat="48.23545" lon="5.27971">
        <ele>271.46</ele>
        <time>2025-01-04T14:52:54.477Z</time>
      </trkpt>
      <trkpt lat="48.23525" lon="5.27951">
        <ele>271.84</ele>
        <time>2025-01-04T14:53:00.045Z</time>
      </trkpt>
      <trkpt lat="48.23509" lon="5.27935">
        <ele>272.26</ele>
        <time>2025-01-04T14:53:05.616Z</time>
      </trkpt>
      <trkpt lat="48.23493" lon="5.27919">
        <ele>272.74</ele>
        <time>2025-01-04T14:53:11.190Z</time>
      </trkpt>
      <trkpt lat="48.23479" lon="5.27904">
        <ele>273.25</ele>
        <time>2025-01-04T14:53:16.767Z</time>
      </trkpt>
      <trkpt lat="48.23466" lon="5.27889">
        <ele>273.79</ele>
        <time>2025-01-04T14:53:22.347Z</time>
      </trkpt>
      <trkpt lat="48.23451" lon="5.27868">
        <ele>274.32</ele>
        <time>2025-01-04T14:53:27.930Z</time>
      </trkpt>
      <trkpt lat="48.23436" lon="5.27847">
        <ele>274.86</ele>
        <time>2025-01-04T14:53:33.516Z</time>
      </trkpt>
      <trkpt lat="48.23424" lon="5.27823">
        <ele>275.4</ele>
        <time>2025-01-04T14:53:39.106Z</time>
      </trkpt>
      <trkpt lat="48.23412" lon="5.27798">
        <ele>275.91</ele>
        <time>2025-01-04T14:53:44.699Z</time>
      </trkpt>
      <trkpt lat="48.23395" lon="5.27764">
        <ele>276.46</ele>
        <time>2025-01-04T14:53:50.297Z</time>
      </trkpt>
      <trkpt lat="48.23379" lon="5.27729">
        <ele>277.03</ele>
        <time>2025-01-04T14:53:55.899Z</time>
      </trkpt>
      <trkpt lat="48.23367" lon="5.27705">
        <ele>277.63</ele>
        <time>2025-01-04T14:54:01.504Z</time>
      </trkpt>
      <trkpt lat="48.23355" lon="5.27681">
        <ele>278.24</ele>
        <time>2025-01-04T14:54:07.112Z</time>
      </trkpt>
      <trkpt lat="48.23341" lon="5.27651">
        <ele>278.88</ele>
        <time>2025-01-04T14:54:12.724Z</time>
      </trkpt>
      <trkpt lat="48.23327" lon="5.27621">
        <ele>279.52</ele>
        <time>2025-01-04T14:54:18.340Z</time>
      </trkpt>
      <trkpt lat="48.23316" lon="5.27599">
        <ele>280.11</ele>
        <time>2025-01-04T14:54:23.959Z</time>
      </trkpt>
      <trkpt lat="48.23305" lon="5.27577">
        <ele>280.66</ele>
        <time>2025-01-04T14:54:29.581Z</time>
      </trkpt>
      <trkpt lat="48.23293" lon="5.2755">
        <ele>281.21</ele>
        <time>2025-01-04T14:54:35.207Z</time>
      </trkpt>
      <trkpt lat="48.2328" lon="5.27524">
        <ele>281.79</ele>
        <time>2025-01-04T14:54:40.836Z</time>
      </trkpt>
      <trkpt lat="48.23268" lon="5.27498">
        <ele>282.35</ele>
        <time>2025-01-04T14:54:46.469Z</time>
      </trkpt>
      <trkpt lat="48.23255" lon="5.27473">
        <ele>282.91</ele>
        <time>2025-01-04T14:54:52.105Z</time>
      </trkpt>
      <trkpt lat="48.23241" lon="5.27442">
        <ele>283.43</ele>
        <time>2025-01-04T14:54:57.745Z</time>
      </trkpt>
      <trkpt lat="48.23226" lon="5.27412">
        <ele>283.99</ele>
        <time>2025-01-04T14:55:03.389Z</time>
      </trkpt>
      <trkpt lat="48.23214" lon="5.27386">
        <ele>284.55</ele>
        <time>2025-01-04T14:55:09.036Z</time>
      </trkpt>
      <trkpt lat="48.23202" lon="5.27361">
        <ele>285.09</ele>
        <time>2025-01-04T14:55:14.687Z</time>
      </trkpt>
      <trkpt lat="48.23191" lon="5.27335">
        <ele>285.64</ele>
        <time>2025-01-04T14:55:20.341Z</time>
      </trkpt>
      <trkpt lat="48.2318" lon="5.27308">
        <ele>286.19</ele>
        <time>2025-01-04T14:55:25.998Z</time>
      </trkpt>
      <trkpt lat="48.23171" lon="5.2728">
        <ele>286.75</ele>
        <time>2025-01-04T14:55:31.659Z</time>
      </trkpt>
      <trkpt lat="48.23163" lon="5.27251">
        <ele>287.33</ele>
        <time>2025-01-04T14:55:37.323Z</time>
      </trkpt>
      <trkpt lat="48.23155" lon="5.27217">
        <ele>287.92</ele>
        <time>2025-01-04T14:55:42.991Z</time>
      </trkpt>
      <trkpt lat="48.23147" lon="5.27183">
        <ele>288.52</ele>
        <time>2025-01-04T14:55:48.663Z</time>
      </trkpt>
      <trkpt lat="48.2314" lon="5.2715">
        <ele>289.16</ele>
        <time>2025-01-04T14:55:54.338Z</time>
      </trkpt>
      <trkpt lat="48.23132" lon="5.27117">
        <ele>289.84</ele>
        <time>2025-01-04T14:56:00.017Z</time>
      </trkpt>
      <trkpt lat="48.23123" lon="5.27089">
        <ele>290.5</ele>
        <time>2025-01-04T14:56:05.699Z</time>
      </trkpt>
      <trkpt lat="48.23114" lon="5.27062">
        <ele>291.17</ele>
        <time>2025-01-04T14:56:11.385Z</time>
      </trkpt>
      <trkpt lat="48.23102" lon="5.27033">
        <ele>291.84</ele>
        <time>2025-01-04T14:56:17.074Z</time>
      </trkpt>
      <trkpt lat="48.23091" lon="5.27004">
        <ele>292.49</ele>
        <time>2025-01-04T14:56:22.767Z</time>
      </trkpt>
      <trkpt lat="48.23074" lon="5.26968">
        <ele>293.2</ele>
        <time>2025-01-04T14:56:28.465Z</time>
      </trkpt>
      <trkpt lat="48.23056" lon="5.26934">
        <ele>293.93</ele>
        <time>2025-01-04T14:56:34.167Z</time>
      </trkpt>
      <trkpt lat="48.23047" lon="5.26917">
        <ele>294.57</ele>
        <time>2025-01-04T14:56:39.872Z</time>
      </trkpt>
      <trkpt lat="48.23035" lon="5.26896">
        <ele>295.21</ele>
        <time>2025-01-04T14:56:45.579Z</time>
      </trkpt>
      <trkpt lat="48.23024" lon="5.26875">
        <ele>295.83</ele>
        <time>2025-01-04T14:56:51.289Z</time>
      </trkpt>
      <trkpt lat="48.23009" lon="5.2685">
        <ele>296.39</ele>
        <time>2025-01-04T14:56:57.003Z</time>
      </trkpt>
      <trkpt lat="48.22994" lon="5.26825">
        <ele>296.96</ele>
        <time>2025-01-04T14:57:02.721Z</time>
      </trkpt>
      <trkpt lat="48.22974" lon="5.26792">
        <ele>297.49</ele>
        <time>2025-01-04T14:57:08.443Z</time>
      </trkpt>
      <trkpt lat="48.22961" lon="5.26772">
        <ele>297.96</ele>
        <time>2025-01-04T14:57:14.168Z</time>
      </trkpt>
      <trkpt lat="48.22948" lon="5.26752">
        <ele>298.37</ele>
        <time>2025-01-04T14:57:19.896Z</time>
      </trkpt>
      <trkpt lat="48.22935" lon="5.26734">
        <ele>298.76</ele>
        <time>2025-01-04T14:57:25.627Z</time>
      </trkpt>
      <trkpt lat="48.22921" lon="5.26716">
        <ele>299.15</ele>
        <time>2025-01-04T14:57:31.361Z</time>
      </trkpt>
      <trkpt lat="48.22907" lon="5.26696">
        <ele>299.52</ele>
        <time>2025-01-04T14:57:37.098Z</time>
      </trkpt>
      <trkpt lat="48.22892" lon="5.26676">
        <ele>299.91</ele>
        <time>2025-01-04T14:57:42.838Z</time>
      </trkpt>
      <trkpt lat="48.22877" lon="5.26655">
        <ele>300.26</ele>
        <time>2025-01-04T14:57:48.582Z</time>
      </trkpt>
      <trkpt lat="48.22862" lon="5.26633">
        <ele>300.56</ele>
        <time>2025-01-04T14:57:54.329Z</time>
      </trkpt>
      <trkpt lat="48.22846" lon="5.26612">
        <ele>300.85</ele>
        <time>2025-01-04T14:58:00.079Z</time>
      </trkpt>
      <trkpt lat="48.22831" lon="5.26591">
        <ele>301.14</ele>
        <time>2025-01-04T14:58:05.833Z</time>
      </trkpt>
      <trkpt lat="48.22815" lon="5.26569">
        <ele>301.34</ele>
        <time>2025-01-04T14:58:11.590Z</time>
      </trkpt>
      <trkpt lat="48.22799" lon="5.26547">
        <ele>301.46</ele>
        <time>2025-01-04T14:58:17.351Z</time>
      </trkpt>
      <trkpt lat="48.22781" lon="5.26524">
        <ele>301.56</ele>
        <time>2025-01-04T14:58:23.115Z</time>
      </trkpt>
      <trkpt lat="48.22764" lon="5.265">
        <ele>301.57</ele>
        <time>2025-01-04T14:58:28.883Z</time>
      </trkpt>
      <trkpt lat="48.22755" lon="5.26487">
        <ele>301.61</ele>
        <time>2025-01-04T14:58:34.653Z</time>
      </trkpt>
      <trkpt lat="48.22739" lon="5.26465">
        <ele>301.64</ele>
        <time>2025-01-04T14:58:40.427Z</time>
      </trkpt>
      <trkpt lat="48.2272" lon="5.26439">
        <ele>301.67</ele>
        <time>2025-01-04T14:58:46.205Z</time>
      </trkpt>
      <trkpt lat="48.22702" lon="5.26414">
        <ele>301.62</ele>
        <time>2025-01-04T14:58:51.987Z</time>
      </trkpt>
      <trkpt lat="48.22687" lon="5.26396">
        <ele>301.51</ele>
        <time>2025-01-04T14:58:57.772Z</time>
      </trkpt>
      <trkpt lat="48.22673" lon="5.26378">
        <ele>301.41</ele>
        <time>2025-01-04T14:59:03.560Z</time>
      </trkpt>
      <trkpt lat="48.22648" lon="5.26352">
        <ele>301.28</ele>
        <time>2025-01-04T14:59:09.353Z</time>
      </trkpt>
      <trkpt lat="48.22644" lon="5.26349">
        <ele>301.09</ele>
        <time>2025-01-04T14:59:15.146Z</time>
      </trkpt>
      <trkpt lat="48.22639" lon="5.26346">
        <ele>300.87</ele>
        <time>2025-01-04T14:59:20.940Z</time>
      </trkpt>
      <trkpt lat="48.22637" lon="5.26334">
        <ele>300.6</ele>
        <time>2025-01-04T14:59:26.735Z</time>
      </trkpt>
      <trkpt lat="48.22643" lon="5.26329">
        <ele>300.28</ele>
        <time>2025-01-04T14:59:32.532Z</time>
      </trkpt>
      <trkpt lat="48.22647" lon="5.26326">
        <ele>299.92</ele>
        <time>2025-01-04T14:59:38.329Z</time>
      </trkpt>
      <trkpt lat="48.22674" lon="5.26303">
        <ele>299.47</ele>
        <time>2025-01-04T14:59:44.131Z</time>
      </trkpt>
      <trkpt lat="48.22693" lon="5.26287">
        <ele>299.01</ele>
        <time>2025-01-04T14:59:49.937Z</time>
      </trkpt>
      <trkpt lat="48.22711" lon="5.26272">
        <ele>298.56</ele>
        <time>2025-01-04T14:59:55.746Z</time>
      </trkpt>
      <trkpt lat="48.22733" lon="5.26257">
        <ele>298.05</ele>
        <time>2025-01-04T15:00:01.559Z</time>
      </trkpt>
      <trkpt lat="48.22756" lon="5.26243">
        <ele>297.49</ele>
        <time>2025-01-04T15:00:07.376Z</time>
      </trkpt>
      <trkpt lat="48.22778" lon="5.26229">
        <ele>296.88</ele>
        <time>2025-01-04T15:00:13.197Z</time>
      </trkpt>
      <trkpt lat="48.22801" lon="5.26216">
        <ele>296.25</ele>
        <time>2025-01-04T15:00:19.022Z</time>
      </trkpt>
      <trkpt lat="48.22827" lon="5.262">
        <ele>295.59</ele>
        <time>2025-01-04T15:00:24.851Z</time>
      </trkpt>
      <trkpt lat="48.22854" lon="5.26184">
        <ele>294.91</ele>
        <time>2025-01-04T15:00:30.685Z</time>
      </trkpt>
      <trkpt lat="48.22877" lon="5.2617">
        <ele>294.21</ele>
        <time>2025-01-04T15:00:36.523Z</time>
      </trkpt>
      <trkpt lat="48.229" lon="5.26156">
        <ele>293.46</ele>
        <time>2025-01-04T15:00:42.365Z</time>
      </trkpt>
      <trkpt lat="48.22913" lon="5.26155">
        <ele>292.72</ele>
        <time>2025-01-04T15:00:48.209Z</time>
      </trkpt>
      <trkpt lat="48.22926" lon="5.26161">
        <ele>291.97</ele>
        <time>2025-01-04T15:00:54.055Z</time>
      </trkpt>
      <trkpt lat="48.2295" lon="5.26176">
        <ele>291.18</ele>
        <time>2025-01-04T15:00:59.905Z</time>
      </trkpt>
      <trkpt lat="48.22956" lon="5.26179">
        <ele>290.44</ele>
        <time>2025-01-04T15:01:05.756Z</time>
      </trkpt>
      <trkpt lat="48.2296" lon="5.26182">
        <ele>289.71</ele>
        <time>2025-01-04T15:01:11.608Z</time>
      </trkpt>
      <trkpt lat="48.2297" lon="5.2618">
        <ele>288.95</ele>
        <time>2025-01-04T15:01:17.461Z</time>
      </trkpt>
      <trkpt lat="48.22977" lon="5.2617">
        <ele>288.19</ele>
        <time>2025-01-04T15:01:23.316Z</time>
      </trkpt>
      <trkpt lat="48.2298" lon="5.26159">
        <ele>287.46</ele>
        <time>2025-01-04T15:01:29.172Z</time>
      </trkpt>
      <trkpt lat="48.22985" lon="5.26148">
        <ele>286.75</ele>
        <time>2025-01-04T15:01:35.030Z</time>
      </trkpt>
      <trkpt lat="48.22992" lon="5.26128">
        <ele>286</ele>
        <time>2025-01-04T15:01:40.890Z</time>
      </trkpt>
      <trkpt lat="48.23001" lon="5.26104">
        <ele>285.31</ele>
        <time>2025-01-04T15:01:46.753Z</time>
      </trkpt>
      <trkpt lat="48.23008" lon="5.26086">
        <ele>284.66</ele>
        <time>2025-01-04T15:01:52.618Z</time>
      </trkpt>
      <trkpt lat="48.23022" lon="5.26065">
        <ele>284.03</ele>
        <time>2025-01-04T15:01:58.486Z</time>
      </trkpt>
      <trkpt lat="48.23035" lon="5.26044">
        <ele>283.43</ele>
        <time>2025-01-04T15:02:04.358Z</time>
      </trkpt>
      <trkpt lat="48.23054" lon="5.26013">
        <ele>282.89</ele>
        <time>2025-01-04T15:02:10.234Z</time>
      </trkpt>
      <trkpt lat="48.23073" lon="5.25982">
        <ele>282.32</ele>
        <time>2025-01-04T15:02:16.114Z</time>
      </trkpt>
      <trkpt lat="48.23082" lon="5.25963">
        <ele>281.86</ele>
        <time>2025-01-04T15:02:21.997Z</time>
      </trkpt>
      <trkpt lat="48.23092" lon="5.25943">
        <ele>281.45</ele>
        <time>2025-01-04T15:02:27.883Z</time>
      </trkpt>
      <trkpt lat="48.23105" lon="5.25927">
        <ele>281.1</ele>
        <time>2025-01-04T15:02:33.771Z</time>
      </trkpt>
      <trkpt lat="48.23115" lon="5.25923">
        <ele>280.76</ele>
        <time>2025-01-04T15:02:39.661Z</time>
      </trkpt>
      <trkpt lat="48.2312" lon="5.25921">
        <ele>280.45</ele>
        <time>2025-01-04T15:02:45.552Z</time>
      </trkpt>
      <trkpt lat="48.23139" lon="5.25914">
        <ele>280.14</ele>
        <time>2025-01-04T15:02:51.446Z</time>
      </trkpt>
      <trkpt lat="48.23158" lon="5.25908">
        <ele>279.87</ele>
        <time>2025-01-04T15:02:57.343Z</time>
      </trkpt>
      <trkpt lat="48.23177" lon="5.25901">
        <ele>279.67</ele>
        <time>2025-01-04T15:03:03.243Z</time>
      </trkpt>
      <trkpt lat="48.23195" lon="5.25895">
        <ele>279.51</ele>
        <time>2025-01-04T15:03:09.146Z</time>
      </trkpt>
      <trkpt lat="48.23217" lon="5.25887">
        <ele>279.41</ele>
        <time>2025-01-04T15:03:15.053Z</time>
      </trkpt>
      <trkpt lat="48.23227" lon="5.25882">
        <ele>279.26</ele>
        <time>2025-01-04T15:03:20.962Z</time>
      </trkpt>
      <trkpt lat="48.23234" lon="5.25879">
        <ele>279.15</ele>
        <time>2025-01-04T15:03:26.872Z</time>
      </trkpt>
      <trkpt lat="48.23239" lon="5.25876">
        <ele>279.05</ele>
        <time>2025-01-04T15:03:32.782Z</time>
      </trkpt>
      <trkpt lat="48.23258" lon="5.25865">
        <ele>279.01</ele>
        <time>2025-01-04T15:03:38.696Z</time>
      </trkpt>
      <trkpt lat="48.23275" lon="5.25856">
        <ele>279</ele>
        <time>2025-01-04T15:03:44.613Z</time>
      </trkpt>
      <trkpt lat="48.23272" lon="5.25857">
        <ele>278.96</ele>
        <time>2025-01-04T15:03:50.530Z</time>
      </trkpt>
      <trkpt lat="48.23271" lon="5.25858">
        <ele>278.93</ele>
        <time>2025-01-04T15:03:56.447Z</time>
      </trkpt>
      <trkpt lat="48.23264" lon="5.25862">
        <ele>278.88</ele>
        <time>2025-01-04T15:04:02.366Z</time>
      </trkpt>
      <trkpt lat="48.23259" lon="5.25864">
        <ele>278.86</ele>
        <time>2025-01-04T15:04:08.285Z</time>
      </trkpt>
      <trkpt lat="48.23256" lon="5.25866">
        <ele>278.85</ele>
        <time>2025-01-04T15:04:14.205Z</time>
      </trkpt>
      <trkpt lat="48.23245" lon="5.25873">
        <ele>278.86</ele>
        <time>2025-01-04T15:04:20.127Z</time>
      </trkpt>
      <trkpt lat="48.23235" lon="5.25878">
        <ele>278.9</ele>
        <time>2025-01-04T15:04:26.050Z</time>
      </trkpt>
      <trkpt lat="48.23227" lon="5.25882">
        <ele>278.95</ele>
        <time>2025-01-04T15:04:31.975Z</time>
      </trkpt>
      <trkpt lat="48.23224" lon="5.25884">
        <ele>279.03</ele>
        <time>2025-01-04T15:04:37.900Z</time>
      </trkpt>
      <trkpt lat="48.23223" lon="5.25885">
        <ele>279.12</ele>
        <time>2025-01-04T15:04:43.825Z</time>
      </trkpt>
      <trkpt lat="48.23218" lon="5.25886">
        <ele>279.23</ele>
        <time>2025-01-04T15:04:49.751Z</time>
      </trkpt>
      <trkpt lat="48.23215" lon="5.25888">
        <ele>279.36</ele>
        <time>2025-01-04T15:04:55.678Z</time>
      </trkpt>
      <trkpt lat="48.23212" lon="5.25889">
        <ele>279.5</ele>
        <time>2025-01-04T15:05:01.605Z</time>
      </trkpt>
      <trkpt lat="48.2321" lon="5.25889">
        <ele>279.68</ele>
        <time>2025-01-04T15:05:07.533Z</time>
      </trkpt>
      <trkpt lat="48.23198" lon="5.25894">
        <ele>279.85</ele>
        <time>2025-01-04T15:05:13.463Z</time>
      </trkpt>
      <trkpt lat="48.2318" lon="5.259">
        <ele>280.06</ele>
        <time>2025-01-04T15:05:19.396Z</time>
      </trkpt>
      <trkpt lat="48.23164" lon="5.25906">
        <ele>280.32</ele>
        <time>2025-01-04T15:05:25.331Z</time>
      </trkpt>
      <trkpt lat="48.23147" lon="5.25911">
        <ele>280.64</ele>
        <time>2025-01-04T15:05:31.269Z</time>
      </trkpt>
      <trkpt lat="48.23123" lon="5.2592">
        <ele>281.03</ele>
        <time>2025-01-04T15:05:37.211Z</time>
      </trkpt>
      <trkpt lat="48.23113" lon="5.25924">
        <ele>281.43</ele>
        <time>2025-01-04T15:05:43.155Z</time>
      </trkpt>
      <trkpt lat="48.23099" lon="5.25933">
        <ele>281.82</ele>
        <time>2025-01-04T15:05:49.101Z</time>
      </trkpt>
      <trkpt lat="48.23091" lon="5.25944">
        <ele>282.27</ele>
        <time>2025-01-04T15:05:55.049Z</time>
      </trkpt>
      <trkpt lat="48.23073" lon="5.25982">
        <ele>282.78</ele>
        <time>2025-01-04T15:06:01.002Z</time>
      </trkpt>
      <trkpt lat="48.23057" lon="5.26009">
        <ele>283.38</ele>
        <time>2025-01-04T15:06:06.959Z</time>
      </trkpt>
      <trkpt lat="48.23041" lon="5.26035">
        <ele>283.97</ele>
        <time>2025-01-04T15:06:12.919Z</time>
      </trkpt>
      <trkpt lat="48.2303" lon="5.26053">
        <ele>284.6</ele>
        <time>2025-01-04T15:06:18.882Z</time>
      </trkpt>
      <trkpt lat="48.23019" lon="5.2607">
        <ele>285.27</ele>
        <time>2025-01-04T15:06:24.848Z</time>
      </trkpt>
      <trkpt lat="48.23005" lon="5.26093">
        <ele>285.97</ele>
        <time>2025-01-04T15:06:30.817Z</time>
      </trkpt>
      <trkpt lat="48.23003" lon="5.26098">
        <ele>286.66</ele>
        <time>2025-01-04T15:06:36.786Z</time>
      </trkpt>
      <trkpt lat="48.22991" lon="5.2613">
        <ele>287.43</ele>
        <time>2025-01-04T15:06:42.759Z</time>
      </trkpt>
      <trkpt lat="48.22979" lon="5.26162">
        <ele>288.25</ele>
        <time>2025-01-04T15:06:48.736Z</time>
      </trkpt>
      <trkpt lat="48.22971" lon="5.26179">
        <ele>289.03</ele>
        <time>2025-01-04T15:06:54.716Z</time>
      </trkpt>
      <trkpt lat="48.22956" lon="5.2618">
        <ele>289.82</ele>
        <time>2025-01-04T15:07:00.698Z</time>
      </trkpt>
      <trkpt lat="48.22939" lon="5.26169">
        <ele>290.58</ele>
        <time>2025-01-04T15:07:06.683Z</time>
      </trkpt>
      <trkpt lat="48.22914" lon="5.26155">
        <ele>291.36</ele>
        <time>2025-01-04T15:07:12.672Z</time>
      </trkpt>
      <trkpt lat="48.22895" lon="5.26159">
        <ele>292.1</ele>
        <time>2025-01-04T15:07:18.664Z</time>
      </trkpt>
      <trkpt lat="48.22871" lon="5.26174">
        <ele>292.83</ele>
        <time>2025-01-04T15:07:24.660Z</time>
      </trkpt>
      <trkpt lat="48.22863" lon="5.26178">
        <ele>293.49</ele>
        <time>2025-01-04T15:07:30.658Z</time>
      </trkpt>
      <trkpt lat="48.22844" lon="5.26189">
        <ele>294.13</ele>
        <time>2025-01-04T15:07:36.659Z</time>
      </trkpt>
      <trkpt lat="48.2283" lon="5.26198">
        <ele>294.74</ele>
        <time>2025-01-04T15:07:42.663Z</time>
      </trkpt>
      <trkpt lat="48.22815" lon="5.26207">
        <ele>295.33</ele>
        <time>2025-01-04T15:07:48.669Z</time>
      </trkpt>
      <trkpt lat="48.22799" lon="5.26217">
        <ele>295.85</ele>
        <time>2025-01-04T15:07:54.678Z</time>
      </trkpt>
      <trkpt lat="48.22783" lon="5.26227">
        <ele>296.37</ele>
        <time>2025-01-04T15:08:00.690Z</time>
      </trkpt>
      <trkpt lat="48.22767" lon="5.26237">
        <ele>296.84</ele>
        <time>2025-01-04T15:08:06.704Z</time>
      </trkpt>
      <trkpt lat="48.22751" lon="5.26246">
        <ele>297.28</ele>
        <time>2025-01-04T15:08:12.721Z</time>
      </trkpt>
      <trkpt lat="48.22734" lon="5.26257">
        <ele>297.65</ele>
        <time>2025-01-04T15:08:18.741Z</time>
      </trkpt>
      <trkpt lat="48.22716" lon="5.26267">
        <ele>297.97</ele>
        <time>2025-01-04T15:08:24.764Z</time>
      </trkpt>
      <trkpt lat="48.22701" lon="5.2628">
        <ele>298.24</ele>
        <time>2025-01-04T15:08:30.790Z</time>
      </trkpt>
      <trkpt lat="48.22686" lon="5.26292">
        <ele>298.49</ele>
        <time>2025-01-04T15:08:36.819Z</time>
      </trkpt>
      <trkpt lat="48.22671" lon="5.26305">
        <ele>298.71</ele>
        <time>2025-01-04T15:08:42.850Z</time>
      </trkpt>
      <trkpt lat="48.22656" lon="5.26318">
        <ele>298.92</ele>
        <time>2025-01-04T15:08:48.884Z</time>
      </trkpt>
      <trkpt lat="48.22641" lon="5.26331">
        <ele>299.08</ele>
        <time>2025-01-04T15:08:54.921Z</time>
      </trkpt>
      <trkpt lat="48.22634" lon="5.26337">
        <ele>299.19</ele>
        <time>2025-01-04T15:09:00.959Z</time>
      </trkpt>
      <trkpt lat="48.22613" lon="5.26326">
        <ele>299.26</ele>
        <time>2025-01-04T15:09:07.001Z</time>
      </trkpt>
      <trkpt lat="48.22598" lon="5.26314">
        <ele>299.31</ele>
        <time>2025-01-04T15:09:13.046Z</time>
      </trkpt>
      <trkpt lat="48.22583" lon="5.26302">
        <ele>299.32</ele>
        <time>2025-01-04T15:09:19.093Z</time>
      </trkpt>
      <trkpt lat="48.2257" lon="5.26282">
        <ele>299.31</ele>
        <time>2025-01-04T15:09:25.143Z</time>
      </trkpt>
      <trkpt lat="48.22557" lon="5.26261">
        <ele>299.26</ele>
        <time>2025-01-04T15:09:31.196Z</time>
      </trkpt>
      <trkpt lat="48.22553" lon="5.26254">
        <ele>299.21</ele>
        <time>2025-01-04T15:09:37.250Z</time>
      </trkpt>
      <trkpt lat="48.22538" lon="5.2623">
        <ele>299.15</ele>
        <time>2025-01-04T15:09:43.308Z</time>
      </trkpt>
      <trkpt lat="48.22523" lon="5.26206">
        <ele>299.11</ele>
        <time>2025-01-04T15:09:49.369Z</time>
      </trkpt>
      <trkpt lat="48.22503" lon="5.26174">
        <ele>298.99</ele>
        <time>2025-01-04T15:09:55.435Z</time>
      </trkpt>
      <trkpt lat="48.22483" lon="5.26142">
        <ele>298.88</ele>
        <time>2025-01-04T15:10:01.506Z</time>
      </trkpt>
      <trkpt lat="48.22464" lon="5.26117">
        <ele>298.83</ele>
        <time>2025-01-04T15:10:07.581Z</time>
      </trkpt>
      <trkpt lat="48.22446" lon="5.26093">
        <ele>298.87</ele>
        <time>2025-01-04T15:10:13.660Z</time>
      </trkpt>
      <trkpt lat="48.22433" lon="5.26075">
        <ele>298.95</ele>
        <time>2025-01-04T15:10:19.742Z</time>
      </trkpt>
      <trkpt lat="48.2242" lon="5.26057">
        <ele>299.08</ele>
        <time>2025-01-04T15:10:25.826Z</time>
      </trkpt>
      <trkpt lat="48.22407" lon="5.26038">
        <ele>299.22</ele>
        <time>2025-01-04T15:10:31.913Z</time>
      </trkpt>
      <trkpt lat="48.22394" lon="5.2602">
        <ele>299.36</ele>
        <time>2025-01-04T15:10:38.003Z</time>
      </trkpt>
      <trkpt lat="48.22382" lon="5.26002">
        <ele>299.51</ele>
        <time>2025-01-04T15:10:44.096Z</time>
      </trkpt>
      <trkpt lat="48.2237" lon="5.25985">
        <ele>299.65</ele>
        <time>2025-01-04T15:10:50.191Z</time>
      </trkpt>
      <trkpt lat="48.22356" lon="5.25964">
        <ele>299.8</ele>
        <time>2025-01-04T15:10:56.290Z</time>
      </trkpt>
      <trkpt lat="48.22341" lon="5.25943">
        <ele>299.97</ele>
        <time>2025-01-04T15:11:02.392Z</time>
      </trkpt>
      <trkpt lat="48.22326" lon="5.25917">
        <ele>300.12</ele>
        <time>2025-01-04T15:11:08.498Z</time>
      </trkpt>
      <trkpt lat="48.2231" lon="5.25891">
        <ele>300.22</ele>
        <time>2025-01-04T15:11:14.607Z</time>
      </trkpt>
      <trkpt lat="48.22296" lon="5.25868">
        <ele>300.34</ele>
        <time>2025-01-04T15:11:20.720Z</time>
      </trkpt>
      <trkpt lat="48.22282" lon="5.25845">
        <ele>300.49</ele>
        <time>2025-01-04T15:11:26.836Z</time>
      </trkpt>
      <trkpt lat="48.22269" lon="5.25824">
        <ele>300.66</ele>
        <time>2025-01-04T15:11:32.955Z</time>
      </trkpt>
      <trkpt lat="48.22257" lon="5.25803">
        <ele>300.84</ele>
        <time>2025-01-04T15:11:39.077Z</time>
      </trkpt>
      <trkpt lat="48.22253" lon="5.25798">
        <ele>300.97</ele>
        <time>2025-01-04T15:11:45.200Z</time>
      </trkpt>
      <trkpt lat="48.22236" lon="5.25766">
        <ele>301.05</ele>
        <time>2025-01-04T15:11:51.327Z</time>
      </trkpt>
      <trkpt lat="48.22222" lon="5.25738">
        <ele>301.15</ele>
        <time>2025-01-04T15:11:57.458Z</time>
      </trkpt>
      <trkpt lat="48.22208" lon="5.2571">
        <ele>301.22</ele>
        <time>2025-01-04T15:12:03.593Z</time>
      </trkpt>
      <trkpt lat="48.22193" lon="5.2568">
        <ele>301.3</ele>
        <time>2025-01-04T15:12:09.732Z</time>
      </trkpt>
      <trkpt lat="48.22179" lon="5.25651">
        <ele>301.33</ele>
        <time>2025-01-04T15:12:15.875Z</time>
      </trkpt>
      <trkpt lat="48.22164" lon="5.2562">
        <ele>301.36</ele>
        <time>2025-01-04T15:12:22.022Z</time>
      </trkpt>
      <trkpt lat="48.22149" lon="5.25589">
        <ele>301.4</ele>
        <time>2025-01-04T15:12:28.173Z</time>
      </trkpt>
      <trkpt lat="48.22134" lon="5.25556">
        <ele>301.4</ele>
        <time>2025-01-04T15:12:34.328Z</time>
      </trkpt>
      <trkpt lat="48.22118" lon="5.25522">
        <ele>301.37</ele>
        <time>2025-01-04T15:12:40.487Z</time>
      </trkpt>
      <trkpt lat="48.22102" lon="5.25487">
        <ele>301.23</ele>
        <time>2025-01-04T15:12:46.651Z</time>
      </trkpt>
      <trkpt lat="48.22085" lon="5.25452">
        <ele>301.24</ele>
        <time>2025-01-04T15:12:52.820Z</time>
      </trkpt>
      <trkpt lat="48.22069" lon="5.25416">
        <ele>301.27</ele>
        <time>2025-01-04T15:12:58.993Z</time>
      </trkpt>
      <trkpt lat="48.22052" lon="5.25381">
        <ele>301.24</ele>
        <time>2025-01-04T15:13:05.171Z</time>
      </trkpt>
      <trkpt lat="48.22037" lon="5.25344">
        <ele>301.18</ele>
        <time>2025-01-04T15:13:11.353Z</time>
      </trkpt>
      <trkpt lat="48.22022" lon="5.25308">
        <ele>301.09</ele>
        <time>2025-01-04T15:13:17.540Z</time>
      </trkpt>
      <trkpt lat="48.2201" lon="5.2527">
        <ele>300.97</ele>
        <time>2025-01-04T15:13:23.732Z</time>
      </trkpt>
      <trkpt lat="48.21998" lon="5.25232">
        <ele>300.87</ele>
        <time>2025-01-04T15:13:29.928Z</time>
      </trkpt>
      <trkpt lat="48.21987" lon="5.25194">
        <ele>300.85</ele>
        <time>2025-01-04T15:13:36.129Z</time>
      </trkpt>
      <trkpt lat="48.21976" lon="5.25155">
        <ele>300.82</ele>
        <time>2025-01-04T15:13:42.334Z</time>
      </trkpt>
      <trkpt lat="48.21969" lon="5.25124">
        <ele>300.74</ele>
        <time>2025-01-04T15:13:48.542Z</time>
      </trkpt>
      <trkpt lat="48.21963" lon="5.25094">
        <ele>300.71</ele>
        <time>2025-01-04T15:13:54.754Z</time>
      </trkpt>
      <trkpt lat="48.21957" lon="5.25057">
        <ele>300.66</ele>
        <time>2025-01-04T15:14:00.970Z</time>
      </trkpt>
      <trkpt lat="48.21951" lon="5.2502">
        <ele>300.56</ele>
        <time>2025-01-04T15:14:07.190Z</time>
      </trkpt>
      <trkpt lat="48.21944" lon="5.24976">
        <ele>300.4</ele>
        <time>2025-01-04T15:14:13.415Z</time>
      </trkpt>
      <trkpt lat="48.21937" lon="5.24932">
        <ele>300.33</ele>
        <time>2025-01-04T15:14:19.645Z</time>
      </trkpt>
      <trkpt lat="48.21932" lon="5.24891">
        <ele>300.23</ele>
        <time>2025-01-04T15:14:25.879Z</time>
      </trkpt>
      <trkpt lat="48.21926" lon="5.2485">
        <ele>300.11</ele>
        <time>2025-01-04T15:14:32.118Z</time>
      </trkpt>
      <trkpt lat="48.21923" lon="5.24821">
        <ele>299.93</ele>
        <time>2025-01-04T15:14:38.360Z</time>
      </trkpt>
      <trkpt lat="48.21921" lon="5.24793">
        <ele>299.79</ele>
        <time>2025-01-04T15:14:44.605Z</time>
      </trkpt>
      <trkpt lat="48.21921" lon="5.24775">
        <ele>299.6</ele>
        <time>2025-01-04T15:14:50.852Z</time>
      </trkpt>
      <trkpt lat="48.2192" lon="5.24745">
        <ele>299.44</ele>
        <time>2025-01-04T15:14:57.102Z</time>
      </trkpt>
      <trkpt lat="48.21916" lon="5.24714">
        <ele>299.31</ele>
        <time>2025-01-04T15:15:03.355Z</time>
      </trkpt>
      <trkpt lat="48.2191" lon="5.24683">
        <ele>299.14</ele>
        <time>2025-01-04T15:15:09.612Z</time>
      </trkpt>
      <trkpt lat="48.21903" lon="5.24656">
        <ele>298.98</ele>
        <time>2025-01-04T15:15:15.872Z</time>
      </trkpt>
      <trkpt lat="48.21896" lon="5.24628">
        <ele>298.77</ele>
        <time>2025-01-04T15:15:22.135Z</time>
      </trkpt>
      <trkpt lat="48.21888" lon="5.24586">
        <ele>298.55</ele>
        <time>2025-01-04T15:15:28.403Z</time>
      </trkpt>
      <trkpt lat="48.21881" lon="5.24544">
        <ele>298.24</ele>
        <time>2025-01-04T15:15:34.675Z</time>
      </trkpt>
      <trkpt lat="48.21874" lon="5.24506">
        <ele>297.89</ele>
        <time>2025-01-04T15:15:40.952Z</time>
      </trkpt>
      <trkpt lat="48.21867" lon="5.24468">
        <ele>297.63</ele>
        <time>2025-01-04T15:15:47.233Z</time>
      </trkpt>
      <trkpt lat="48.21868" lon="5.24457">
        <ele>297.36</ele>
        <time>2025-01-04T15:15:53.515Z</time>
      </trkpt>
      <trkpt lat="48.21868" lon="5.24447">
        <ele>297.09</ele>
        <time>2025-01-04T15:15:59.798Z</time>
      </trkpt>
      <trkpt lat="48.21869" lon="5.24417">
        <ele>296.83</ele>
        <time>2025-01-04T15:16:06.084Z</time>
      </trkpt>
      <trkpt lat="48.2187" lon="5.24386">
        <ele>296.55</ele>
        <time>2025-01-04T15:16:12.374Z</time>
      </trkpt>
      <trkpt lat="48.21871" lon="5.24355">
        <ele>296.26</ele>
        <time>2025-01-04T15:16:18.667Z</time>
      </trkpt>
      <trkpt lat="48.21872" lon="5.24334">
        <ele>296.02</ele>
        <time>2025-01-04T15:16:24.962Z</time>
      </trkpt>
      <trkpt lat="48.21873" lon="5.24313">
        <ele>295.78</ele>
        <time>2025-01-04T15:16:31.259Z</time>
      </trkpt>
      <trkpt lat="48.21873" lon="5.24294">
        <ele>295.55</ele>
        <time>2025-01-04T15:16:37.558Z</time>
      </trkpt>
      <trkpt lat="48.21863" lon="5.24263">
        <ele>295.3</ele>
        <time>2025-01-04T15:16:43.861Z</time>
      </trkpt>
      <trkpt lat="48.21852" lon="5.24232">
        <ele>295.05</ele>
        <time>2025-01-04T15:16:50.168Z</time>
      </trkpt>
      <trkpt lat="48.2184" lon="5.24193">
        <ele>294.81</ele>
        <time>2025-01-04T15:16:56.479Z</time>
      </trkpt>
      <trkpt lat="48.21827" lon="5.24154">
        <ele>294.61</ele>
        <time>2025-01-04T15:17:02.795Z</time>
      </trkpt>
      <trkpt lat="48.21819" lon="5.24131">
        <ele>294.43</ele>
        <time>2025-01-04T15:17:09.114Z</time>
      </trkpt>
      <trkpt lat="48.21806" lon="5.24092">
        <ele>294.31</ele>
        <time>2025-01-04T15:17:15.438Z</time>
      </trkpt>
      <trkpt lat="48.21793" lon="5.24053">
        <ele>294.22</ele>
        <time>2025-01-04T15:17:21.766Z</time>
      </trkpt>
      <trkpt lat="48.21783" lon="5.24021">
        <ele>294.12</ele>
        <time>2025-01-04T15:17:28.098Z</time>
      </trkpt>
      <trkpt lat="48.2177" lon="5.23981">
        <ele>294.03</ele>
        <time>2025-01-04T15:17:34.435Z</time>
      </trkpt>
      <trkpt lat="48.21756" lon="5.23941">
        <ele>293.94</ele>
        <time>2025-01-04T15:17:40.777Z</time>
      </trkpt>
      <trkpt lat="48.2175" lon="5.23921">
        <ele>293.88</ele>
        <time>2025-01-04T15:17:47.121Z</time>
      </trkpt>
      <trkpt lat="48.2174" lon="5.23895">
        <ele>293.86</ele>
        <time>2025-01-04T15:17:53.468Z</time>
      </trkpt>
      <trkpt lat="48.21729" lon="5.23869">
        <ele>293.84</ele>
        <time>2025-01-04T15:17:59.818Z</time>
      </trkpt>
      <trkpt lat="48.21715" lon="5.23831">
        <ele>293.8</ele>
        <time>2025-01-04T15:18:06.173Z</time>
      </trkpt>
      <trkpt lat="48.217" lon="5.23794">
        <ele>293.79</ele>
        <time>2025-01-04T15:18:12.533Z</time>
      </trkpt>
      <trkpt lat="48.21697" lon="5.23785">
        <ele>293.77</ele>
        <time>2025-01-04T15:18:18.894Z</time>
      </trkpt>
      <trkpt lat="48.21686" lon="5.23757">
        <ele>293.76</ele>
        <time>2025-01-04T15:18:25.258Z</time>
      </trkpt>
      <trkpt lat="48.21675" lon="5.23728">
        <ele>293.8</ele>
        <time>2025-01-04T15:18:31.626Z</time>
      </trkpt>
      <trkpt lat="48.21661" lon="5.23692">
        <ele>293.76</ele>
        <time>2025-01-04T15:18:37.998Z</time>
      </trkpt>
      <trkpt lat="48.21647" lon="5.23656">
        <ele>293.77</ele>
        <time>2025-01-04T15:18:44.375Z</time>
      </trkpt>
      <trkpt lat="48.21635" lon="5.23624">
        <ele>293.77</ele>
        <time>2025-01-04T15:18:50.756Z</time>
      </trkpt>
      <trkpt lat="48.21622" lon="5.23593">
        <ele>293.83</ele>
        <time>2025-01-04T15:18:57.141Z</time>
      </trkpt>
      <trkpt lat="48.21608" lon="5.23555">
        <ele>293.82</ele>
        <time>2025-01-04T15:19:03.530Z</time>
      </trkpt>
      <trkpt lat="48.21593" lon="5.23516">
        <ele>293.78</ele>
        <time>2025-01-04T15:19:09.924Z</time>
      </trkpt>
      <trkpt lat="48.21581" lon="5.23475">
        <ele>293.7</ele>
        <time>2025-01-04T15:19:16.323Z</time>
      </trkpt>
      <trkpt lat="48.21569" lon="5.23435">
        <ele>293.62</ele>
        <time>2025-01-04T15:19:22.727Z</time>
      </trkpt>
      <trkpt lat="48.21558" lon="5.23395">
        <ele>293.59</ele>
        <time>2025-01-04T15:19:29.135Z</time>
      </trkpt>
      <trkpt lat="48.21547" lon="5.23355">
        <ele>293.61</ele>
        <time>2025-01-04T15:19:35.548Z</time>
      </trkpt>
      <trkpt lat="48.21538" lon="5.23313">
        <ele>293.64</ele>
        <time>2025-01-04T15:19:41.965Z</time>
      </trkpt>
      <trkpt lat="48.21529" lon="5.23272">
        <ele>293.66</ele>
        <time>2025-01-04T15:19:48.387Z</time>
      </trkpt>
      <trkpt lat="48.21527" lon="5.23262">
        <ele>293.62</ele>
        <time>2025-01-04T15:19:54.810Z</time>
      </trkpt>
      <trkpt lat="48.21519" lon="5.23221">
        <ele>293.53</ele>
        <time>2025-01-04T15:20:01.238Z</time>
      </trkpt>
      <trkpt lat="48.2151" lon="5.23179">
        <ele>293.47</ele>
        <time>2025-01-04T15:20:07.670Z</time>
      </trkpt>
      <trkpt lat="48.21508" lon="5.23169">
        <ele>293.4</ele>
        <time>2025-01-04T15:20:14.104Z</time>
      </trkpt>
      <trkpt lat="48.215" lon="5.23126">
        <ele>293.27</ele>
        <time>2025-01-04T15:20:20.542Z</time>
      </trkpt>
      <trkpt lat="48.21492" lon="5.23084">
        <ele>293.14</ele>
        <time>2025-01-04T15:20:26.985Z</time>
      </trkpt>
      <trkpt lat="48.21484" lon="5.23041">
        <ele>293.05</ele>
        <time>2025-01-04T15:20:33.433Z</time>
      </trkpt>
      <trkpt lat="48.21475" lon="5.22998">
        <ele>292.88</ele>
        <time>2025-01-04T15:20:39.886Z</time>
      </trkpt>
      <trkpt lat="48.21473" lon="5.22987">
        <ele>292.74</ele>
        <time>2025-01-04T15:20:46.340Z</time>
      </trkpt>
      <trkpt lat="48.21466" lon="5.22944">
        <ele>292.6</ele>
        <time>2025-01-04T15:20:52.799Z</time>
      </trkpt>
      <trkpt lat="48.21459" lon="5.22901">
        <ele>292.42</ele>
        <time>2025-01-04T15:20:59.262Z</time>
      </trkpt>
      <trkpt lat="48.21457" lon="5.2289">
        <ele>292.21</ele>
        <time>2025-01-04T15:21:05.727Z</time>
      </trkpt>
      <trkpt lat="48.2145" lon="5.22846">
        <ele>291.98</ele>
        <time>2025-01-04T15:21:12.196Z</time>
      </trkpt>
      <trkpt lat="48.21444" lon="5.22802">
        <ele>291.74</ele>
        <time>2025-01-04T15:21:18.670Z</time>
      </trkpt>
      <trkpt lat="48.2144" lon="5.22779">
        <ele>291.5</ele>
        <time>2025-01-04T15:21:25.147Z</time>
      </trkpt>
      <trkpt lat="48.21433" lon="5.22736">
        <ele>291.23</ele>
        <time>2025-01-04T15:21:31.628Z</time>
      </trkpt>
      <trkpt lat="48.21427" lon="5.22693">
        <ele>290.91</ele>
        <time>2025-01-04T15:21:38.114Z</time>
      </trkpt>
      <trkpt lat="48.21425" lon="5.22682">
        <ele>290.61</ele>
        <time>2025-01-04T15:21:44.601Z</time>
      </trkpt>
      <trkpt lat="48.21418" lon="5.2264">
        <ele>290.32</ele>
        <time>2025-01-04T15:21:51.093Z</time>
      </trkpt>
      <trkpt lat="48.21412" lon="5.22598">
        <ele>290</ele>
        <time>2025-01-04T15:21:57.590Z</time>
      </trkpt>
      <trkpt lat="48.2141" lon="5.22586">
        <ele>289.64</ele>
        <time>2025-01-04T15:22:04.088Z</time>
      </trkpt>
      <trkpt lat="48.21404" lon="5.22546">
        <ele>289.28</ele>
        <time>2025-01-04T15:22:10.590Z</time>
      </trkpt>
      <trkpt lat="48.21398" lon="5.22506">
        <ele>288.88</ele>
        <time>2025-01-04T15:22:17.097Z</time>
      </trkpt>
      <trkpt lat="48.21394" lon="5.22484">
        <ele>288.45</ele>
        <time>2025-01-04T15:22:23.606Z</time>
      </trkpt>
      <trkpt lat="48.21391" lon="5.2244">
        <ele>287.9</ele>
        <time>2025-01-04T15:22:30.120Z</time>
      </trkpt>
      <trkpt lat="48.21388" lon="5.22396">
        <ele>287.39</ele>
        <time>2025-01-04T15:22:36.639Z</time>
      </trkpt>
      <trkpt lat="48.21387" lon="5.22351">
        <ele>287.02</ele>
        <time>2025-01-04T15:22:43.162Z</time>
      </trkpt>
      <trkpt lat="48.21385" lon="5.22306">
        <ele>286.59</ele>
        <time>2025-01-04T15:22:49.690Z</time>
      </trkpt>
      <trkpt lat="48.21383" lon="5.22259">
        <ele>286</ele>
        <time>2025-01-04T15:22:56.223Z</time>
      </trkpt>
      <trkpt lat="48.21381" lon="5.22213">
        <ele>285.52</ele>
        <time>2025-01-04T15:23:02.761Z</time>
      </trkpt>
      <trkpt lat="48.21379" lon="5.22167">
        <ele>285.14</ele>
        <time>2025-01-04T15:23:09.304Z</time>
      </trkpt>
      <trkpt lat="48.21377" lon="5.22122">
        <ele>284.7</ele>
        <time>2025-01-04T15:23:15.852Z</time>
      </trkpt>
      <trkpt lat="48.21376" lon="5.22109">
        <ele>284.28</ele>
        <time>2025-01-04T15:23:22.401Z</time>
      </trkpt>
      <trkpt lat="48.21373" lon="5.22068">
        <ele>283.82</ele>
        <time>2025-01-04T15:23:28.955Z</time>
      </trkpt>
      <trkpt lat="48.2137" lon="5.22028">
        <ele>283.41</ele>
        <time>2025-01-04T15:23:35.513Z</time>
      </trkpt>
      <trkpt lat="48.21367" lon="5.21989">
        <ele>282.98</ele>
        <time>2025-01-04T15:23:42.075Z</time>
      </trkpt>
      <trkpt lat="48.21361" lon="5.21943">
        <ele>282.62</ele>
        <time>2025-01-04T15:23:48.642Z</time>
      </trkpt>
      <trkpt lat="48.21355" lon="5.21897">
        <ele>282.24</ele>
        <time>2025-01-04T15:23:55.214Z</time>
      </trkpt>
      <trkpt lat="48.21345" lon="5.21858">
        <ele>281.94</ele>
        <time>2025-01-04T15:24:01.791Z</time>
      </trkpt>
      <trkpt lat="48.21335" lon="5.21819">
        <ele>281.6</ele>
        <time>2025-01-04T15:24:08.372Z</time>
      </trkpt>
      <trkpt lat="48.21325" lon="5.21777">
        <ele>281.34</ele>
        <time>2025-01-04T15:24:14.958Z</time>
      </trkpt>
      <trkpt lat="48.21315" lon="5.21735">
        <ele>281.18</ele>
        <time>2025-01-04T15:24:21.549Z</time>
      </trkpt>
      <trkpt lat="48.21312" lon="5.21696">
        <ele>281.02</ele>
        <time>2025-01-04T15:24:28.144Z</time>
      </trkpt>
      <trkpt lat="48.21309" lon="5.21657">
        <ele>280.95</ele>
        <time>2025-01-04T15:24:34.743Z</time>
      </trkpt>
      <trkpt lat="48.21309" lon="5.21614">
        <ele>280.86</ele>
        <time>2025-01-04T15:24:41.347Z</time>
      </trkpt>
      <trkpt lat="48.21309" lon="5.21572">
        <ele>280.79</ele>
        <time>2025-01-04T15:24:47.955Z</time>
      </trkpt>
      <trkpt lat="48.21309" lon="5.21531">
        <ele>280.86</ele>
        <time>2025-01-04T15:24:54.568Z</time>
      </trkpt>
      <trkpt lat="48.21308" lon="5.2149">
        <ele>280.95</ele>
        <time>2025-01-04T15:25:01.185Z</time>
      </trkpt>
      <trkpt lat="48.21307" lon="5.21452">
        <ele>281.11</ele>
        <time>2025-01-04T15:25:07.806Z</time>
      </trkpt>
      <trkpt lat="48.21305" lon="5.21414">
        <ele>281.24</ele>
        <time>2025-01-04T15:25:14.431Z</time>
      </trkpt>
      <trkpt lat="48.21296" lon="5.21372">
        <ele>281.42</ele>
        <time>2025-01-04T15:25:21.061Z</time>
      </trkpt>
      <trkpt lat="48.21288" lon="5.2133">
        <ele>281.66</ele>
        <time>2025-01-04T15:25:27.696Z</time>
      </trkpt>
      <trkpt lat="48.2128" lon="5.21293">
        <ele>281.9</ele>
        <time>2025-01-04T15:25:34.335Z</time>
      </trkpt>
      <trkpt lat="48.21271" lon="5.21256">
        <ele>282.11</ele>
        <time>2025-01-04T15:25:40.978Z</time>
      </trkpt>
      <trkpt lat="48.21263" lon="5.21217">
        <ele>282.36</ele>
        <time>2025-01-04T15:25:47.625Z</time>
      </trkpt>
      <trkpt lat="48.21254" lon="5.21178">
        <ele>282.65</ele>
        <time>2025-01-04T15:25:54.277Z</time>
      </trkpt>
      <trkpt lat="48.21246" lon="5.21138">
        <ele>282.96</ele>
        <time>2025-01-04T15:26:00.933Z</time>
      </trkpt>
      <trkpt lat="48.21237" lon="5.21098">
        <ele>283.25</ele>
        <time>2025-01-04T15:26:07.594Z</time>
      </trkpt>
      <trkpt lat="48.21228" lon="5.21056">
        <ele>283.51</ele>
        <time>2025-01-04T15:26:14.260Z</time>
      </trkpt>
      <trkpt lat="48.21218" lon="5.21014">
        <ele>283.78</ele>
        <time>2025-01-04T15:26:20.930Z</time>
      </trkpt>
      <trkpt lat="48.21217" lon="5.21003">
        <ele>284.04</ele>
        <time>2025-01-04T15:26:27.602Z</time>
      </trkpt>
      <trkpt lat="48.2121" lon="5.20963">
        <ele>284.25</ele>
        <time>2025-01-04T15:26:34.278Z</time>
      </trkpt>
      <trkpt lat="48.21203" lon="5.20924">
        <ele>284.52</ele>
        <time>2025-01-04T15:26:40.958Z</time>
      </trkpt>
      <trkpt lat="48.21201" lon="5.20913">
        <ele>284.78</ele>
        <time>2025-01-04T15:26:47.639Z</time>
      </trkpt>
      <trkpt lat="48.21193" lon="5.20876">
        <ele>285.07</ele>
        <time>2025-01-04T15:26:54.325Z</time>
      </trkpt>
      <trkpt lat="48.21185" lon="5.20839">
        <ele>285.33</ele>
        <time>2025-01-04T15:27:01.015Z</time>
      </trkpt>
      <trkpt lat="48.21183" lon="5.20828">
        <ele>285.55</ele>
        <time>2025-01-04T15:27:07.706Z</time>
      </trkpt>
      <trkpt lat="48.21177" lon="5.20798">
        <ele>285.76</ele>
        <time>2025-01-04T15:27:14.400Z</time>
      </trkpt>
      <trkpt lat="48.21171" lon="5.20768">
        <ele>285.93</ele>
        <time>2025-01-04T15:27:21.098Z</time>
      </trkpt>
      <trkpt lat="48.21161" lon="5.20729">
        <ele>286.09</ele>
        <time>2025-01-04T15:27:27.800Z</time>
      </trkpt>
      <trkpt lat="48.21152" lon="5.2069">
        <ele>286.3</ele>
        <time>2025-01-04T15:27:34.507Z</time>
      </trkpt>
      <trkpt lat="48.21149" lon="5.2068">
        <ele>286.43</ele>
        <time>2025-01-04T15:27:41.215Z</time>
      </trkpt>
      <trkpt lat="48.21141" lon="5.20647">
        <ele>286.56</ele>
        <time>2025-01-04T15:27:47.927Z</time>
      </trkpt>
      <trkpt lat="48.21132" lon="5.20613">
        <ele>286.63</ele>
        <time>2025-01-04T15:27:54.642Z</time>
      </trkpt>
      <trkpt lat="48.21122" lon="5.20573">
        <ele>286.68</ele>
        <time>2025-01-04T15:28:01.362Z</time>
      </trkpt>
      <trkpt lat="48.21112" lon="5.20534">
        <ele>286.68</ele>
        <time>2025-01-04T15:28:08.086Z</time>
      </trkpt>
      <trkpt lat="48.21109" lon="5.20524">
        <ele>286.59</ele>
        <time>2025-01-04T15:28:14.812Z</time>
      </trkpt>
      <trkpt lat="48.211" lon="5.20489">
        <ele>286.49</ele>
        <time>2025-01-04T15:28:21.542Z</time>
      </trkpt>
      <trkpt lat="48.21091" lon="5.20454">
        <ele>286.23</ele>
        <time>2025-01-04T15:28:28.276Z</time>
      </trkpt>
      <trkpt lat="48.21079" lon="5.20413">
        <ele>285.91</ele>
        <time>2025-01-04T15:28:35.014Z</time>
      </trkpt>
      <trkpt lat="48.21068" lon="5.20373">
        <ele>285.59</ele>
        <time>2025-01-04T15:28:41.757Z</time>
      </trkpt>
      <trkpt lat="48.21058" lon="5.20329">
        <ele>285.3</ele>
        <time>2025-01-04T15:28:48.505Z</time>
      </trkpt>
      <trkpt lat="48.21048" lon="5.20286">
        <ele>284.92</ele>
        <time>2025-01-04T15:28:55.258Z</time>
      </trkpt>
      <trkpt lat="48.21043" lon="5.20247">
        <ele>284.49</ele>
        <time>2025-01-04T15:29:02.015Z</time>
      </trkpt>
      <trkpt lat="48.21039" lon="5.20207">
        <ele>284.09</ele>
        <time>2025-01-04T15:29:08.776Z</time>
      </trkpt>
      <trkpt lat="48.21035" lon="5.20166">
        <ele>283.63</ele>
        <time>2025-01-04T15:29:15.542Z</time>
      </trkpt>
      <trkpt lat="48.21032" lon="5.20125">
        <ele>283.14</ele>
        <time>2025-01-04T15:29:22.312Z</time>
      </trkpt>
      <trkpt lat="48.21027" lon="5.20082">
        <ele>282.75</ele>
        <time>2025-01-04T15:29:29.087Z</time>
      </trkpt>
      <trkpt lat="48.21023" lon="5.20039">
        <ele>282.27</ele>
        <time>2025-01-04T15:29:35.867Z</time>
      </trkpt>
      <trkpt lat="48.21021" lon="5.20027">
        <ele>281.81</ele>
        <time>2025-01-04T15:29:42.648Z</time>
      </trkpt>
      <trkpt lat="48.21013" lon="5.19985">
        <ele>281.28</ele>
        <time>2025-01-04T15:29:49.434Z</time>
      </trkpt>
      <trkpt lat="48.21006" lon="5.19943">
        <ele>280.73</ele>
        <time>2025-01-04T15:29:56.224Z</time>
      </trkpt>
      <trkpt lat="48.21004" lon="5.19932">
        <ele>280.24</ele>
        <time>2025-01-04T15:30:03.016Z</time>
      </trkpt>
      <trkpt lat="48.20995" lon="5.19892">
        <ele>279.73</ele>
        <time>2025-01-04T15:30:09.812Z</time>
      </trkpt>
      <trkpt lat="48.20985" lon="5.19852">
        <ele>279.26</ele>
        <time>2025-01-04T15:30:16.613Z</time>
      </trkpt>
      <trkpt lat="48.20974" lon="5.19814">
        <ele>278.85</ele>
        <time>2025-01-04T15:30:23.418Z</time>
      </trkpt>
      <trkpt lat="48.20963" lon="5.19775">
        <ele>278.44</ele>
        <time>2025-01-04T15:30:30.228Z</time>
      </trkpt>
      <trkpt lat="48.20959" lon="5.19765">
        <ele>278.04</ele>
        <time>2025-01-04T15:30:37.039Z</time>
      </trkpt>
      <trkpt lat="48.20947" lon="5.19728">
        <ele>277.68</ele>
        <time>2025-01-04T15:30:43.854Z</time>
      </trkpt>
      <trkpt lat="48.20935" lon="5.19691">
        <ele>277.34</ele>
        <time>2025-01-04T15:30:50.674Z</time>
      </trkpt>
      <trkpt lat="48.20925" lon="5.19659">
        <ele>276.95</ele>
        <time>2025-01-04T15:30:57.497Z</time>
      </trkpt>
      <trkpt lat="48.20914" lon="5.19625">
        <ele>276.57</ele>
        <time>2025-01-04T15:31:04.324Z</time>
      </trkpt>
      <trkpt lat="48.20903" lon="5.19592">
        <ele>276.22</ele>
        <time>2025-01-04T15:31:11.155Z</time>
      </trkpt>
      <trkpt lat="48.20889" lon="5.1955">
        <ele>275.95</ele>
        <time>2025-01-04T15:31:17.991Z</time>
      </trkpt>
      <trkpt lat="48.20876" lon="5.19509">
        <ele>275.76</ele>
        <time>2025-01-04T15:31:24.832Z</time>
      </trkpt>
      <trkpt lat="48.20865" lon="5.19475">
        <ele>275.52</ele>
        <time>2025-01-04T15:31:31.677Z</time>
      </trkpt>
      <trkpt lat="48.20852" lon="5.19435">
        <ele>275.34</ele>
        <time>2025-01-04T15:31:38.527Z</time>
      </trkpt>
      <trkpt lat="48.20839" lon="5.19396">
        <ele>275.16</ele>
        <time>2025-01-04T15:31:45.382Z</time>
      </trkpt>
      <trkpt lat="48.20829" lon="5.19362">
        <ele>274.98</ele>
        <time>2025-01-04T15:31:52.241Z</time>
      </trkpt>
      <trkpt lat="48.20827" lon="5.19351">
        <ele>274.87</ele>
        <time>2025-01-04T15:31:59.101Z</time>
      </trkpt>
      <trkpt lat="48.20823" lon="5.1933">
        <ele>274.8</ele>
        <time>2025-01-04T15:32:05.963Z</time>
      </trkpt>
      <trkpt lat="48.20821" lon="5.19319">
        <ele>274.76</ele>
        <time>2025-01-04T15:32:12.826Z</time>
      </trkpt>
      <trkpt lat="48.20821" lon="5.19311">
        <ele>274.75</ele>
        <time>2025-01-04T15:32:19.690Z</time>
      </trkpt>
      <trkpt lat="48.20827" lon="5.19294">
        <ele>274.76</ele>
        <time>2025-01-04T15:32:26.556Z</time>
      </trkpt>
      <trkpt lat="48.20836" lon="5.19271">
        <ele>274.81</ele>
        <time>2025-01-04T15:32:33.425Z</time>
      </trkpt>
      <trkpt lat="48.20844" lon="5.19247">
        <ele>274.87</ele>
        <time>2025-01-04T15:32:40.297Z</time>
      </trkpt>
      <trkpt lat="48.20846" lon="5.19239">
        <ele>274.94</ele>
        <time>2025-01-04T15:32:47.170Z</time>
      </trkpt>
      <trkpt lat="48.20847" lon="5.19221">
        <ele>275.02</ele>
        <time>2025-01-04T15:32:54.045Z</time>
      </trkpt>
      <trkpt lat="48.20848" lon="5.19213">
        <ele>275.1</ele>
        <time>2025-01-04T15:33:00.921Z</time>
      </trkpt>
      <trkpt lat="48.20846" lon="5.19205">
        <ele>275.18</ele>
        <time>2025-01-04T15:33:07.798Z</time>
      </trkpt>
      <trkpt lat="48.20842" lon="5.19189">
        <ele>275.26</ele>
        <time>2025-01-04T15:33:14.676Z</time>
      </trkpt>
      <trkpt lat="48.2084" lon="5.19181">
        <ele>275.36</ele>
        <time>2025-01-04T15:33:21.555Z</time>
      </trkpt>
      <trkpt lat="48.20832" lon="5.19148">
        <ele>275.5</ele>
        <time>2025-01-04T15:33:28.438Z</time>
      </trkpt>
      <trkpt lat="48.20824" lon="5.19115">
        <ele>275.65</ele>
        <time>2025-01-04T15:33:35.325Z</time>
      </trkpt>
      <trkpt lat="48.20818" lon="5.19083">
        <ele>275.75</ele>
        <time>2025-01-04T15:33:42.215Z</time>
      </trkpt>
      <trkpt lat="48.20812" lon="5.19052">
        <ele>275.75</ele>
        <time>2025-01-04T15:33:49.109Z</time>
      </trkpt>
      <trkpt lat="48.20809" lon="5.19021">
        <ele>275.7</ele>
        <time>2025-01-04T15:33:56.006Z</time>
      </trkpt>
      <trkpt lat="48.20806" lon="5.1899">
        <ele>275.69</ele>
        <time>2025-01-04T15:34:02.907Z</time>
      </trkpt>
      <trkpt lat="48.20804" lon="5.1896">
        <ele>275.69</ele>
        <time>2025-01-04T15:34:09.811Z</time>
      </trkpt>
      <trkpt lat="48.20802" lon="5.1894">
        <ele>275.63</ele>
        <time>2025-01-04T15:34:16.717Z</time>
      </trkpt>
      <trkpt lat="48.20799" lon="5.18908">
        <ele>275.55</ele>
        <time>2025-01-04T15:34:23.627Z</time>
      </trkpt>
      <trkpt lat="48.20796" lon="5.18875">
        <ele>275.44</ele>
        <time>2025-01-04T15:34:30.540Z</time>
      </trkpt>
      <trkpt lat="48.20795" lon="5.18866">
        <ele>275.3</ele>
        <time>2025-01-04T15:34:37.454Z</time>
      </trkpt>
      <trkpt lat="48.20792" lon="5.18832">
        <ele>275.12</ele>
        <time>2025-01-04T15:34:44.372Z</time>
      </trkpt>
      <trkpt lat="48.20788" lon="5.18798">
        <ele>274.89</ele>
        <time>2025-01-04T15:34:51.293Z</time>
      </trkpt>
      <trkpt lat="48.2078" lon="5.18762">
        <ele>274.66</ele>
        <time>2025-01-04T15:34:58.218Z</time>
      </trkpt>
      <trkpt lat="48.20773" lon="5.18727">
        <ele>274.36</ele>
        <time>2025-01-04T15:35:05.147Z</time>
      </trkpt>
      <trkpt lat="48.20764" lon="5.18691">
        <ele>274.06</ele>
        <time>2025-01-04T15:35:12.080Z</time>
      </trkpt>
      <trkpt lat="48.20756" lon="5.18655">
        <ele>273.81</ele>
        <time>2025-01-04T15:35:19.018Z</time>
      </trkpt>
      <trkpt lat="48.20748" lon="5.18626">
        <ele>273.63</ele>
        <time>2025-01-04T15:35:25.959Z</time>
      </trkpt>
      <trkpt lat="48.20741" lon="5.18596">
        <ele>273.44</ele>
        <time>2025-01-04T15:35:32.903Z</time>
      </trkpt>
      <trkpt lat="48.20738" lon="5.18586">
        <ele>273.23</ele>
        <time>2025-01-04T15:35:39.849Z</time>
      </trkpt>
      <trkpt lat="48.20735" lon="5.18577">
        <ele>273.04</ele>
        <time>2025-01-04T15:35:46.796Z</time>
      </trkpt>
      <trkpt lat="48.20726" lon="5.18559">
        <ele>272.82</ele>
        <time>2025-01-04T15:35:53.745Z</time>
      </trkpt>
      <trkpt lat="48.20721" lon="5.1855">
        <ele>272.64</ele>
        <time>2025-01-04T15:36:00.695Z</time>
      </trkpt>
      <trkpt lat="48.20709" lon="5.18539">
        <ele>272.48</ele>
        <time>2025-01-04T15:36:07.647Z</time>
      </trkpt>
      <trkpt lat="48.2069" lon="5.18522">
        <ele>272.36</ele>
        <time>2025-01-04T15:36:14.603Z</time>
      </trkpt>
      <trkpt lat="48.20667" lon="5.185">
        <ele>272.3</ele>
        <time>2025-01-04T15:36:21.563Z</time>
      </trkpt>
      <trkpt lat="48.20645" lon="5.18478">
        <ele>272.24</ele>
        <time>2025-01-04T15:36:28.528Z</time>
      </trkpt>
      <trkpt lat="48.20633" lon="5.18466">
        <ele>272.2</ele>
        <time>2025-01-04T15:36:35.495Z</time>
      </trkpt>
      <trkpt lat="48.20617" lon="5.18445">
        <ele>272.16</ele>
        <time>2025-01-04T15:36:42.465Z</time>
      </trkpt>
      <trkpt lat="48.20607" lon="5.18421">
        <ele>272.17</ele>
        <time>2025-01-04T15:36:49.438Z</time>
      </trkpt>
      <trkpt lat="48.20597" lon="5.18397">
        <ele>272.2</ele>
        <time>2025-01-04T15:36:56.414Z</time>
      </trkpt>
      <trkpt lat="48.2059" lon="5.18365">
        <ele>272.24</ele>
        <time>2025-01-04T15:37:03.394Z</time>
      </trkpt>
      <trkpt lat="48.20583" lon="5.18333">
        <ele>272.27</ele>
        <time>2025-01-04T15:37:10.378Z</time>
      </trkpt>
      <trkpt lat="48.20579" lon="5.18298">
        <ele>272.4</ele>
        <time>2025-01-04T15:37:17.365Z</time>
      </trkpt>
      <trkpt lat="48.20574" lon="5.18263">
        <ele>272.52</ele>
        <time>2025-01-04T15:37:24.356Z</time>
      </trkpt>
      <trkpt lat="48.2057" lon="5.1822">
        <ele>272.7</ele>
        <time>2025-01-04T15:37:31.352Z</time>
      </trkpt>
      <trkpt lat="48.20567" lon="5.18178">
        <ele>272.84</ele>
        <time>2025-01-04T15:37:38.352Z</time>
      </trkpt>
      <trkpt lat="48.20564" lon="5.18145">
        <ele>273.06</ele>
        <time>2025-01-04T15:37:45.356Z</time>
      </trkpt>
      <trkpt lat="48.20562" lon="5.18113">
        <ele>273.22</ele>
        <time>2025-01-04T15:37:52.363Z</time>
      </trkpt>
      <trkpt lat="48.20556" lon="5.18072">
        <ele>273.33</ele>
        <time>2025-01-04T15:37:59.375Z</time>
      </trkpt>
      <trkpt lat="48.20551" lon="5.18035">
        <ele>273.56</ele>
        <time>2025-01-04T15:38:06.391Z</time>
      </trkpt>
      <trkpt lat="48.20543" lon="5.1799">
        <ele>273.79</ele>
        <time>2025-01-04T15:38:13.412Z</time>
      </trkpt>
      <trkpt lat="48.20536" lon="5.17945">
        <ele>274.03</ele>
        <time>2025-01-04T15:38:20.438Z</time>
      </trkpt>
      <trkpt lat="48.20529" lon="5.179">
        <ele>274.22</ele>
        <time>2025-01-04T15:38:27.469Z</time>
      </trkpt>
      <trkpt lat="48.20522" lon="5.17855">
        <ele>274.31</ele>
        <time>2025-01-04T15:38:34.505Z</time>
      </trkpt>
      <trkpt lat="48.20512" lon="5.17815">
        <ele>274.39</ele>
        <time>2025-01-04T15:38:41.545Z</time>
      </trkpt>
      <trkpt lat="48.20503" lon="5.17776">
        <ele>274.49</ele>
        <time>2025-01-04T15:38:48.590Z</time>
      </trkpt>
      <trkpt lat="48.2049" lon="5.17733">
        <ele>274.58</ele>
        <time>2025-01-04T15:38:55.640Z</time>
      </trkpt>
      <trkpt lat="48.20477" lon="5.1769">
        <ele>274.67</ele>
        <time>2025-01-04T15:39:02.695Z</time>
      </trkpt>
      <trkpt lat="48.20464" lon="5.17647">
        <ele>274.6</ele>
        <time>2025-01-04T15:39:09.755Z</time>
      </trkpt>
      <trkpt lat="48.20454" lon="5.17608">
        <ele>274.51</ele>
        <time>2025-01-04T15:39:16.819Z</time>
      </trkpt>
      <trkpt lat="48.20445" lon="5.1757">
        <ele>274.32</ele>
        <time>2025-01-04T15:39:23.888Z</time>
      </trkpt>
      <trkpt lat="48.20441" lon="5.17543">
        <ele>274.17</ele>
        <time>2025-01-04T15:39:30.960Z</time>
      </trkpt>
      <trkpt lat="48.20438" lon="5.17516">
        <ele>274.02</ele>
        <time>2025-01-04T15:39:38.035Z</time>
      </trkpt>
      <trkpt lat="48.20435" lon="5.17473">
        <ele>273.78</ele>
        <time>2025-01-04T15:39:45.114Z</time>
      </trkpt>
      <trkpt lat="48.20432" lon="5.1743">
        <ele>273.43</ele>
        <time>2025-01-04T15:39:52.198Z</time>
      </trkpt>
      <trkpt lat="48.20432" lon="5.1743">
        <ele>273.1</ele>
        <time>2025-01-04T15:39:59.282Z</time>
      </trkpt>
      <trkpt lat="48.20431" lon="5.17391">
        <ele>272.76</ele>
        <time>2025-01-04T15:40:06.370Z</time>
      </trkpt>
      <trkpt lat="48.2043" lon="5.17351">
        <ele>272.27</ele>
        <time>2025-01-04T15:40:13.462Z</time>
      </trkpt>
      <trkpt lat="48.2043" lon="5.17312">
        <ele>271.72</ele>
        <time>2025-01-04T15:40:20.558Z</time>
      </trkpt>
      <trkpt lat="48.20433" lon="5.1727">
        <ele>271.18</ele>
        <time>2025-01-04T15:40:27.659Z</time>
      </trkpt>
      <trkpt lat="48.20436" lon="5.17229">
        <ele>270.54</ele>
        <time>2025-01-04T15:40:34.764Z</time>
      </trkpt>
      <trkpt lat="48.2044" lon="5.17191">
        <ele>269.88</ele>
        <time>2025-01-04T15:40:41.874Z</time>
      </trkpt>
      <trkpt lat="48.20445" lon="5.17154">
        <ele>269.21</ele>
        <time>2025-01-04T15:40:48.988Z</time>
      </trkpt>
      <trkpt lat="48.20449" lon="5.17116">
        <ele>268.52</ele>
        <time>2025-01-04T15:40:56.106Z</time>
      </trkpt>
      <trkpt lat="48.20453" lon="5.17079">
        <ele>267.74</ele>
        <time>2025-01-04T15:41:03.228Z</time>
      </trkpt>
      <trkpt lat="48.20457" lon="5.17042">
        <ele>266.93</ele>
        <time>2025-01-04T15:41:10.354Z</time>
      </trkpt>
      <trkpt lat="48.20465" lon="5.17005">
        <ele>266.04</ele>
        <time>2025-01-04T15:41:17.484Z</time>
      </trkpt>
      <trkpt lat="48.20473" lon="5.16969">
        <ele>265.08</ele>
        <time>2025-01-04T15:41:24.618Z</time>
      </trkpt>
      <trkpt lat="48.20481" lon="5.16932">
        <ele>264.16</ele>
        <time>2025-01-04T15:41:31.756Z</time>
      </trkpt>
      <trkpt lat="48.2049" lon="5.16897">
        <ele>263.22</ele>
        <time>2025-01-04T15:41:38.898Z</time>
      </trkpt>
      <trkpt lat="48.205" lon="5.16862">
        <ele>262.25</ele>
        <time>2025-01-04T15:41:46.044Z</time>
      </trkpt>
      <trkpt lat="48.20509" lon="5.16827">
        <ele>261.28</ele>
        <time>2025-01-04T15:41:53.194Z</time>
      </trkpt>
      <trkpt lat="48.20519" lon="5.16795">
        <ele>260.24</ele>
        <time>2025-01-04T15:42:00.348Z</time>
      </trkpt>
      <trkpt lat="48.20528" lon="5.16763">
        <ele>259.17</ele>
        <time>2025-01-04T15:42:07.506Z</time>
      </trkpt>
      <trkpt lat="48.20535" lon="5.16724">
        <ele>258.06</ele>
        <time>2025-01-04T15:42:14.668Z</time>
      </trkpt>
      <trkpt lat="48.20535" lon="5.16724">
        <ele>257.1</ele>
        <time>2025-01-04T15:42:21.830Z</time>
      </trkpt>
      <trkpt lat="48.20537" lon="5.16686">
        <ele>255.98</ele>
        <time>2025-01-04T15:42:28.996Z</time>
      </trkpt>
      <trkpt lat="48.20539" lon="5.16647">
        <ele>255.03</ele>
        <time>2025-01-04T15:42:36.166Z</time>
      </trkpt>
      <trkpt lat="48.20536" lon="5.16617">
        <ele>254.11</ele>
        <time>2025-01-04T15:42:43.340Z</time>
      </trkpt>
      <trkpt lat="48.20533" lon="5.16587">
        <ele>253.24</ele>
        <time>2025-01-04T15:42:50.517Z</time>
      </trkpt>
      <trkpt lat="48.20526" lon="5.16546">
        <ele>252.4</ele>
        <time>2025-01-04T15:42:57.698Z</time>
      </trkpt>
      <trkpt lat="48.20518" lon="5.16518">
        <ele>251.59</ele>
        <time>2025-01-04T15:43:04.883Z</time>
      </trkpt>
      <trkpt lat="48.20509" lon="5.1649">
        <ele>250.85</ele>
        <time>2025-01-04T15:43:12.071Z</time>
      </trkpt>
      <trkpt lat="48.20505" lon="5.1648">
        <ele>250.19</ele>
        <time>2025-01-04T15:43:19.260Z</time>
      </trkpt>
      <trkpt lat="48.20492" lon="5.16443">
        <ele>249.56</ele>
        <time>2025-01-04T15:43:26.454Z</time>
      </trkpt>
      <trkpt lat="48.20483" lon="5.16413">
        <ele>248.9</ele>
        <time>2025-01-04T15:43:33.651Z</time>
      </trkpt>
      <trkpt lat="48.20477" lon="5.16374">
        <ele>248.35</ele>
        <time>2025-01-04T15:43:40.852Z</time>
      </trkpt>
      <trkpt lat="48.2047" lon="5.16336">
        <ele>247.9</ele>
        <time>2025-01-04T15:43:48.058Z</time>
      </trkpt>
      <trkpt lat="48.20469" lon="5.16299">
        <ele>247.48</ele>
        <time>2025-01-04T15:43:55.268Z</time>
      </trkpt>
      <trkpt lat="48.20468" lon="5.16263">
        <ele>247.14</ele>
        <time>2025-01-04T15:44:02.481Z</time>
      </trkpt>
      <trkpt lat="48.20472" lon="5.16222">
        <ele>246.81</ele>
        <time>2025-01-04T15:44:09.699Z</time>
      </trkpt>
      <trkpt lat="48.20477" lon="5.16181">
        <ele>246.55</ele>
        <time>2025-01-04T15:44:16.921Z</time>
      </trkpt>
      <trkpt lat="48.20481" lon="5.16139">
        <ele>246.43</ele>
        <time>2025-01-04T15:44:24.148Z</time>
      </trkpt>
      <trkpt lat="48.20485" lon="5.16098">
        <ele>246.42</ele>
        <time>2025-01-04T15:44:31.379Z</time>
      </trkpt>
      <trkpt lat="48.2049" lon="5.16057">
        <ele>246.39</ele>
        <time>2025-01-04T15:44:38.615Z</time>
      </trkpt>
      <trkpt lat="48.20494" lon="5.16016">
        <ele>246.36</ele>
        <time>2025-01-04T15:44:45.855Z</time>
      </trkpt>
      <trkpt lat="48.20495" lon="5.15978">
        <ele>246.33</ele>
        <time>2025-01-04T15:44:53.099Z</time>
      </trkpt>
      <trkpt lat="48.20496" lon="5.15939">
        <ele>246.28</ele>
        <time>2025-01-04T15:45:00.347Z</time>
      </trkpt>
      <trkpt lat="48.20495" lon="5.15892">
        <ele>246.08</ele>
        <time>2025-01-04T15:45:07.600Z</time>
      </trkpt>
      <trkpt lat="48.20495" lon="5.15846">
        <ele>245.93</ele>
        <time>2025-01-04T15:45:14.858Z</time>
      </trkpt>
      <trkpt lat="48.20494" lon="5.158">
        <ele>245.77</ele>
        <time>2025-01-04T15:45:22.121Z</time>
      </trkpt>
      <trkpt lat="48.20491" lon="5.1576">
        <ele>245.57</ele>
        <time>2025-01-04T15:45:29.389Z</time>
      </trkpt>
      <trkpt lat="48.20489" lon="5.1572">
        <ele>245.29</ele>
        <time>2025-01-04T15:45:36.661Z</time>
      </trkpt>
      <trkpt lat="48.20486" lon="5.15681">
        <ele>245.06</ele>
        <time>2025-01-04T15:45:43.937Z</time>
      </trkpt>
      <trkpt lat="48.20484" lon="5.15641">
        <ele>244.76</ele>
        <time>2025-01-04T15:45:51.217Z</time>
      </trkpt>
      <trkpt lat="48.20481" lon="5.15602">
        <ele>244.46</ele>
        <time>2025-01-04T15:45:58.502Z</time>
      </trkpt>
      <trkpt lat="48.20477" lon="5.1556">
        <ele>244.14</ele>
        <time>2025-01-04T15:46:05.791Z</time>
      </trkpt>
      <trkpt lat="48.20473" lon="5.15517">
        <ele>243.86</ele>
        <time>2025-01-04T15:46:13.085Z</time>
      </trkpt>
      <trkpt lat="48.20469" lon="5.15475">
        <ele>243.66</ele>
        <time>2025-01-04T15:46:20.383Z</time>
      </trkpt>
      <trkpt lat="48.20465" lon="5.15433">
        <ele>243.45</ele>
        <time>2025-01-04T15:46:27.686Z</time>
      </trkpt>
      <trkpt lat="48.20461" lon="5.1539">
        <ele>243.17</ele>
        <time>2025-01-04T15:46:34.994Z</time>
      </trkpt>
      <trkpt lat="48.20457" lon="5.15348">
        <ele>242.89</ele>
        <time>2025-01-04T15:46:42.306Z</time>
      </trkpt>
      <trkpt lat="48.20452" lon="5.15305">
        <ele>242.59</ele>
        <time>2025-01-04T15:46:49.623Z</time>
      </trkpt>
      <trkpt lat="48.20448" lon="5.15263">
        <ele>242.28</ele>
        <time>2025-01-04T15:46:56.944Z</time>
      </trkpt>
      <trkpt lat="48.20444" lon="5.15221">
        <ele>241.95</ele>
        <time>2025-01-04T15:47:04.270Z</time>
      </trkpt>
      <trkpt lat="48.2044" lon="5.15179">
        <ele>241.66</ele>
        <time>2025-01-04T15:47:11.600Z</time>
      </trkpt>
      <trkpt lat="48.20437" lon="5.15133">
        <ele>241.34</ele>
        <time>2025-01-04T15:47:18.935Z</time>
      </trkpt>
      <trkpt lat="48.20434" lon="5.15087">
        <ele>241.04</ele>
        <time>2025-01-04T15:47:26.275Z</time>
      </trkpt>
      <trkpt lat="48.20431" lon="5.15041">
        <ele>240.67</ele>
        <time>2025-01-04T15:47:33.620Z</time>
      </trkpt>
      <trkpt lat="48.20427" lon="5.14995">
        <ele>240.11</ele>
        <time>2025-01-04T15:47:40.970Z</time>
      </trkpt>
      <trkpt lat="48.20427" lon="5.14995">
        <ele>239.7</ele>
        <time>2025-01-04T15:47:48.320Z</time>
      </trkpt>
      <trkpt lat="48.20427" lon="5.1496">
        <ele>239.15</ele>
        <time>2025-01-04T15:47:55.674Z</time>
      </trkpt>
      <trkpt lat="48.20427" lon="5.14926">
        <ele>238.75</ele>
        <time>2025-01-04T15:48:03.032Z</time>
      </trkpt>
      <trkpt lat="48.20427" lon="5.14892">
        <ele>238.36</ele>
        <time>2025-01-04T15:48:10.393Z</time>
      </trkpt>
      <trkpt lat="48.20427" lon="5.14881">
        <ele>237.01</ele>
        <time>2025-01-04T15:48:17.755Z</time>
      </trkpt>
      <trkpt lat="48.20427" lon="5.14873">
        <ele>236.95</ele>
        <time>2025-01-04T15:48:25.118Z</time>
      </trkpt>
      <trkpt lat="48.20427" lon="5.14858">
        <ele>236.86</ele>
        <time>2025-01-04T15:48:32.483Z</time>
      </trkpt>
      <trkpt lat="48.20426" lon="5.14817">
        <ele>236.73</ele>
        <time>2025-01-04T15:48:39.852Z</time>
      </trkpt>
      <trkpt lat="48.20425" lon="5.14776">
        <ele>236.41</ele>
        <time>2025-01-04T15:48:47.226Z</time>
      </trkpt>
      <trkpt lat="48.20425" lon="5.14755">
        <ele>236.17</ele>
        <time>2025-01-04T15:48:54.602Z</time>
      </trkpt>
      <trkpt lat="48.20425" lon="5.14711">
        <ele>235.25</ele>
        <time>2025-01-04T15:49:01.983Z</time>
      </trkpt>
      <trkpt lat="48.20424" lon="5.14667">
        <ele>234.95</ele>
        <time>2025-01-04T15:49:09.368Z</time>
      </trkpt>
      <trkpt lat="48.20424" lon="5.14624">
        <ele>234.6</ele>
        <time>2025-01-04T15:49:16.758Z</time>
      </trkpt>
      <trkpt lat="48.20423" lon="5.14581">
        <ele>235.31</ele>
        <time>2025-01-04T15:49:24.153Z</time>
      </trkpt>
      <trkpt lat="48.20418" lon="5.1455">
        <ele>234.06</ele>
        <time>2025-01-04T15:49:31.551Z</time>
      </trkpt>
      <trkpt lat="48.20412" lon="5.14518">
        <ele>235.12</ele>
        <time>2025-01-04T15:49:38.952Z</time>
      </trkpt>
      <trkpt lat="48.20405" lon="5.14475">
        <ele>233.99</ele>
        <time>2025-01-04T15:49:46.358Z</time>
      </trkpt>
      <trkpt lat="48.20397" lon="5.14433">
        <ele>235.21</ele>
        <time>2025-01-04T15:49:53.769Z</time>
      </trkpt>
      <trkpt lat="48.20395" lon="5.14411">
        <ele>235.38</ele>
        <time>2025-01-04T15:50:01.182Z</time>
      </trkpt>
      <trkpt lat="48.20391" lon="5.14394">
        <ele>235.69</ele>
        <time>2025-01-04T15:50:08.597Z</time>
      </trkpt>
      <trkpt lat="48.20385" lon="5.14355">
        <ele>236.16</ele>
        <time>2025-01-04T15:50:16.016Z</time>
      </trkpt>
      <trkpt lat="48.20367" lon="5.14319">
        <ele>236.71</ele>
        <time>2025-01-04T15:50:23.440Z</time>
      </trkpt>
      <trkpt lat="48.20363" lon="5.1431">
        <ele>237.25</ele>
        <time>2025-01-04T15:50:30.865Z</time>
      </trkpt>
      <trkpt lat="48.20346" lon="5.14284">
        <ele>236.89</ele>
        <time>2025-01-04T15:50:38.294Z</time>
      </trkpt>
      <trkpt lat="48.20329" lon="5.14257">
        <ele>237.7</ele>
        <time>2025-01-04T15:50:45.727Z</time>
      </trkpt>
      <trkpt lat="48.20312" lon="5.14231">
        <ele>239.43</ele>
        <time>2025-01-04T15:50:53.164Z</time>
      </trkpt>
      <trkpt lat="48.20298" lon="5.14217">
        <ele>239.27</ele>
        <time>2025-01-04T15:51:00.604Z</time>
      </trkpt>
      <trkpt lat="48.20284" lon="5.14203">
        <ele>240.77</ele>
        <time>2025-01-04T15:51:08.047Z</time>
      </trkpt>
      <trkpt lat="48.20271" lon="5.14188">
        <ele>240.76</ele>
        <time>2025-01-04T15:51:15.492Z</time>
      </trkpt>
      <trkpt lat="48.20258" lon="5.14173">
        <ele>242.2</ele>
        <time>2025-01-04T15:51:22.940Z</time>
      </trkpt>
      <trkpt lat="48.20245" lon="5.14156">
        <ele>242.92</ele>
        <time>2025-01-04T15:51:30.391Z</time>
      </trkpt>
      <trkpt lat="48.20236" lon="5.14134">
        <ele>243.62</ele>
        <time>2025-01-04T15:51:37.844Z</time>
      </trkpt>
      <trkpt lat="48.20234" lon="5.1413">
        <ele>244.18</ele>
        <time>2025-01-04T15:51:45.298Z</time>
      </trkpt>
      <trkpt lat="48.20225" lon="5.14096">
        <ele>244.3</ele>
        <time>2025-01-04T15:51:52.756Z</time>
      </trkpt>
      <trkpt lat="48.20215" lon="5.14061">
        <ele>245.25</ele>
        <time>2025-01-04T15:52:00.218Z</time>
      </trkpt>
      <trkpt lat="48.20204" lon="5.14078">
        <ele>245.29</ele>
        <time>2025-01-04T15:52:07.682Z</time>
      </trkpt>
      <trkpt lat="48.20192" lon="5.14095">
        <ele>245.72</ele>
        <time>2025-01-04T15:52:15.149Z</time>
      </trkpt>
    </trkseg>
  </trk>
</gpx>